[[{"header":{"parameterUnit":"m.s-1","parameterCategory":1,"la1":31.0,"la2":29.5877,"lo1":-88.7671,"lo2":-86.6584,"dy":0.0162,"dx":0.0185,"nx":115,"ny":88,"refTime":"2023-11-20T12:00:00:Z","depth":0,"parameterNumber":2,"parameterNumberName":"U-component_of_WINDS"},"data":[0.0,0.0,0.0,0.0,0.0,0.0,0.0,0.0,0.0,0.0,0.0,0.0,0.0,0.0,0.0,0.0,0.0,0.0,0.0,0.0,0.0,0.0,0.0,0.0,0.0,0.0,0.0,0.0,0.0,0.0,0.0,0.0,0.0,0.0,0.0,0.0,0.0,0.0,0.0,0.0,0.0,0.2391,0.2492,0.1939,0.1143,0.0,-0.1584,0.0,0.0,0.0,0.0,0.0,0.0,0.0,0.0,0.0,0.0,0.0,0.0,0.0,0.0,0.0,0.0,0.0,0.0,0.0,0.0,0.0,0.0,0.0,0.0,0.0,0.0,0.0,0.0,0.0,0.0,0.0,0.0,0.0,0.0,0.0,0.0,0.0,0.0,0.0,0.0,0.0,0.0,0.0,0.0,0.0,0.0,0.0,0.0,0.0,0.0,0.0,0.0,0.0,0.0,0.0,0.0,0.0,0.0,0.0,0.0,0.0,0.0,0.0,0.0,0.0,0.0,0.0,0.0,0.0,0.0,0.0,0.0,0.0,0.0,0.0,0.0,0.0,0.0,0.0,0.0,0.0,0.0,0.0,0.0,0.0,0.0,0.0,0.0,0.0,0.0,0.0,0.0,0.0,0.0,0.0,0.0,0.0,0.0,0.0,0.0,0.0,0.0,0.0,0.0,0.0,0.0,0.0,0.0,0.0,0.0,0.2442,0.1725,0.0793,-0.0377,-0.1885,0.0,0.0,0.0,0.0,0.0,0.0,0.0,0.0,0.0,0.0,0.0,0.0,0.0,0.0,0.0,0.0,0.0,0.0,0.0,0.0,0.0,0.0,0.0,0.0,0.0,0.0,0.0,0.0,0.0,0.0,0.0,0.0,0.0,0.0,0.0,0.0,0.0,0.0,0.0,0.0,0.0,0.0,0.0,0.0,0.0,0.0,0.0,0.0,0.0,0.0,0.0,0.0,0.0,0.0,0.0,0.0,0.0,0.0,0.0,0.0,0.0,0.0,0.0,0.0,0.0,0.0,0.0,0.0,0.0,0.0,0.0,0.0,0.0,0.0,0.0,0.0,0.0,0.0,0.0,0.0,0.0,0.0,0.0,0.0,0.0,0.0,0.0,0.0,0.0,0.0,0.0,0.0,0.0,0.0,0.0,0.0,0.0,0.0,0.0,0.0,0.0,0.0,0.0,0.0,0.0,0.0,0.0,0.0,0.0,0.0,0.2298,0.183,0.0749,-0.0437,-0.1668,0.0,0.0,0.0,0.0,0.0,0.0,0.0,0.0,0.0,0.0,0.0,0.0,0.0,0.0,0.0,0.0,0.0,0.0,0.0,0.0,0.0,0.0,0.0,0.0,0.0,0.0,0.0,0.0,0.0,0.0,0.0,0.0,0.0,0.0,0.0,0.0,0.0,0.0,0.0,0.0,0.0,0.0,0.0,0.0,0.0,0.0,0.0,0.0,0.0,0.0,0.0,0.0,0.0,0.0,0.0,0.0,0.0,0.0,0.0,0.0,0.0,0.0,0.0,0.0,0.0,0.0,0.0,0.0,0.0,0.0,0.0,0.0,0.0,0.0,0.0,0.0,0.0,0.0,0.0,0.0,0.0,0.0,0.0,0.0,0.0,0.0,0.0,0.0,0.0,0.0,0.0,0.0,0.0,0.0,0.0,0.0,0.0,0.0,0.0,0.0,0.0,0.0,0.0,0.0,0.0,0.0,0.0,0.0,0.0,0.0,0.1972,0.1459,0.0702,-0.038,-0.1792,-0.3678,0.0,0.0,0.0,0.0,0.0,0.0,0.0,0.0,0.0,0.0,0.0,0.0,0.0,0.0,0.0,0.0,0.0,0.0,0.0,0.0,0.0,0.0,0.0,0.0,0.0,0.0,0.0,0.0,0.0,0.0,0.0,0.0,0.0,0.0,0.0,0.0,0.0,0.0,0.0,0.0,0.0,0.0,0.0,0.0,0.0,0.0,0.0,0.0,0.0,0.0,0.0,0.0,0.0,0.0,0.0,0.0,0.0,0.0,0.0,0.0,0.0,0.0,0.0,0.0,0.0,0.0,0.0,0.0,0.0,0.0,0.0,0.0,0.0,0.0,0.0,0.0,0.0,0.0,0.0,0.0,0.0,0.0,0.0,0.0,0.0,0.0,0.0,0.0,0.0,0.0,0.0,0.0,0.0,0.0,0.0,0.0,0.0,0.0,0.0,0.0,0.0,0.0,0.0,0.0,0.0,0.0,0.0,0.0,0.0,0.1609,0.098,0.0622,-0.0346,-0.2054,-0.3995,0.0,0.0,0.0,0.0,0.0,0.0,0.0,0.0,0.0,0.0,0.0,0.0,0.0,0.0,0.0,0.0,0.0,0.0,0.0,0.0,0.0,0.0,0.0,0.0,0.0,0.0,0.0,0.0,0.0,0.0,0.0,0.0,0.0,0.0,0.0,0.0,0.0,0.0,0.0,0.0,0.0,0.0,0.0,0.0,0.0,0.0,0.0,0.0,0.0,0.0,0.0,0.0,0.0,0.0,0.0,0.0,0.0,0.0,0.0,0.0,0.0,0.0,0.0,0.0,0.0,0.0,0.0,0.0,0.0,0.0,0.0,0.0,0.0,0.0,0.0,0.0,0.0,0.0,0.0,0.0,0.0,0.0,0.0,0.0,0.0,0.0,0.0,0.0,0.0,0.0,0.0,0.0,0.0,0.0,0.0,0.0,0.0,0.0,0.0,0.0,0.0,0.0,0.0,0.0,0.0,0.0,0.0,0.0,0.0,0.1475,0.106,0.0545,-0.0469,-0.2054,-0.4547,0.0,0.0,0.0,0.0,0.0,0.0,0.0,0.0,0.0,0.0,0.0,0.0,0.0,0.0,0.0,0.0,0.0,0.0,0.0,0.0,0.0,0.0,0.0,0.0,0.0,0.0,0.0,0.0,0.0,0.0,0.0,0.0,0.0,0.0,0.0,0.0,0.0,0.0,0.0,0.0,0.0,0.0,0.0,0.0,0.0,0.0,0.0,0.0,0.0,0.0,0.0,0.0,0.0,0.0,0.0,0.0,0.0,0.0,0.0,0.0,0.0,0.0,0.0,0.0,0.0,0.0,0.0,0.0,0.0,0.0,0.0,0.0,0.0,0.0,0.0,0.0,0.0,0.0,0.0,0.0,0.0,0.0,0.0,0.0,0.0,0.0,0.0,0.0,0.0,0.0,0.0,0.0,0.0,0.0,0.0,0.0,0.0,0.0,0.0,0.0,0.0,0.0,0.0,0.0,0.0,0.0,0.0,0.0,0.0,0.1442,0.1143,0.0723,-0.0428,-0.2478,-0.5559,0.0,0.0,0.0,0.0,0.0,0.0,0.0,0.0,0.0,0.0,0.0,0.0,0.0,0.0,0.0,0.0,0.0,0.0,0.0,0.0,0.0,0.0,0.0,0.0,0.0,0.0,0.0,0.0,0.0,0.0,0.0,0.0,0.0,0.0,0.0,0.0,0.0,0.0,0.0,0.0,0.0,0.0,0.0,0.0,0.0,0.0,0.0,0.0,0.0,0.0,0.0,0.0,0.0,0.0,0.0,0.0,0.0,0.0,0.0,0.0,0.0,0.0,0.0,0.0,0.0,0.0,0.0,0.0,0.0,0.0,0.0,0.0,0.0,0.0,0.0,0.0,0.0,0.0,0.0,0.0,0.0,0.0,0.0,0.0,0.0,0.0,0.0,0.0,0.0,0.0,0.0,0.0,0.0,0.0,0.0,0.0,0.0,0.0,0.0,0.0,0.0,0.0,0.0,0.0,0.0,0.0,0.0,0.0,0.1896,0.1416,0.1095,0.0714,-0.0541,-0.2867,-0.6551,0.0,0.0,0.0,0.0,0.0,0.0,0.0,0.0,0.0,0.0,0.0,0.0,0.0,0.0,0.0,0.0,0.0,0.0,0.0,0.0,0.0,0.0,0.0,0.0,0.0,0.0,0.0,0.0,0.0,0.0,0.0,0.0,0.0,0.0,0.0,0.0,0.0,0.0,0.0,0.0,0.0,0.0,0.0,0.0,0.0,0.0,0.0,0.0,0.0,0.0,0.0,0.0,0.0,0.0,0.0,0.0,0.0,0.0,0.0,0.0,0.0,0.0,0.0,0.0,0.0,0.0,0.0,0.0,0.0,0.0,0.0,0.0,0.0,0.0,0.0,0.0,0.0,0.0,0.0,0.0,0.0,0.0,0.0,0.0,0.0,0.0,0.0,0.0,0.0,0.0,0.0,0.0,0.0,0.0,0.0,0.0,0.0,0.0,0.0,0.0,0.0,0.0,0.0,0.0,0.0,0.0,0.0,0.2689,0.183,0.1136,0.0681,-0.0079,-0.1252,-0.2897,-0.6943,0.0,0.0,0.0,0.0,0.0,0.0,0.0,0.0,0.0,0.0,0.0,0.0,0.0,0.0,0.0,0.0,0.0,0.0,0.0,0.0,0.0,0.0,0.0,0.0,0.0,0.0,0.0,0.0,0.0,0.0,0.0,0.0,0.0,0.0,0.0,0.0,0.0,0.0,0.0,0.0,0.0,0.0,0.0,0.0,0.0,0.0,0.0,0.0,0.0,0.0,0.0,0.0,0.0,0.0,0.0,0.0,0.0,0.0,0.0,0.0,0.0,0.0,0.0,0.0,0.0,0.0,0.0,0.0,0.0,0.0,0.0,0.0,0.0,0.0,0.0,0.0,0.0,0.0,0.0,0.0,0.0,0.0,0.0,0.0,0.0,0.0,0.0,0.0,0.0,0.0,0.0,0.0,0.0,0.0,0.0,0.0,0.0,0.0,0.0,0.0,0.0,0.0,0.0,0.0,0.0,0.0,0.2178,0.2001,0.1309,0.0749,0.0363,-0.0531,-0.1905,-0.3824,-0.7518,0.0,0.0,0.0,0.0,0.0,0.0,0.0,0.0,0.0,0.0,0.0,0.0,0.0,0.0,0.0,0.0,0.0,0.0,0.0,0.0,0.0,0.0,0.0,0.0,0.0,0.0,0.0,0.0,0.0,0.0,0.0,0.0,0.0,0.0,0.0,0.0,0.0,0.0,0.0,0.0,0.0,0.0,0.0,0.0,0.0,0.0,0.0,0.0,0.0,0.0,0.0,0.0,0.0,0.0,0.0,0.0,0.0,0.0,0.0,0.0,0.0,0.0,0.0,0.0,0.0,0.0,0.0,0.0,0.0,0.0,0.0,0.0,0.0,0.0,0.0,0.0,0.0,0.0,0.0,0.0,0.0,0.0,0.0,0.0,0.0,0.0,0.0,0.0,0.0,0.0,0.0,0.0,0.0,0.0,0.0,0.0,0.0,0.0,0.0,0.0,0.0,0.0,0.0,0.0,0.0,0.0,0.1578,0.1222,0.0761,0.0329,-0.0097,-0.1059,-0.272,-0.515,0.0,0.0,0.0,0.0,0.0,0.0,0.0,0.0,0.0,0.0,0.0,0.0,0.0,0.0,0.0,0.0,0.0,0.0,0.0,0.0,0.0,0.0,0.0,0.0,0.0,0.0,0.0,0.0,0.0,0.0,0.0,0.0,0.0,0.0,0.0,0.0,0.0,0.0,0.0,0.0,0.0,0.0,0.0,0.0,0.0,0.0,0.0,0.0,0.0,0.0,0.0,0.0,0.0,0.0,0.0,0.0,0.0,0.0,0.0,0.0,0.0,0.0,0.0,0.0,0.0,0.0,0.0,0.0,0.0,0.0,0.0,0.0,0.0,0.0,0.0,0.0,0.0,0.0,0.0,0.0,0.0,0.0,0.0,0.0,0.0,0.0,0.0,0.0,0.0,0.0,0.0,0.0,0.0,0.0,0.0,0.0,0.0,0.0,0.0,0.0,0.0,0.0,0.0,0.0,0.0,0.0,0.0,0.1466,0.0733,0.0378,-0.013,-0.0861,-0.189,-0.3851,-0.6821,0.0,0.0,0.0,0.0,0.0,0.0,0.0,0.0,0.0,0.0,0.0,0.0,0.0,0.0,0.0,0.0,0.0,0.0,0.0,0.0,0.0,0.0,0.0,0.0,0.0,0.0,0.0,0.0,0.0,0.0,0.0,0.0,0.0,0.0,0.0,0.0,0.0,0.0,0.0,0.0,0.0,0.0,0.0,0.0,0.0,0.0,0.0,0.0,0.0,0.0,0.0,0.0,0.0,0.0,0.0,0.0,0.0,0.0,0.0,0.0,0.0,0.0,0.0,0.0,0.0,0.0,0.0,0.0,0.0,0.0,0.0,0.0,0.0,0.0,0.0,0.0,0.0,0.0,0.0,0.0,0.0,0.0,0.0,0.0,0.0,0.0,0.0,0.0,0.0,0.0,0.0,0.0,0.0,0.0,0.0,0.0,0.0,0.0,0.0,0.0,0.0,0.0,0.0,0.0,0.0,0.0,0.1271,0.1019,0.0439,-0.0198,-0.0772,-0.1349,-0.3549,-0.5521,-0.7113,0.0,0.0,0.0,0.0,0.0,0.0,0.0,0.0,0.0,0.0,0.0,0.0,0.0,0.0,0.0,0.0,0.0,0.0,0.0,0.0,0.0,0.0,0.0,0.0,0.0,0.0,0.0,0.0,0.0,0.0,0.0,0.0,0.0,0.0,0.0,0.0,0.0,0.0,0.0,0.0,0.0,0.0,0.0,0.0,0.0,0.0,0.0,0.0,0.0,0.0,0.0,0.0,0.0,0.0,0.0,0.0,0.0,0.0,0.0,0.0,0.0,0.0,0.0,0.0,0.0,0.0,0.0,0.0,0.0,0.0,0.0,0.0,0.0,0.0,0.0,0.0,0.0,0.0,0.0,0.0,0.0,0.0,0.0,0.0,0.0,0.0,0.0,0.0,0.0,0.0,0.0,0.0,0.0,0.0,0.0,0.0,0.0,0.0,0.0,0.0,0.0,0.0,0.0,0.0,0.0,0.0809,0.0877,0.0568,-0.0115,-0.072,-0.1433,-0.2289,-0.4376,-0.6003,-0.7005,0.0,0.0,0.0,0.0,0.0,0.0,0.0,0.0,0.0,0.0,0.0,0.0,0.0,0.0,0.0,0.0,0.0,0.0,0.0,0.0,0.0,0.0,0.0,0.0,0.0,0.0,0.0,0.0,0.0,0.0,0.0,0.0,0.0,0.0,0.0,0.0,0.0,0.0,0.0,0.0,0.0,0.0,0.0,0.0,0.0,0.0,0.0,0.0,0.0,0.0,0.0,0.0,0.0,0.0,0.0,0.0,0.0,0.0,0.0,0.0,0.0,0.0,0.0,0.0,0.0,0.0,0.0,0.0,0.0,0.0,0.0,0.0,0.0,0.0,0.0,0.0,0.0,0.0,0.0,0.0,0.0,0.0,0.0,0.0,0.0,0.0,0.0,0.0,0.0,0.0,0.0,0.0,0.0,0.0,0.0,0.0,0.0,0.0,0.0,0.0,0.0,0.0,0.0,0.0,0.0,0.0,0.0753,0.0245,-0.1033,-0.1096,-0.2001,-0.375,-0.3727,-0.4666,-0.6723,0.0,0.0,0.0,0.0,0.0,0.0,0.0,0.0,0.0,0.0,0.0,0.0,0.0,0.0,0.0,0.0,0.0,0.0,0.0,0.0,0.0,0.0,0.0,0.0,0.0,0.0,0.0,0.0,0.0,0.0,0.0,0.0,0.0,0.0,0.0,0.0,0.0,0.0,0.0,0.0,0.0,0.0,0.0,0.0,0.0,0.0,0.0,0.0,0.0,0.0,0.0,0.0,0.0,0.0,0.0,0.0,0.0,0.0,0.0,0.0,0.0,0.0,0.0,0.0,0.0,0.0,0.0,0.0,0.0,0.0,0.0,0.0,0.0,0.0,0.0,0.0,0.0,0.0,0.0,0.0,0.0,0.0,0.0,0.0,0.0,0.0,0.0,0.0,0.0,0.0,0.0,0.0,0.0,0.0,0.0,0.0,0.0,0.0,0.0,0.0,0.0,0.0,0.0,0.0,0.0,0.0,0.1665,0.1154,0.0313,-0.1011,-0.2279,-0.3399,-0.4571,-0.5568,-0.6243,0.0,0.0,0.0,0.0,0.0,0.0,0.0,0.0,0.0,0.0,0.0,0.0,0.0,0.0,0.0,0.0,0.0,0.0,0.0,0.0,0.0,0.0,0.0,0.0,0.0,0.0,0.0,0.0,0.0,0.0,0.0,0.0,0.0,0.0,0.0,0.0,0.0,0.0,0.0,0.0,0.0,0.0,0.0,0.0,0.0,0.0,0.0,0.0,0.0,0.0,0.0,0.0,0.0,0.0,0.0,0.0,0.0,0.0,0.0,0.0,0.0,0.0,0.0,0.0,0.0,0.0,0.0,0.0,0.0,0.0,0.0,0.0,0.0,0.0,0.0,0.0,0.0,0.0,0.0,0.0,0.0,0.0,0.0,0.0,0.0,0.0,0.0,0.0,0.0,0.0,0.0,0.0,0.0,0.0,0.0,0.0,0.0,0.0,0.0,0.0,0.0,0.0,0.0,0.0,0.0,0.0,0.2557,0.1356,0.0294,-0.1509,-0.2826,-0.3598,-0.4995,-0.5885,0.0,0.0,0.0,0.0,0.0,0.0,0.0,0.0,0.0,0.0,0.0,0.0,0.0,0.0,0.0,0.0,0.0,0.0,0.0,0.0,0.0,0.0,0.0,0.0,0.0,0.0,0.0,0.0,0.0,0.0,0.0,0.0,0.0,0.0,0.0,0.0,0.0,0.0,0.0,0.0,0.0,0.0,0.0,0.0,0.0,0.0,0.0,0.0,0.0,0.0,0.0,0.0,0.0,0.0,0.0,0.0,0.0,0.0,0.0,0.0,0.0,0.0,0.0,0.0,0.0,0.0,0.0,0.0,0.0,0.0,0.0,0.0,0.0,0.0,0.0,0.0,0.0,0.0,0.0,0.0,0.0,0.0,0.0,0.0,0.0,0.0,0.0,0.0,0.0,0.0,0.0,0.0,0.0,0.0,0.0,0.0,0.0,0.0,0.0,0.0,0.0,0.0,0.0,0.0,0.0,0.0,0.0,0.3334,0.0698,-0.1478,-0.2666,-0.3669,-0.4541,-0.4792,-0.5528,0.0,0.0,0.0,0.0,0.0,0.0,0.0,0.0,0.0,0.0,0.0,0.0,0.0,0.0,0.0,0.0,0.0,0.0,0.0,0.0,0.0,0.0,0.0,0.0,0.0,0.0,0.0,0.0,0.0,0.0,0.0,0.0,0.0,0.0,0.0,0.0,0.0,0.0,0.0,0.0,0.0,0.0,0.0,0.0,0.0,0.0,0.0,0.0,0.0,0.0,0.0,0.0,0.0,0.0,0.0,0.0,0.0,0.0,0.0,0.0,0.0,0.0,0.0,0.0,0.0,0.0,0.0,0.0,0.0,0.0,0.0,0.0,0.0,0.0,0.0,0.0,0.0,0.0,0.0,0.0,0.0,0.0,0.0,0.0,0.0,0.0,0.0,0.0,0.0,0.0,0.0,0.0,0.0,0.0,0.0,0.0,0.0,0.0,0.0,0.0,0.0,0.0,0.0,0.0,0.0,0.0,0.0,0.1994,0.031,-0.0778,-0.2527,-0.3827,-0.464,-0.5611,-0.6578,-0.7534,0.0,0.0,0.0,0.0,0.0,0.0,0.0,0.0,0.0,0.0,0.0,0.0,0.0,0.0,0.0,0.0,0.0,0.0,0.0,0.0,0.0,0.0,0.0,0.0,0.0,0.0,0.0,0.0,0.0,0.0,0.0,0.0,0.0,0.0,0.0,0.0,0.0,0.0,0.0,0.0,0.0,0.0,0.0,0.0,0.0,0.0,0.0,0.0,0.0,0.0,0.0,0.0,0.0,0.0,0.0,0.0,0.0,0.0,0.0,0.0,0.0,0.0,0.0,0.0,0.0,0.0,0.0,0.0,0.0,0.0,0.0,0.0,0.0,0.0,0.0,0.0,0.0,0.0,0.0,0.0,0.0,0.0,0.0,0.0,0.0,0.0,0.0,0.0,0.0,0.0,0.0,0.0,0.0,0.0,0.0,0.0,0.0,0.0,0.0,0.0,0.0,0.0,0.0,0.0,0.0,0.0,0.0686,-0.1077,-0.204,-0.3426,-0.4593,-0.5508,-0.6597,-0.7483,-0.8113,0.0,0.0,0.0,0.0,0.0,0.0,0.0,0.0,0.0,0.0,0.0,0.0,0.0,0.0,0.0,0.0,0.0,0.0,0.0,0.0,0.0,0.0,0.0,0.0,0.0,0.0,0.0,0.0,0.0,0.0,0.0,0.0,0.0,0.0,0.0,0.0,0.0,0.0,0.0,0.0,0.0,0.0,0.0,0.0,0.0,0.0,0.0,0.0,0.0,0.0,0.0,0.0,0.0,0.0,0.0,0.0,0.0,0.0,0.0,0.0,0.0,0.0,0.0,0.0,0.0,0.0,0.0,0.0,0.0,0.0,0.0,0.0,0.0,0.0,0.0,0.0,0.0,0.0,0.0,0.0,0.0,0.0,0.0,0.0,0.0,0.0,0.0,0.0,0.0,0.0,0.0,0.0,0.0,0.0,0.0,0.0,0.0,0.0,0.0,0.0,0.0,0.0,0.0,0.0,0.0,0.0,0.0,-0.3329,-0.4952,-0.5376,-0.6056,-0.6985,-0.7741,-0.8265,-0.8564,0.0,0.0,0.0,0.0,0.0,0.0,0.0,0.0,0.0,0.0,0.0,0.0,0.0,0.0,0.0,0.0,0.0,0.0,0.0,0.0,0.0,0.0,0.0,0.0,0.0,0.0,0.0,0.0,0.0,0.0,0.0,0.0,0.0,0.0,0.0,0.0,0.0,0.0,0.0,0.0,0.0,0.0,0.0,0.0,0.0,0.0,0.0,0.0,0.0,0.0,0.0,0.0,0.0,0.0,0.0,0.0,0.0,0.0,0.0,0.0,0.0,0.0,0.0,0.0,0.0,0.0,0.0,0.0,0.0,0.0,0.0,0.0,0.0,0.0,0.0,0.0,0.0,0.0,0.0,0.0,0.0,0.0,0.0,0.0,0.0,0.0,0.0,0.0,0.0,0.0,0.0,0.0,0.0,0.0,0.0,0.0,0.0,0.0,0.0,0.0,0.0,0.0,0.0,0.0,0.0,0.0,-0.283,-0.5477,-0.7051,-0.844,-0.895,-0.8549,-0.9082,-0.9513,-0.9737,0.0,0.0,0.0,0.0,0.0,0.0,0.0,0.0,0.0,0.0,0.0,0.0,0.0,0.0,0.0,0.0,0.0,0.0,0.0,0.0,0.0,0.0,0.0,0.0,0.0,0.0,0.0,0.0,0.0,0.0,0.0,0.0,0.0,0.0,0.0,0.0,0.0,0.0,0.0,0.0,0.0,0.0,0.0,0.0,0.0,0.0,0.0,0.0,0.0,0.0,0.0,0.0,0.0,0.0,0.0,0.0,0.0,0.0,0.0,0.0,0.0,0.0,0.0,0.0,0.0,0.0,0.0,0.0,0.0,0.0,0.0,0.0,0.0,0.0,0.0,0.0,0.0,0.0,0.0,0.0,0.0,0.0,0.0,0.0,0.0,0.0,0.0,0.0,0.0,0.0,0.0,0.0,0.0,0.0,0.0,0.0,0.0,0.0,0.0,0.0,0.0,0.0,0.0,0.0,0.0,0.0,-0.5521,-0.8085,-0.9714,-1.1236,-1.1571,-1.0682,-1.0728,-1.0634,-1.0354,0.0,0.0,0.0,0.0,0.0,0.0,0.0,0.0,0.0,0.0,0.0,0.0,0.0,0.0,0.0,0.0,0.0,0.0,0.0,0.0,0.0,0.0,0.0,0.0,0.0,0.0,0.0,0.0,0.0,0.0,0.0,0.0,0.0,0.0,0.0,0.0,0.0,0.0,0.0,0.0,0.0,0.0,0.0,0.0,0.0,0.0,0.0,0.0,0.6563,0.0,0.0,0.0,0.0,0.0,0.0,0.0,0.0,0.0,0.0,0.0,0.0,0.0,0.0,0.0,0.0,0.0,0.0,0.0,0.0,0.0,0.0,0.0,0.0,0.0,0.0,0.0,0.0,0.0,0.0,0.0,0.0,0.0,0.0,0.0,0.0,0.0,0.0,0.0,0.0,0.0,0.0,0.0,0.0,0.0,0.0,0.0,0.0,0.0,0.0,0.0,0.0,0.0,0.0,0.0,-0.1294,-0.5241,-0.8525,-1.0891,-1.2428,-1.3575,-1.377,-1.2977,-1.2395,-1.1616,-1.0499,0.0,0.0,0.0,0.0,0.0,0.0,0.0,0.0,0.0,0.0,0.0,0.0,0.0,0.0,0.0,0.0,0.0,0.0,0.0,0.0,0.0,0.0,0.0,0.0,0.0,0.0,0.0,0.0,0.0,0.0,0.0,0.0,0.0,0.0,0.0,0.0,0.0,0.0,0.0,0.0,0.0,0.0,0.0,0.0,0.0,0.0,0.0,1.0681,0.6957,0.0,0.0,0.0,0.0,0.0,0.0,0.0,0.0,0.0,0.0,0.0,0.0,0.0,0.0,0.0,0.0,0.0,0.0,0.0,0.0,0.0,0.0,0.0,0.0,0.0,0.0,0.0,0.0,0.0,-0.0358,0.0,0.0,0.0,0.0,0.0,0.0,0.0,0.0,0.0,0.0,0.0,0.0,0.0,0.0,0.0,0.0,0.0,0.0,0.0,0.0,0.0,0.0,0.0,0.0,-0.1601,-0.5269,-0.8858,-1.1338,-1.2848,-1.3375,-1.428,-1.4493,-1.3988,-1.3252,-1.2032,-1.0348,0.0,0.0,0.0,0.0,0.0,0.0,0.0,0.0,0.0,0.0,0.0,0.0,0.0,0.0,0.0,0.0,0.0,0.0,0.0,0.0,0.0,0.0,0.0,0.0,0.0,0.0,0.0,0.0,0.0,0.0,0.0,0.0,0.0,0.0,0.0,0.0,0.0,0.0,0.0,0.0,0.0,0.0,0.0,0.0,0.0,0.0,0.0,1.2937,0.0,0.0,0.0,0.0,0.0,0.0,0.0,0.0,0.0,0.0,0.0,0.0,0.0,0.0,0.0,0.0,0.0,0.0,0.0,0.0,0.0,0.0,0.0,0.0,0.0,0.0,0.0,0.0,0.0,-0.0016,-0.0107,0.0,0.0,0.0,0.0,0.0,0.0,0.0,0.0,0.0,0.0,0.0,0.0,0.0,0.0,0.0,0.0,0.0,0.0,0.0,0.0,0.0,0.0,0.0,-0.1028,-0.4694,-0.8228,-1.1429,-1.329,-1.4449,-1.4996,-1.5407,-1.5353,-1.4744,-1.3956,-1.2558,-1.0543,0.0,0.0,0.0,0.0,0.0,0.0,0.0,0.0,0.0,0.0,0.0,0.0,0.0,0.0,0.0,0.0,0.0,0.0,0.0,0.0,0.0,0.0,0.0,0.0,0.0,0.0,0.0,0.0,0.0,0.0,0.0,0.0,0.0,0.0,0.0,0.0,0.0,-0.1325,0.0082,0.0,0.0,0.0,0.0,0.0,0.0,0.0,0.0,1.3165,0.9222,0.0,0.0,0.0,0.0,0.0,0.0,0.0,0.0,0.0,0.0,0.0,0.0,0.0,0.0,0.0,0.0,0.0,0.0,0.0,0.0,0.0,0.0,0.0,0.0,0.0,0.0,0.0,0.0,-0.0138,-0.0401,0.0,0.0,0.0,0.0,0.0,0.0,0.0,0.0,0.0,0.0,0.0,0.0,0.0,0.0,0.0,0.0,0.0,0.0,0.0,0.0,0.0,0.0,0.0,-0.4169,-0.746,-1.0603,-1.3444,-1.4797,-1.5753,-1.6404,-1.6482,-1.6059,-1.5166,-1.4388,-1.2959,-1.0828,0.0,0.0,0.0,0.0,0.0,0.0,0.0,0.0,0.0,0.0,0.0,0.0,0.0,0.0,0.0,0.0,0.0,0.0,0.0,0.0,0.0,0.0,0.0,0.0,0.0,0.0,0.0,0.0,0.0,0.0,0.0,0.0,0.0,0.0,0.0,0.0,0.0,-0.0171,0.0719,0.3373,0.5568,0.0,0.0,0.0,0.0,0.0,0.0,0.0,1.0746,0.834,0.5251,0.0,0.0,0.0,0.0,0.0,0.0,0.0,0.0,0.0,0.0,0.0,0.0,0.0,0.0,0.0,0.0,0.0,0.0,0.0,0.0,0.0,0.0,0.0,0.0,0.0,0.0,-0.0234,-0.0669,0.0,0.0,0.0,0.0,0.0,0.0,0.0,0.0,0.0,0.0,0.0,0.0,0.0,0.0,0.0,0.0,0.0,0.0,0.0,0.0,0.0,0.0,0.0,0.0,-0.989,-1.2715,-1.5311,-1.6108,-1.6336,-1.6088,-1.6355,-1.5976,-1.4924,-1.4241,-1.2814,-1.0568,-0.9031,0.0,0.0,0.0,0.0,0.0,0.0,0.0,0.0,0.0,0.0,0.0,0.0,0.0,0.0,0.0,0.0,0.0,0.0,0.0,0.0,0.0,0.0,0.0,0.0,0.0,0.0,0.0,0.0,0.0,0.0,0.0,0.0,0.0,0.0,0.0,0.0,0.0818,0.2254,0.3831,0.5421,0.6894,0.0,0.0,0.0,0.0,0.0,1.1353,1.1384,1.0293,0.6529,0.2771,0.0,0.0,0.0,0.0,0.0,0.0,0.0,0.0,0.0,0.0,0.0,0.0,0.0,0.0,0.0,0.0,0.0,0.0,0.0,0.0,0.0,0.0,0.0,0.0,0.0235,-0.0101,-0.0817,-0.1747,-0.2364,0.0,0.0,0.0,0.0,-0.5686,0.0,0.0,0.0,0.0,0.0,0.0,0.0,0.0,0.0,0.0,0.0,0.0,0.0,0.0,0.0,0.0,0.0,-1.2042,-1.4393,-1.6064,-1.6504,-1.6624,-1.6424,-1.6014,-1.5473,-1.4695,-1.3203,-1.1615,-0.9968,0.0,0.0,0.0,0.0,0.0,0.0,0.0,0.0,0.0,0.0,0.0,0.0,0.0,0.0,0.0,0.0,0.0,0.0,0.0,0.0,0.0,0.0,0.0,0.0,0.0,0.0,0.0,0.0,0.0,0.0,0.0,0.0,0.0,0.0,0.0,0.0,0.0,0.0,0.2974,0.4467,0.5948,0.7446,0.8862,0.9968,1.0612,1.164,1.1997,1.1206,1.1776,1.0812,0.6423,0.0,0.0,0.0,0.0,0.0,0.0,0.0,0.0,0.0,0.0,0.0,0.0,0.0,0.0,0.0,0.0,0.0,0.0,0.0,0.0,0.0,0.0,0.0,0.0,0.0,0.0,0.0036,-0.0897,-0.2156,-0.2922,-0.3379,0.0,0.0,0.0,-0.6878,-0.7251,0.0,0.0,0.0,0.0,0.0,0.0,0.0,0.0,0.0,0.0,0.0,0.0,0.0,0.0,0.0,0.0,-1.3625,-1.5497,-1.6452,-1.6701,-1.6723,-1.6551,-1.5715,-1.4944,-1.4318,-1.216,-1.0497,-0.9327,0.0,0.0,0.0,0.0,0.0,0.0,0.0,0.0,0.0,0.0,0.0,0.0,0.0,0.0,0.0,0.0,0.0,0.0,0.0,0.0,0.0,0.0,0.0,0.0,0.0,0.0,0.0,0.0,0.0,0.0,0.0,0.0,0.0,0.0,0.0,0.0,0.0,0.0,0.0,0.5235,0.6684,0.7959,0.9156,1.0363,1.1524,1.11,1.0528,1.0408,1.1194,1.0202,0.0,0.0,0.0,0.0,0.0,0.0,0.0,0.0,0.0,0.0,0.0,0.0,0.0,0.0,0.0,0.0,0.0,0.0,0.0,0.0,0.0,0.0,0.0752,0.2764,0.0,0.0,0.1051,-0.0069,-0.1006,-0.2482,-0.3692,-0.4628,-0.5699,-0.661,0.0,-0.7814,-0.8157,-0.8358,0.0,0.0,0.0,0.0,0.0,0.0,0.0,0.0,0.0,0.0,0.0,0.0,0.0,0.0,0.0,0.0,-1.5464,-1.6386,-1.6952,-1.6812,-1.5945,-1.5568,-1.4751,-1.3477,-1.1932,-1.0324,-0.8719,0.0,0.0,0.0,0.0,0.0,0.0,0.0,0.0,0.0,0.0,0.0,0.0,0.0,0.0,0.0,0.0,0.0,0.0,0.0,0.0,0.0,0.0,0.0,0.0,0.0,-0.0042,0.0,0.0,0.0,0.0,0.0,0.0,0.0,0.0,0.0,0.0,0.0,0.0,0.0,0.0,0.7289,0.8247,0.8845,0.9426,1.0034,0.9183,0.8191,0.7436,0.8596,0.8028,0.0,0.0,0.0,0.0,0.0,0.0,0.0,0.0,0.0,0.0,0.0,0.0,0.0,0.0,0.0,0.0,0.0,0.0,0.0,0.0,0.0,0.0,0.1976,0.2671,0.277,0.2251,0.0924,-0.0395,-0.1754,-0.3385,-0.4601,-0.5496,-0.6801,-0.7638,-0.8159,-0.8729,-0.8802,-0.8536,0.0,0.0,0.0,0.0,0.0,0.0,0.0,0.0,0.0,0.0,0.0,0.0,-0.6074,-0.9298,-1.2207,-1.449,-1.5898,-1.6513,-1.6762,-1.6546,-1.5817,-1.4903,-1.3921,-1.2848,-1.07,-0.8969,0.0,0.0,0.0,0.0,0.0,0.0,0.0,0.0,0.0,0.0,0.0,0.0,0.0,0.0,0.0,0.0,0.0,0.0,0.0,0.0,0.0,0.0,0.0,0.0,0.0,0.0,0.01,0.0357,0.0,0.0,0.0,0.0,0.0,0.0,0.0,0.0,0.0,0.0,0.0,0.0,0.0,0.8041,0.8505,0.8834,0.8984,0.8761,0.7259,0.5785,0.4956,0.5674,0.4955,0.0,0.0,0.0,0.0,0.0,0.0,0.0,0.0,0.0,0.0,0.0,0.0,0.0,0.0,0.0,0.0,0.0,0.0,0.2549,0.2775,0.2913,0.3006,0.2983,0.1951,0.1487,0.1302,0.0125,-0.1196,-0.2605,-0.4239,-0.5485,-0.6487,-0.7895,-0.8636,-0.8867,-0.9474,-0.9372,-0.8798,-0.9272,0.0,0.0,0.0,0.0,0.0,0.0,0.0,0.0,0.0,0.0,-0.295,-0.6594,-0.9855,-1.253,-1.4782,-1.6159,-1.6694,-1.6616,-1.6311,-1.5728,-1.442,-1.3278,-1.2326,-0.9827,-0.7972,0.0,0.0,0.0,0.0,0.0,0.0,0.0,0.0,0.0,0.0,0.0,0.0,0.0,0.0,0.0,0.0,0.0,0.0,0.0,0.0,0.0,0.0,0.0,0.0,0.0063,0.0326,0.0639,0.0918,0.089,0.0,0.1459,0.0,0.0,0.0,0.0,0.0,0.0,0.0,0.0,0.0,0.0,0.8658,0.8651,0.8261,0.7651,0.6882,0.4669,0.2869,0.2044,0.2173,0.138,0.0,0.0,0.0,0.0,0.0,0.0,0.0,0.0,0.0,0.0,0.0,0.0,0.0,0.0,0.0,0.0,0.0,0.0,0.2515,0.2676,0.2443,0.2288,0.199,-0.0201,-0.0616,-0.0128,-0.1603,-0.2691,-0.345,-0.4846,-0.6329,-0.7798,-0.8907,-0.9444,-0.95,-0.9974,-0.9983,-0.9599,-0.9322,0.0,0.0,0.0,0.0,0.0,0.0,0.0,0.0,0.0,0.0,-0.2812,-0.6207,-0.9481,-1.2488,-1.4314,-1.5813,-1.6914,-1.6667,-1.6189,-1.5608,-1.4374,-1.3226,-1.2235,-0.9972,-0.8066,0.0,0.0,0.0,0.0,0.0,0.0,0.0,0.0,0.0,0.0,0.0,0.0,0.0,0.0,0.0,0.0,0.0,0.0,0.0,0.0,0.0,0.0,0.0,0.0,0.0215,0.1297,0.1887,0.1488,0.1778,0.2134,0.2378,0.0,0.0,0.0,0.0,0.0,0.0,0.0,0.0,0.0,0.0,0.8982,0.8564,0.6477,0.4656,0.3752,0.1109,-0.1082,-0.1678,-0.215,-0.2861,-0.3838,-0.3681,-0.4146,0.0,0.0,0.0,0.0,0.0,0.0,0.0,0.0,0.0,0.0,0.0,0.0,0.0,0.0,0.0,0.2291,0.2297,0.1904,0.1429,0.0756,-0.0655,-0.1429,-0.1847,-0.3279,-0.4104,-0.4631,-0.6489,-0.7819,-0.8662,-0.9817,-1.0354,-1.0392,-1.0973,-1.0798,-0.9934,-0.8922,0.0,0.0,0.0,0.0,0.0,0.0,0.0,0.0,0.0,0.0,-0.2628,-0.6076,-0.9376,-1.2339,-1.3618,-1.4859,-1.6169,-1.5502,-1.4967,-1.4603,-1.3635,-1.2503,-1.1295,-0.949,-0.7681,-0.5873,0.0,0.0,0.0,0.0,0.0,0.0,0.0,0.0,0.0,0.0,0.0,0.0,0.0,0.0,0.0,0.0,0.0,0.0,0.0,0.0,0.0,0.0,0.0,0.0,0.4158,0.5201,0.3238,0.3626,0.3876,0.3536,0.4049,0.0,0.0,0.0,0.0,0.0,0.0,0.0,1.0458,0.0,0.8205,0.689,0.4323,0.2053,0.0702,-0.3311,-0.5764,-0.4545,-0.5399,-0.6043,-0.5799,-0.5208,-0.4844,-0.489,0.0,0.0,0.0,0.0,0.0,0.0,0.0,0.0,0.0,0.0,0.0,0.0,0.0,0.0,0.1628,0.1551,0.0984,0.0385,-0.0269,-0.1341,-0.2289,-0.3133,-0.4337,-0.5205,-0.5916,-0.7616,-0.8718,-0.9401,-1.0388,-1.0848,-1.0887,-1.1146,-1.0681,-0.9601,-0.8693,-0.7723,0.0,0.0,0.0,0.0,0.0,0.0,0.0,0.0,0.0,-0.2519,-0.5954,-0.9261,-1.2228,-1.3136,-1.4235,-1.5482,-1.4553,-1.3905,-1.3696,-1.2821,-1.1746,-1.0439,-0.905,-0.7354,-0.5381,0.0,0.0,0.0,0.0,0.0398,0.0,0.0,0.0,0.0,0.0,0.0,0.0,0.0,0.0,0.0,0.0,0.0,0.0,0.0,0.0,0.0,0.0,0.0,0.0,0.0,0.7006,0.4669,0.5017,0.5269,0.4665,0.556,0.5928,0.5196,0.0,0.0,0.0,0.0,0.0,0.0,0.6857,0.524,0.3406,0.0199,-0.3028,-0.5769,-0.883,-1.0729,-1.0536,-0.9273,-0.8466,-0.9175,-0.8691,-0.8228,-0.804,-0.5902,-0.4458,-0.5062,-0.1551,0.1474,0.1333,0.0,0.0,0.0,0.0,0.0,0.0,0.0,0.0,0.0407,0.0382,-0.042,-0.0919,-0.1363,-0.2668,-0.356,-0.4087,-0.4808,-0.6005,-0.7374,-0.7859,-0.8806,-1.0023,-1.0509,-1.0728,-1.0743,-1.0207,-0.9307,-0.8441,-0.8775,-0.7976,-0.6264,-0.5744,-0.4011,-0.151,-0.0052,0.1576,0.3167,0.1994,-0.0208,-0.2676,-0.5882,-0.9125,-1.211,-1.3042,-1.4011,-1.5046,-1.4019,-1.3292,-1.2896,-1.2057,-1.1042,-0.9841,-0.8712,-0.7149,-0.5114,0.0,0.0,0.0,0.0,0.0665,0.0,0.0,0.0,0.0,0.0,0.0,0.0,0.0,0.0,0.0,0.0,0.0,0.0,0.0,0.0,0.0,0.0,0.0,0.0,0.0,0.657,0.52,0.5717,0.6008,0.5689,0.6163,0.5911,0.0,0.0,0.0,0.0,0.0,0.5475,0.3049,0.1464,-0.0307,-0.2376,-0.6448,-1.1334,-1.6513,-1.5781,-1.6031,-2.0424,-1.4212,-1.0108,-1.4582,-1.5107,0.0,0.0,0.0,0.0,0.0,0.0,0.0,0.0,0.0,0.0,0.0,0.0,0.0,0.0,0.0,0.0,-0.1192,-0.1517,-0.2356,-0.3569,-0.4794,-0.5023,-0.6093,-0.7672,-0.7817,-0.8316,-0.9075,-0.9387,-0.969,-0.9972,-1.0193,-1.0448,-1.0647,-1.0644,-1.0273,-0.9651,-0.9643,-0.8845,-0.7366,-0.6632,-0.5166,-0.3142,-0.2237,-0.0617,0.1469,-0.0842,-0.2914,-0.4644,-0.7529,-1.003,-1.1938,-1.2418,-1.2885,-1.3356,-1.2308,-1.1652,-1.1553,-1.0887,-1.0131,-0.9301,-0.8196,-0.6285,-0.3451,-0.2098,0.0,0.0,0.0202,0.01,0.0,0.0,0.0,0.0,0.0,0.0,0.0,0.0,0.0,0.0,0.0,0.0,0.0,0.0,0.0,0.0,0.0,0.0,0.0,0.0,0.5845,0.5544,0.5703,0.5613,0.4963,0.4313,0.2751,-0.0154,-0.2127,-0.0206,0.7329,0.3231,-0.2711,-0.8946,-0.876,-0.9533,-1.3778,-1.8055,-2.1906,-2.475,-2.6857,-2.7687,-2.6235,-2.2188,-2.02,-2.3152,-2.7146,-3.0162,-3.0762,-2.6902,-2.3757,-2.3715,-1.9783,-1.5183,-1.0841,-1.0705,-1.0214,-0.674,-0.8103,-0.9543,-0.8486,-0.8501,-0.8566,-0.3801,-0.4314,-0.5283,-0.6488,-0.7798,-0.7807,-0.8724,-1.0206,-0.9888,-1.0193,-1.0869,-1.073,-1.0575,-1.0431,-1.0701,-1.0844,-1.0915,-1.1248,-1.1217,-1.0938,-1.1193,-1.0696,-0.9592,-0.9115,-0.795,-0.6204,-0.6125,-0.5118,-0.3442,-0.4242,-0.5432,-0.6894,-0.9399,-1.117,-1.213,-1.2413,-1.2523,-1.2422,-1.1338,-1.0697,-1.0678,-0.9904,-0.9117,-0.8457,-0.7103,-0.5242,-0.2857,-0.232,-0.1555,0.0,-0.0464,0.0,0.0,0.0,0.0,0.0,0.0,0.0,0.0,0.0,0.0,0.0,0.0,0.0,0.0,0.0,0.0,0.0,0.0,0.0,0.0,0.538,0.5192,0.5495,0.4902,0.3793,0.2076,-0.0182,-0.3092,-0.7017,-0.9906,-0.7697,0.2591,-0.3949,-1.3121,-2.2901,-2.0904,-2.0138,-2.4421,-2.8374,-3.1729,-3.4211,-3.6252,-3.7096,-3.5607,-3.1226,-2.8642,-3.0673,-3.8297,-4.25,-3.7905,-3.6598,-3.5861,-3.4697,-3.2371,-2.847,-2.1393,-2.0971,-2.003,-1.4664,-1.6411,-1.8691,-1.8408,-1.8244,-1.8058,-0.7621,-0.7943,-0.9094,-0.9727,-1.0095,-1.0922,-1.1427,-1.1714,-1.1014,-1.1614,-1.2765,-1.1841,-1.1375,-1.1431,-1.1718,-1.1687,-1.1446,-1.198,-1.218,-1.2225,-1.3329,-1.3485,-1.2751,-1.2975,-1.2182,-1.0531,-1.1309,-1.1486,-1.0915,-0.828,-0.7768,-0.9629,-1.1545,-1.2526,-1.2668,-1.3022,-1.2832,-1.214,-1.1069,-1.047,-1.0212,-0.9104,-0.8142,-0.7424,-0.5524,-0.4174,-0.3399,-0.2969,-0.2273,-0.1183,-0.1062,0.0,0.0,0.0,0.0,0.0,0.0,0.0,0.0,0.0,0.0,0.0,0.0,0.0,0.0,0.0,0.0,0.0,0.0,0.0,0.6403,0.5327,0.456,0.4766,0.2816,0.0216,-0.3328,-0.7038,-1.1131,-1.5728,-1.7264,-1.453,-0.5953,-1.4029,-2.5436,-3.7836,-3.4478,-3.1633,-3.4064,-3.7192,-4.0777,-4.4811,-4.3847,-4.4099,-4.8069,-4.1056,-3.5784,-3.7434,-4.7882,-5.198,-4.0152,-4.0931,-4.2078,-3.8056,-4.1786,-4.4022,-3.9347,-3.3846,-2.9729,-2.7962,-2.8693,-2.9925,-3.0774,-3.012,-2.9307,-1.3895,-1.2168,-1.313,-1.4347,-1.5501,-1.4741,-1.5429,-1.7003,-1.5168,-1.4551,-1.4715,-1.3431,-1.2288,-1.1302,-1.1099,-1.121,-1.1586,-1.2559,-1.3311,-1.3998,-1.5383,-1.592,-1.5608,-1.6111,-1.5878,-1.5031,-1.5459,-1.6158,-1.704,-1.6666,-1.5429,-1.3411,-1.4844,-1.4885,-1.3651,-1.3389,-1.2597,-1.109,-1.0105,-0.9491,-0.9305,-0.8473,-0.7774,-0.7185,-0.6496,-0.5514,-0.4294,-0.4114,-0.3252,-0.1632,-0.1914,0.0,-0.0269,0.0,0.0,0.0,0.0,0.0997,0.1305,0.1397,0.0,0.0,0.0,-0.0168,0.0,0.0,0.0,0.0,0.421,0.4655,0.6452,0.5631,0.2419,-0.3833,-0.476,-0.7445,-1.3602,-1.5869,-1.9078,-2.4492,-2.6418,-2.7679,-2.8744,-3.1327,-3.662,-4.5744,-4.2411,-4.0515,-4.4425,-4.6939,-4.922,-5.156,-5.1777,-5.1864,-5.2424,-5.0768,-4.9583,-5.0287,-5.6806,-5.9626,-5.334,-5.3093,-5.3307,-5.1722,-5.2773,-5.291,-5.0345,-4.5227,-4.0696,-3.8838,-4.0029,-4.269,-4.5207,-4.2585,-3.9217,-1.9171,-1.7684,-1.7593,-1.819,-1.9157,-1.8435,-1.8801,-1.9749,-1.8099,-1.7353,-1.7233,-1.5849,-1.4385,-1.285,-1.1833,-1.1913,-1.288,-1.4007,-1.5032,-1.6021,-1.7646,-1.8444,-1.8658,-1.9706,-2.004,-1.9705,-2.0079,-2.1012,-2.2344,-2.2304,-2.1263,-1.9248,-1.8708,-1.7361,-1.5277,-1.4772,-1.3519,-1.1489,-1.0442,-0.9741,-0.9287,-0.8328,-0.7488,-0.6845,-0.6471,-0.5836,-0.482,-0.437,-0.3431,-0.1974,-0.1824,-0.1145,0.0,0.0237,0.0152,0.003,0.0603,0.1131,0.147,0.1515,0.0,0.0,0.0079,0.006,0.0866,0.0,0.0,0.3293,0.231,0.1253,0.0431,-0.27,-0.6625,-1.1405,-1.2975,-1.6104,-2.2074,-2.4716,-2.7869,-3.2511,-3.4714,-3.7501,-4.1627,-4.2977,-4.5599,-5.1073,-4.8485,-4.746,-5.1249,-5.3037,-5.4395,-5.5622,-5.6642,-5.7048,-5.6641,-5.7944,-5.9045,-5.9149,-6.1705,-6.292,-6.0249,-5.9763,-5.9488,-5.8531,-5.8325,-5.7945,-5.6605,-5.3122,-4.979,-4.7581,-4.8598,-5.0652,-5.257,-4.9412,-4.6459,-2.3206,-2.3475,-2.1988,-2.1427,-2.148,-2.1863,-2.149,-2.0632,-2.0089,-1.9908,-1.9907,-1.8583,-1.7113,-1.543,-1.36,-1.351,-1.4856,-1.598,-1.7038,-1.8133,-1.9894,-2.1036,-2.1683,-2.3456,-2.4322,-2.4287,-2.4826,-2.5659,-2.664,-2.5815,-2.5552,-2.5897,-2.2873,-2.0069,-1.7616,-1.6793,-1.5285,-1.2945,-1.1711,-1.0739,-0.9901,-0.85,-0.7375,-0.6638,-0.5984,-0.5502,-0.5044,-0.4016,-0.2989,-0.2074,-0.1028,-0.0033,0.08,0.125,0.1263,0.0793,0.1207,0.1573,0.1822,0.1844,0.1758,0.1617,0.1707,0.0908,-0.0883,0.1407,0.2354,0.0854,-0.1335,-0.4894,-1.0422,-1.6244,-1.9259,-1.8425,-2.1412,-2.5232,-2.9351,-3.3268,-3.6745,-3.9518,-4.1752,-4.4098,-4.6499,-4.9357,-5.1987,-5.4205,-5.28,-5.2451,-5.5098,-5.5989,-5.6879,-5.7432,-5.877,-5.9802,-5.9942,-6.2336,-6.3939,-6.3621,-6.3856,-6.3155,-6.2019,-6.2121,-6.1599,-5.9564,-5.9806,-5.9875,-5.8848,-5.7685,-5.6987,-5.4262,-5.4224,-5.4398,-5.3562,-5.2162,-5.0967,-2.3816,-2.4412,-2.4158,-2.3917,-2.3658,-2.3699,-2.3376,-2.2818,-2.2274,-2.1605,-2.0825,-1.9579,-1.7953,-1.603,-1.4703,-1.4691,-1.5734,-1.6702,-1.8004,-1.9598,-2.1566,-2.3159,-2.4393,-2.5584,-2.6729,-2.7665,-2.7485,-2.8001,-2.9035,-2.8544,-2.8031,-2.7539,-2.6498,-2.4086,-2.034,-1.8427,-1.6563,-1.4614,-1.2821,-1.1321,-1.0066,-0.8995,-0.8391,-0.8145,-0.7111,-0.598,-0.481,-0.394,-0.2637,-0.0863,-0.0157,0.0776,0.2071,0.2684,0.2762,0.2313,0.205,0.2011,0.2144,0.1673,0.1526,0.1888,-0.1453,-0.2855,-0.1221,-0.0781,-0.1292,-0.3091,-0.5244,-1.1795,-2.4515,-2.1749,-2.1343,-2.6977,-2.9322,-3.2787,-3.8459,-3.946,-4.0734,-4.3361,-4.3565,-4.4308,-4.6494,-4.9357,-5.2033,-5.4109,-5.3687,-5.3844,-5.5722,-5.6099,-5.661,-5.7803,-5.8416,-5.9139,-6.0627,-6.2997,-6.4428,-6.3856,-6.3673,-6.3498,-6.319,-6.3257,-6.2701,-6.0938,-6.0769,-6.0255,-5.8456,-5.7714,-5.7098,-5.5989,-5.4965,-5.4118,-5.372,-5.3339,-5.3063,-2.4187,-2.4894,-2.4958,-2.4926,-2.4792,-2.4805,-2.4554,-2.4145,-2.3493,-2.2711,-2.1735,-2.022,-1.8859,-1.7571,-1.6754,-1.6747,-1.7468,-1.8531,-1.9832,-2.1302,-2.3364,-2.5086,-2.6455,-2.7828,-2.909,-3.0189,-2.9985,-3.0162,-3.0657,-3.0393,-2.986,-2.9144,-2.8906,-2.7343,-2.4438,-2.1336,-1.8766,-1.6788,-1.4336,-1.2417,-1.1028,-1.0432,-0.9747,-0.9018,-0.7885,-0.6655,-0.5432,-0.4333,-0.2887,-0.1114,-0.0241,0.0844,0.2161,0.2817,0.3247,0.3385,0.2152,0.1368,0.1292,-0.016,-0.0885,-0.0489,-0.1352,-0.2384,-0.3658,-0.6215,-0.7379,-0.6462,-1.1538,-2.0151,-3.2877,-2.9596,-2.8922,-3.4427,-3.6353,-3.881,-4.2794,-4.3398,-4.4186,-4.5764,-4.517,-4.5009,-4.6304,-5.0347,-5.3652,-5.4876,-5.5068,-5.5416,-5.6371,-5.6848,-5.7495,-5.8511,-5.8953,-5.9539,-6.0789,-6.2186,-6.323,-6.3314,-6.3343,-6.3311,-6.2893,-6.2898,-6.2454,-6.0901,-6.0629,-6.015,-5.8491,-5.8108,-5.7786,-5.6764,-5.5613,-5.4579,-5.3959,-5.3724,-5.3515,-2.4361,-2.5038,-2.5061,-2.5169,-2.5333,-2.5423,-2.5218,-2.4793,-2.4131,-2.3374,-2.25,-2.0724,-1.9725,-1.9331,-1.8961,-1.908,-1.9562,-2.0852,-2.2108,-2.3305,-2.5334,-2.6999,-2.8378,-2.9972,-3.1191,-3.2052,-3.2007,-3.1962,-3.1857,-3.1517,-3.1057,-3.0475,-3.0377,-2.9741,-2.847,-2.4769,-2.1511,-1.872,-1.6039,-1.3987,-1.2626,-1.2282,-1.1385,-0.9824,-0.8525,-0.7324,-0.6243,-0.4816,-0.3374,-0.1989,-0.0937,0.027,0.1661,0.2127,0.2746,0.3577,0.151,-0.003,-0.0621,-0.3027,-0.4594,-0.4831,-0.1967,-0.2243,-0.7221,-1.321,-1.4806,-1.0217,-1.8999,-2.868,-3.7818,-3.7763,-3.8106,-4.0361,-4.2133,-4.3551,-4.4525,-4.5945,-4.7089,-4.7696,-4.7176,-4.6736,-4.726,-5.2337,-5.6163,-5.6431,-5.6874,-5.725,-5.7489,-5.8074,-5.8687,-5.9361,-6.0112,-6.0632,-6.0774,-6.118,-6.193,-6.2791,-6.3076,-6.2874,-6.2252,-6.2264,-6.186,-6.0451,-6.0144,-5.9771,-5.8691,-5.8835,-5.8624,-5.7429,-5.6275,-5.5206,-5.4287,-5.3645,-5.3183,-2.4194,-2.4786,-2.5164,-2.537,-2.548,-2.5627,-2.5231,-2.4484,-2.4183,-2.3514,-2.2537,-2.1395,-2.0618,-2.019,-1.9932,-2.0239,-2.1069,-2.2648,-2.4318,-2.6016,-2.753,-2.9312,-3.1165,-3.1332,-3.2154,-3.3395,-3.2429,-3.2205,-3.2722,-3.1619,-3.0957,-3.0709,-3.0485,-2.992,-2.8945,-2.7634,-2.4213,-1.8888,-1.7594,-1.6443,-1.5284,-1.396,-1.2794,-1.175,-0.9376,-0.737,-0.5792,-0.4823,-0.3545,-0.1953,-0.2256,-0.1328,0.122,0.0774,0.065,0.093,-0.0443,-0.2168,-0.4026,-0.6296,-0.9114,-1.2459,-1.3266,-1.3007,-1.1979,-1.9478,-2.2298,-1.7592,-2.611,-3.4977,-4.1928,-4.16,-4.1427,-4.2695,-4.4775,-4.6269,-4.6686,-4.7638,-4.8891,-5.0726,-5.1397,-5.1865,-5.2464,-5.6127,-5.8806,-5.9282,-5.928,-5.9448,-5.9738,-5.9355,-5.9318,-6.0143,-6.122,-6.1394,-6.0404,-6.1537,-6.2464,-6.2615,-6.2731,-6.2817,-6.2795,-6.2912,-6.2473,-6.0889,-6.0796,-6.0564,-5.9184,-5.9215,-5.9172,-5.8177,-5.6832,-5.5525,-5.4579,-5.3487,-5.2638,-2.3985,-2.4567,-2.4792,-2.5165,-2.5686,-2.5348,-2.5068,-2.4771,-2.4402,-2.3501,-2.2288,-2.1874,-2.1494,-2.1212,-2.1407,-2.2055,-2.3068,-2.4572,-2.6202,-2.7866,-2.9809,-3.1422,-3.2723,-3.3517,-3.3991,-3.4169,-3.3591,-3.3101,-3.2804,-3.2072,-3.1518,-3.1208,-3.1312,-3.0766,-2.9652,-2.8675,-2.5905,-2.1279,-2.0735,-1.9594,-1.7836,-1.6862,-1.5448,-1.3487,-1.1677,-0.9752,-0.7675,-0.6917,-0.5705,-0.3963,-0.4224,-0.381,-0.2469,-0.2296,-0.3004,-0.4756,-0.7108,-0.8513,-0.8653,-1.1346,-1.4542,-1.8092,-2.2098,-2.4249,-2.3724,-2.7578,-2.8952,-2.6717,-3.2976,-3.9546,-4.5229,-4.5319,-4.5178,-4.5833,-4.7649,-4.8926,-4.9241,-5.0351,-5.1725,-5.3188,-5.5132,-5.6159,-5.5441,-5.9644,-6.2603,-6.3344,-6.2957,-6.2498,-6.2292,-6.1586,-6.1405,-6.2536,-6.2446,-6.2245,-6.1787,-6.2385,-6.3076,-6.2808,-6.2885,-6.3,-6.3,-6.3076,-6.2672,-6.1231,-6.1036,-6.07,-5.9632,-5.9453,-5.9478,-5.9039,-5.7529,-5.6042,-5.5269,-5.4213,-5.3123,-2.3907,-2.4387,-2.4438,-2.4944,-2.5661,-2.4969,-2.4791,-2.4929,-2.4311,-2.3305,-2.2156,-2.216,-2.2083,-2.2027,-2.288,-2.3838,-2.4952,-2.6634,-2.8199,-2.9767,-3.2173,-3.3509,-3.4078,-3.5515,-3.5717,-3.4775,-3.4562,-3.395,-3.2887,-3.2449,-3.2088,-3.1781,-3.1873,-3.1333,-3.0172,-2.8979,-2.7136,-2.4674,-2.3985,-2.2548,-2.0278,-1.9811,-1.8293,-1.543,-1.4548,-1.2916,-1.0455,-1.0221,-0.9286,-0.7428,-0.7548,-0.7525,-0.7227,-0.6635,-0.7586,-1.0496,-1.4327,-1.5733,-1.41,-1.7265,-2.0692,-2.3766,-2.9807,-3.4283,-3.6334,-3.5678,-3.5259,-3.5698,-3.9363,-4.3786,-4.8662,-4.9077,-4.9061,-4.9123,-5.0576,-5.1674,-5.2131,-5.3504,-5.4906,-5.6123,-5.8421,-5.9608,-5.8418,-6.2514,-6.6203,-6.6741,-6.6075,-6.5539,-6.4945,-6.4016,-6.3722,-6.4566,-6.3956,-6.3243,-6.3265,-6.338,-6.3489,-6.3189,-6.3189,-6.3189,-6.3038,-6.3,-6.246,-6.1131,-6.0964,-6.0527,-5.9768,-5.9588,-5.9683,-5.9797,-5.8107,-5.6332,-5.5646,-5.4767,-5.3657,-2.4082,-2.4276,-2.4952,-2.5147,-2.4948,-2.4954,-2.459,-2.4034,-2.3019,-2.2593,-2.2566,-2.1924,-2.1709,-2.1922,-2.3532,-2.4869,-2.6042,-2.8834,-3.1026,-3.2655,-3.4583,-3.5786,-3.6378,-3.6061,-3.5844,-3.5687,-3.4336,-3.3629,-3.3438,-3.2269,-3.1821,-3.2077,-3.1053,-3.028,-2.9988,-2.9137,-2.8192,-2.727,-2.5847,-2.4289,-2.2574,-2.1774,-2.0399,-1.8503,-1.7575,-1.5917,-1.3348,-1.4543,-1.4531,-1.2915,-1.4215,-1.3823,-1.1359,-1.2667,-1.3289,-1.2722,-1.782,-2.095,-2.0867,-2.3811,-2.7578,-3.2173,-3.6874,-4.0408,-4.2198,-4.2032,-4.1863,-4.2032,-4.5021,-4.8802,-5.2463,-5.2983,-5.2771,-5.2448,-5.3391,-5.47,-5.6127,-5.6895,-5.829,-6.0602,-6.1362,-6.1948,-6.2263,-6.4675,-6.6906,-6.7299,-6.7575,-6.7306,-6.6783,-6.5937,-6.5245,-6.5197,-6.498,-6.464,-6.4277,-6.382,-6.3673,-6.3526,-6.3265,-6.3114,-6.3038,-6.3,-6.2453,-6.1055,-6.0884,-6.0453,-5.9632,-5.9586,-5.9502,-5.9092,-5.7922,-5.6634,-5.4915,-5.4083,-5.3558,-2.323,-2.3191,-2.3751,-2.412,-2.4263,-2.4443,-2.4064,-2.3285,-2.2936,-2.2837,-2.2963,-2.2782,-2.3051,-2.3794,-2.5432,-2.6789,-2.7905,-3.0699,-3.2685,-3.4121,-3.6021,-3.7065,-3.729,-3.762,-3.7206,-3.6116,-3.5532,-3.4943,-3.4298,-3.2813,-3.2256,-3.253,-3.1046,-2.9787,-2.8846,-2.8693,-2.7933,-2.654,-2.6332,-2.5428,-2.3825,-2.3314,-2.2231,-2.0478,-2.006,-1.9073,-1.7344,-1.8088,-1.8181,-1.7471,-1.7755,-1.7242,-1.5932,-1.6741,-1.6839,-1.6133,-2.0921,-2.4775,-2.6715,-3.1668,-3.4687,-3.5308,-3.998,-4.4594,-4.8415,-4.7016,-4.5993,-4.6171,-4.7617,-5.0714,-5.5903,-5.6581,-5.6421,-5.6106,-5.724,-5.8643,-6.0,-6.0617,-6.1666,-6.352,-6.4449,-6.468,-6.4329,-6.7165,-6.9435,-6.9957,-6.9656,-6.8894,-6.8301,-6.7791,-6.7204,-6.6706,-6.5903,-6.535,-6.5158,-6.4636,-6.4215,-6.4073,-6.3637,-6.334,-6.3189,-6.3038,-6.2408,-6.1562,-6.1363,-6.1073,-6.0117,-5.9796,-5.9432,-5.8776,-5.825,-5.704,-5.5344,-5.4303,-5.3362,-2.2216,-2.2041,-2.2367,-2.2824,-2.3333,-2.3838,-2.3593,-2.2901,-2.3231,-2.3514,-2.3709,-2.387,-2.4493,-2.5682,-2.7161,-2.8548,-3.0009,-3.2286,-3.4096,-3.5417,-3.7236,-3.8008,-3.8034,-3.8882,-3.8348,-3.6763,-3.6516,-3.5955,-3.5001,-3.3383,-3.2408,-3.2117,-3.0915,-2.9442,-2.7911,-2.8009,-2.7286,-2.5816,-2.6481,-2.617,-2.4756,-2.4783,-2.4089,-2.2614,-2.2856,-2.2491,-2.1445,-2.1948,-2.2265,-2.207,-2.1452,-2.1178,-2.1361,-2.1116,-2.0538,-2.0111,-2.4362,-2.8927,-3.29,-3.8314,-4.0465,-3.8081,-4.2654,-4.7751,-5.1973,-5.1077,-4.9637,-4.9246,-4.9465,-5.2259,-5.7476,-5.9154,-5.9347,-5.932,-6.021,-6.1427,-6.3088,-6.3664,-6.4456,-6.5839,-6.7026,-6.7361,-6.7494,-6.9595,-7.1609,-7.1889,-7.12,-7.0095,-6.949,-6.927,-6.8898,-6.8081,-6.7004,-6.619,-6.6065,-6.5442,-6.4848,-6.4462,-6.4001,-6.371,-6.3452,-6.3114,-6.2715,-6.2217,-6.2015,-6.1483,-6.0566,-6.0114,-5.9546,-5.8822,-5.8369,-5.7621,-5.5812,-5.4606,-5.3369,-2.1449,-2.1428,-2.1642,-2.1728,-2.1926,-2.3283,-2.352,-2.3119,-2.366,-2.4439,-2.5187,-2.4687,-2.5352,-2.6774,-2.8045,-2.9667,-3.1646,-3.3644,-3.5506,-3.7143,-3.8333,-3.8992,-3.9105,-3.8765,-3.8325,-3.7819,-3.6474,-3.5807,-3.5538,-3.3617,-3.1827,-3.0332,-2.9891,-2.9247,-2.8088,-2.7158,-2.6607,-2.6491,-2.6775,-2.6441,-2.5621,-2.6181,-2.6107,-2.5093,-2.6485,-2.653,-2.4995,-2.7128,-2.7986,-2.7297,-2.7084,-2.7427,-2.8014,-2.7439,-2.559,-2.294,-2.8679,-3.4554,-3.9463,-4.2102,-4.3277,-4.3248,-4.6641,-4.9981,-5.2408,-5.3824,-5.347,-5.1764,-5.2221,-5.463,-5.8234,-6.0007,-6.0872,-6.0868,-6.1109,-6.2116,-6.4692,-6.5279,-6.6014,-6.8091,-6.8764,-6.9691,-7.0608,-7.1664,-7.2161,-7.2255,-7.1646,-7.0842,-7.0303,-7.0061,-6.9706,-6.8973,-6.8353,-6.7724,-6.6865,-6.6101,-6.5511,-6.4601,-6.425,-6.4141,-6.3958,-6.3558,-6.3158,-6.2768,-6.2279,-6.1465,-6.0629,-6.0117,-5.9837,-5.8762,-5.8188,-5.7538,-5.5899,-5.4656,-5.3344,-2.0949,-2.0802,-2.1002,-2.1248,-2.1608,-2.2552,-2.3066,-2.3275,-2.4332,-2.552,-2.6806,-2.73,-2.789,-2.8609,-3.0058,-3.1733,-3.3557,-3.5684,-3.735,-3.8636,-3.9629,-4.0284,-4.0527,-4.0201,-3.9817,-3.9395,-3.8391,-3.76,-3.6639,-3.4682,-3.2482,-3.0574,-3.0549,-2.992,-2.839,-2.8037,-2.7779,-2.7485,-2.8036,-2.819,-2.7868,-2.7598,-2.7566,-2.7756,-2.8361,-2.8922,-2.9212,-3.0216,-3.0801,-3.0931,-3.0935,-3.1053,-3.1427,-3.1056,-3.0367,-2.9737,-3.5834,-4.0776,-4.3168,-4.5351,-4.7032,-4.7954,-5.0231,-5.2543,-5.4732,-5.5597,-5.5694,-5.5465,-5.5038,-5.5856,-5.8317,-6.0832,-6.2425,-6.2565,-6.3141,-6.4513,-6.6653,-6.72,-6.7926,-6.9133,-6.9808,-7.0692,-7.1979,-7.2693,-7.2785,-7.25,-7.1981,-7.1458,-7.0976,-7.0644,-7.0235,-6.9778,-6.9489,-6.9058,-6.8174,-6.7302,-6.6637,-6.6145,-6.5407,-6.4841,-6.4629,-6.377,-6.3114,-6.308,-6.2692,-6.1944,-6.1044,-6.0737,-6.0393,-5.8988,-5.7118,-5.6147,-5.5589,-5.4719,-5.3654,-1.9996,-2.0031,-2.0459,-2.079,-2.1142,-2.2028,-2.2756,-2.3473,-2.4801,-2.6434,-2.8152,-2.9516,-3.0584,-3.1374,-3.241,-3.3946,-3.5965,-3.7667,-3.9203,-4.0432,-4.1192,-4.1823,-4.2355,-4.215,-4.1672,-4.107,-4.0481,-3.9371,-3.7828,-3.6264,-3.403,-3.1944,-3.1998,-3.1235,-2.9427,-2.9538,-2.953,-2.9191,-2.9991,-3.0572,-3.0756,-3.0597,-3.0444,-3.0397,-3.0545,-3.1352,-3.2779,-3.3083,-3.347,-3.41,-3.4306,-3.453,-3.4705,-3.468,-3.5181,-3.6722,-4.1967,-4.5645,-4.6278,-4.8428,-5.053,-5.2257,-5.3524,-5.5005,-5.6681,-5.7086,-5.7407,-5.7878,-5.7374,-5.7582,-5.9314,-6.1645,-6.3258,-6.3909,-6.4918,-6.6093,-6.7747,-6.8387,-6.8793,-6.9566,-7.0324,-7.1433,-7.2658,-7.3161,-7.3108,-7.277,-7.2401,-7.1988,-7.1557,-7.1175,-7.0847,-7.0409,-7.0166,-6.9743,-6.91,-6.8114,-6.7588,-6.7306,-6.6461,-6.6039,-6.5368,-6.3979,-6.322,-6.3405,-6.3186,-6.2538,-6.1424,-6.1083,-6.0635,-5.876,-5.7004,-5.5423,-5.46,-5.4224,-5.3686,-1.8386,-1.8985,-1.9926,-2.0279,-2.0268,-2.178,-2.2797,-2.3496,-2.5061,-2.7012,-2.9121,-3.0837,-3.2961,-3.5229,-3.4924,-3.6221,-3.8828,-3.9431,-4.0912,-4.2953,-4.3086,-4.3666,-4.4715,-4.4492,-4.3893,-4.3088,-4.2392,-4.0593,-3.8133,-3.7906,-3.6514,-3.4016,-3.4315,-3.3402,-3.1759,-3.1751,-3.1705,-3.2013,-3.2834,-3.3551,-3.4447,-3.5846,-3.5361,-3.3606,-3.377,-3.4631,-3.5521,-3.6289,-3.6698,-3.6752,-3.7417,-3.815,-3.8842,-3.896,-4.0079,-4.2658,-4.5823,-4.8322,-4.9648,-5.1348,-5.3284,-5.5306,-5.6212,-5.7131,-5.7931,-5.8349,-5.8423,-5.8031,-5.8906,-6.0023,-6.1353,-6.2424,-6.3647,-6.4967,-6.5191,-6.6222,-6.8092,-6.8335,-6.859,-6.9289,-7.0555,-7.1816,-7.3314,-7.3309,-7.3091,-7.2927,-7.2667,-7.2321,-7.1988,-7.1775,-7.1436,-7.0949,-7.0509,-6.9953,-6.8645,-6.8327,-6.7797,-6.7587,-6.7799,-6.7482,-6.5793,-6.4417,-6.4055,-6.3621,-6.3265,-6.2613,-6.1701,-6.0877,-6.0186,-5.8867,-5.7466,-5.5993,-5.4535,-5.376,-5.3297,-1.8508,-1.9088,-1.9779,-2.0052,-2.019,-2.0993,-2.2244,-2.3909,-2.5723,-2.7921,-3.0382,-3.2675,-3.5107,-3.7543,-3.8533,-3.9649,-4.0872,-4.1664,-4.2978,-4.4605,-4.5003,-4.5417,-4.5844,-4.6195,-4.6249,-4.5975,-4.601,-4.4821,-4.2595,-4.1622,-4.0258,-3.8626,-3.8142,-3.7433,-3.6449,-3.5945,-3.5847,-3.606,-3.691,-3.7578,-3.7915,-3.8982,-3.9564,-3.9699,-3.8399,-3.8112,-3.8991,-3.9324,-3.9469,-3.9458,-4.0203,-4.0733,-4.1106,-4.2103,-4.3608,-4.5742,-4.7965,-4.9971,-5.164,-5.3743,-5.5492,-5.6774,-5.7805,-5.8381,-5.8702,-5.9077,-5.9278,-5.9194,-5.9365,-6.024,-6.1393,-6.2985,-6.4356,-6.4985,-6.58,-6.671,-6.783,-6.8372,-6.8593,-6.8856,-7.01,-7.1355,-7.1872,-7.2452,-7.2918,-7.2844,-7.261,-7.2409,-7.2233,-7.2054,-7.1713,-7.1336,-7.0979,-7.0507,-6.9707,-6.946,-6.9212,-6.907,-6.8928,-6.8364,-6.7058,-6.5435,-6.4828,-6.4258,-6.3724,-6.2584,-6.1599,-6.0359,-5.9701,-5.8491,-5.7131,-5.6268,-5.4809,-5.3908,-5.3427,-1.8188,-1.8396,-1.8913,-1.917,-1.9336,-2.0201,-2.1798,-2.3846,-2.6237,-2.9016,-3.196,-3.4729,-3.7261,-3.9648,-4.1452,-4.2811,-4.3534,-4.4072,-4.4898,-4.6148,-4.6908,-4.7413,-4.7806,-4.8704,-4.9056,-4.8885,-4.9105,-4.831,-4.6697,-4.5345,-4.4182,-4.313,-4.2768,-4.1982,-4.099,-4.0651,-4.0563,-4.0606,-4.102,-4.1473,-4.1835,-4.2659,-4.3575,-4.4343,-4.3285,-4.2515,-4.2588,-4.2568,-4.2524,-4.263,-4.3257,-4.3783,-4.4143,-4.5183,-4.6654,-4.8443,-4.9701,-5.1267,-5.3202,-5.5491,-5.718,-5.801,-5.907,-5.9638,-5.9369,-5.9522,-5.974,-5.99,-6.0224,-6.0623,-6.1653,-6.3646,-6.5104,-6.5257,-6.6327,-6.7305,-6.7798,-6.8292,-6.8654,-6.9024,-6.9482,-7.0221,-7.1145,-7.2088,-7.2556,-7.2638,-7.2467,-7.2292,-7.2204,-7.2054,-7.1836,-7.1526,-7.1175,-7.085,-7.0337,-7.0094,-6.9778,-6.9566,-6.96,-6.9071,-6.8222,-6.6632,-6.5501,-6.4895,-6.3878,-6.2667,-6.1392,-6.0117,-5.8941,-5.7837,-5.7168,-5.6446,-5.5129,-5.3934,-5.3661,-1.7306,-1.6946,-1.737,-1.7718,-1.7986,-1.9715,-2.1415,-2.3683,-2.6857,-3.0485,-3.3951,-3.6781,-3.943,-4.1808,-4.3321,-4.5196,-4.6777,-4.6537,-4.6836,-4.7904,-4.8882,-4.9662,-5.0288,-5.187,-5.2353,-5.1752,-5.1169,-5.0553,-4.9915,-4.9215,-4.8491,-4.7949,-4.7718,-4.6685,-4.4575,-4.5225,-4.5292,-4.4846,-4.4727,-4.5119,-4.6171,-4.675,-4.7225,-4.7528,-4.7979,-4.7669,-4.6226,-4.5978,-4.5857,-4.6085,-4.669,-4.7553,-4.8016,-4.8348,-4.9254,-5.07,-5.1317,-5.2558,-5.4531,-5.6641,-5.832,-5.9304,-6.0422,-6.0619,-6.0056,-5.9912,-5.996,-6.0266,-6.1073,-6.1856,-6.255,-6.4276,-6.5551,-6.585,-6.677,-6.7464,-6.7709,-6.8047,-6.88,-6.9647,-6.9278,-6.9605,-7.1618,-7.2291,-7.2226,-7.2351,-7.2263,-7.2048,-7.2048,-7.1964,-7.1749,-7.1531,-7.1272,-7.0982,-7.0783,-7.0582,-7.0167,-6.9814,-6.992,-6.9672,-6.8788,-6.7445,-6.6387,-6.5644,-6.4064,-6.2849,-6.1363,-6.008,-5.9075,-5.8037,-5.7399,-5.6582,-5.5329,-5.4301,-5.4113,-1.7916,-1.7117,-1.7252,-1.7699,-1.8419,-2.0006,-2.2289,-2.5295,-2.914,-3.2681,-3.5737,-3.8557,-4.1135,-4.3276,-4.4848,-4.6802,-4.8956,-4.9555,-5.006,-5.0486,-5.1312,-5.1915,-5.2578,-5.4003,-5.4955,-5.5317,-5.5265,-5.4836,-5.4258,-5.3922,-5.3592,-5.3004,-5.1901,-5.116,-5.0343,-4.9118,-4.8191,-4.8177,-4.7641,-4.7575,-4.7971,-4.8825,-4.9529,-5.0179,-5.1013,-5.1372,-5.1356,-4.9145,-4.8472,-4.9445,-4.9232,-4.9439,-5.0106,-5.0324,-5.0913,-5.2122,-5.393,-5.5071,-5.6013,-5.8075,-5.9752,-6.0553,-6.0943,-6.0727,-6.0279,-6.0414,-6.0281,-6.0021,-6.0807,-6.1885,-6.2835,-6.4328,-6.5496,-6.5881,-6.6691,-6.7479,-6.8024,-6.8351,-6.8898,-6.9555,-6.9237,-6.961,-7.0756,-7.1374,-7.1957,-7.2054,-7.2024,-7.1988,-7.1957,-7.1927,-7.1903,-7.1718,-7.1404,-7.1048,-7.075,-7.0478,-7.0167,-6.9778,-6.9743,-6.9813,-6.9,-6.787,-6.6953,-6.5863,-6.4319,-6.2821,-6.1397,-6.0285,-5.935,-5.827,-5.7495,-5.6497,-5.5343,-5.4886,-5.4776,-1.8537,-1.762,-1.7618,-1.8151,-1.9246,-2.1253,-2.4102,-2.7557,-3.149,-3.5101,-3.8333,-4.0834,-4.3126,-4.5184,-4.6863,-4.8788,-5.0856,-5.2268,-5.346,-5.4138,-5.4019,-5.4294,-5.4784,-5.6549,-5.7747,-5.8322,-5.8467,-5.8353,-5.803,-5.7468,-5.7144,-5.6893,-5.5606,-5.4641,-5.4444,-5.2781,-5.1747,-5.1523,-5.0526,-5.0135,-5.0563,-5.0857,-5.1435,-5.2265,-5.2846,-5.3692,-5.4535,-5.2389,-5.1417,-5.1931,-5.1458,-5.1408,-5.1973,-5.1614,-5.1823,-5.3436,-5.515,-5.6477,-5.6797,-5.8799,-6.0252,-6.0488,-6.0759,-6.0476,-5.993,-6.0229,-6.0369,-6.0108,-6.0646,-6.1752,-6.3025,-6.4265,-6.5327,-6.5939,-6.6839,-6.7627,-6.8388,-6.8852,-6.938,-6.977,-6.9407,-6.955,-7.0408,-7.0857,-7.1557,-7.1656,-7.1749,-7.1775,-7.1775,-7.1805,-7.1749,-7.1593,-7.1243,-7.0916,-7.0649,-7.041,-7.0096,-6.9778,-6.946,-6.9424,-6.8999,-6.7622,-6.6461,-6.5479,-6.4148,-6.2753,-6.1327,-6.0945,-6.0147,-5.8959,-5.7726,-5.7013,-5.622,-5.5807,-5.5629,-1.9258,-1.8466,-1.8577,-1.9329,-2.0581,-2.3509,-2.6741,-3.0098,-3.3886,-3.7813,-4.1342,-4.3443,-4.5481,-4.7523,-4.928,-5.1166,-5.3141,-5.4821,-5.689,-5.8286,-5.8095,-5.7613,-5.7847,-5.9627,-6.0642,-6.0849,-6.098,-6.1053,-6.0963,-6.0047,-5.9419,-6.0023,-5.8797,-5.7634,-5.6904,-5.6164,-5.516,-5.4276,-5.3058,-5.277,-5.3433,-5.3163,-5.322,-5.4013,-5.437,-5.5156,-5.6203,-5.5645,-5.4847,-5.4189,-5.3483,-5.3243,-5.3512,-5.233,-5.2611,-5.4492,-5.586,-5.6702,-5.7297,-5.9168,-6.0208,-5.9715,-6.0166,-6.021,-5.9276,-5.9947,-6.0522,-6.0397,-6.0803,-6.174,-6.3361,-6.4804,-6.5624,-6.6253,-6.7313,-6.8172,-6.8935,-6.9575,-7.0106,-7.0447,-6.9736,-6.9289,-7.0721,-7.0711,-7.0913,-7.111,-7.1276,-7.1336,-7.1399,-7.1399,-7.1436,-7.1243,-7.1015,-7.0783,-7.0547,-7.0272,-7.0026,-6.9814,-6.9388,-6.9032,-6.8788,-6.7482,-6.6286,-6.5233,-6.4113,-6.2718,-6.1708,-6.1291,-6.0385,-5.8985,-5.8104,-5.7643,-5.7171,-5.6656,-5.6312,-2.1817,-2.0849,-2.1269,-2.2313,-2.4036,-2.6726,-2.9865,-3.3394,-3.742,-4.0895,-4.3733,-4.5699,-4.8135,-5.0704,-5.1628,-5.3753,-5.6593,-5.8412,-6.0342,-6.2457,-6.3578,-6.2942,-6.2178,-6.2591,-6.3106,-6.3283,-6.3733,-6.3893,-6.3615,-6.3577,-6.3323,-6.2791,-6.1659,-6.0604,-5.9537,-5.8143,-5.6819,-5.5672,-5.4654,-5.3871,-5.3954,-5.4863,-5.5389,-5.5708,-5.6865,-5.7757,-5.8358,-5.8197,-5.7664,-5.6728,-5.5089,-5.4749,-5.5476,-5.4589,-5.4262,-5.497,-5.7015,-5.8359,-5.8709,-6.0137,-6.0956,-6.0663,-6.0157,-5.9689,-5.9687,-6.0506,-6.0822,-6.0822,-6.124,-6.244,-6.431,-6.6289,-6.7541,-6.8143,-6.832,-6.884,-7.0002,-7.0442,-7.0641,-7.1112,-7.0852,-7.0746,-7.0635,-7.0716,-7.0613,-7.0511,-7.068,-7.0913,-7.1045,-7.1078,-7.111,-7.1015,-7.0817,-7.0649,-7.041,-7.0132,-6.9956,-6.9813,-6.931,-6.8569,-6.8201,-6.7438,-6.6422,-6.5512,-6.4358,-6.3031,-6.2192,-6.156,-6.0299,-5.9184,-5.8727,-5.8339,-5.7662,-5.7083,-5.6816,-2.4893,-2.413,-2.4614,-2.5873,-2.784,-3.0594,-3.3802,-3.7342,-4.1031,-4.4164,-4.6636,-4.8948,-5.108,-5.3122,-5.4734,-5.7022,-5.9823,-6.1394,-6.3554,-6.6217,-6.811,-6.7624,-6.6169,-6.5723,-6.5859,-6.6045,-6.6456,-6.6347,-6.594,-6.6096,-6.5539,-6.4534,-6.352,-6.2585,-6.1728,-5.9901,-5.8681,-5.7692,-5.648,-5.5575,-5.573,-5.6255,-5.6854,-5.7353,-5.846,-5.9183,-5.9979,-5.9844,-5.9242,-5.8314,-5.7232,-5.6861,-5.7435,-5.7694,-5.6971,-5.5931,-5.8001,-5.91,-5.8617,-5.9927,-6.0687,-6.0332,-6.0011,-6.0288,-6.0288,-6.1201,-6.2003,-6.147,-6.1679,-6.2983,-6.5113,-6.7316,-6.8701,-6.9276,-6.9213,-6.9473,-7.0695,-7.0871,-7.1112,-7.1417,-7.1463,-7.1368,-7.0949,-7.0817,-7.0444,-7.0166,-7.0478,-7.068,-7.088,-7.0847,-7.0814,-7.068,-7.0477,-7.0272,-7.0026,-6.9777,-6.9231,-6.9122,-6.8546,-6.7891,-6.7607,-6.7069,-6.6345,-6.5406,-6.4358,-6.3449,-6.2537,-6.173,-6.0928,-6.0056,-5.9564,-5.893,-5.8258,-5.7539,-5.7243,-2.8234,-2.7936,-2.8405,-2.9717,-3.1785,-3.4742,-3.7794,-4.1291,-4.4518,-4.7389,-4.9915,-5.2605,-5.4447,-5.558,-5.8254,-6.0547,-6.2462,-6.4202,-6.6842,-6.9427,-7.1231,-7.1002,-6.9184,-6.8629,-6.8519,-6.8506,-6.8703,-6.846,-6.7972,-6.7432,-6.6758,-6.6021,-6.4766,-6.3895,-6.3276,-6.1688,-6.0781,-5.9982,-5.8638,-5.8038,-5.8259,-5.8315,-5.8621,-5.9269,-5.9733,-6.0603,-6.1392,-6.1281,-6.0585,-5.9706,-5.9345,-5.8936,-5.9271,-6.0737,-5.9922,-5.7824,-5.8668,-5.9136,-5.7824,-5.9446,-6.0269,-5.9721,-6.1182,-6.1726,-6.1162,-6.2278,-6.2965,-6.2344,-6.1957,-6.3555,-6.6209,-6.7991,-6.9092,-6.9908,-7.0015,-7.0113,-7.0518,-7.1115,-7.1544,-7.1653,-7.1689,-7.158,-7.1308,-7.1021,-7.0483,-6.9991,-7.0237,-7.0271,-7.0443,-7.0477,-7.0443,-7.041,-7.0132,-6.9778,-6.9597,-6.9377,-6.8705,-6.8245,-6.7384,-6.6827,-6.6781,-6.6355,-6.5886,-6.5089,-6.3971,-6.3136,-6.2502,-6.1767,-6.1068,-6.0511,-5.9671,-5.9284,-5.8892,-5.807,-5.7595,-3.1368,-3.1337,-3.2346,-3.3963,-3.6019,-3.8117,-4.0744,-4.3784,-4.7099,-5.0108,-5.2844,-5.5386,-5.8072,-6.0709,-6.17,-6.3364,-6.5847,-6.7757,-7.0329,-7.2834,-7.2936,-7.3179,-7.235,-7.1488,-7.0485,-7.0096,-6.9874,-6.9884,-6.9743,-6.9197,-6.867,-6.804,-6.7058,-6.6061,-6.4483,-6.3961,-6.2915,-6.1602,-6.0851,-6.057,-6.0492,-6.085,-6.1079,-6.1557,-6.2231,-6.2946,-6.3374,-6.3477,-6.327,-6.2538,-6.0812,-5.978,-6.0331,-6.1156,-6.0606,-5.9434,-5.9492,-5.9754,-5.9148,-6.0229,-6.153,-6.1554,-6.2002,-6.2539,-6.3107,-6.3369,-6.3661,-6.3372,-6.3235,-6.4832,-6.8284,-6.9315,-7.0023,-7.0627,-7.0876,-7.109,-7.1588,-7.1757,-7.2032,-7.2424,-7.2315,-7.195,-7.1294,-7.1643,-7.1053,-7.0204,-6.992,-6.992,-6.9991,-7.0096,-7.0096,-7.0132,-6.992,-6.9634,-6.9416,-6.912,-6.8474,-6.7851,-6.6969,-6.6051,-6.6048,-6.5868,-6.5475,-6.4581,-6.3475,-6.2787,-6.2366,-6.1202,-6.0361,-6.0086,-5.9814,-5.9531,-5.9071,-5.8421,-5.7902,-3.3837,-3.4016,-3.5506,-3.704,-3.8738,-4.0976,-4.3597,-4.6491,-4.9719,-5.2691,-5.5578,-5.858,-6.1341,-6.348,-6.5062,-6.6894,-6.8732,-7.1029,-7.2936,-7.4308,-7.4252,-7.4292,-7.4228,-7.3219,-7.2121,-7.1509,-7.1589,-7.1459,-7.0937,-7.066,-7.0288,-6.9716,-6.8749,-6.7754,-6.6487,-6.5766,-6.4686,-6.3833,-6.3398,-6.3183,-6.3012,-6.3053,-6.3075,-6.3033,-6.3589,-6.4085,-6.4622,-6.4294,-6.4411,-6.4122,-6.2734,-6.1481,-6.1481,-6.164,-6.1169,-6.0653,-6.0234,-6.0532,-6.0592,-6.108,-6.1751,-6.2274,-6.3015,-6.3932,-6.46,-6.4964,-6.5459,-6.5469,-6.5424,-6.6215,-7.013,-7.059,-7.0944,-7.1406,-7.1655,-7.1937,-7.236,-7.2298,-7.2228,-7.2656,-7.2548,-7.2435,-7.229,-7.2439,-7.1375,-7.0379,-7.0629,-7.0594,-6.9813,-6.992,-6.992,-6.9884,-6.9742,-6.9525,-6.9342,-6.8932,-6.8319,-6.7696,-6.7046,-6.614,-6.5551,-6.5368,-6.5143,-6.4198,-6.3358,-6.2785,-6.2229,-6.1033,-6.0151,-5.9949,-5.9814,-5.9636,-5.9246,-5.8597,-5.8214,-3.5859,-3.6247,-3.8104,-3.9587,-4.1052,-4.3546,-4.6334,-4.9302,-5.2514,-5.5469,-5.8139,-6.1955,-6.3979,-6.5554,-6.7838,-6.9626,-7.1265,-7.283,-7.4462,-7.5055,-7.4872,-7.4841,-7.4702,-7.4018,-7.3227,-7.302,-7.2953,-7.2468,-7.1743,-7.1535,-7.1175,-7.0717,-6.962,-6.8846,-6.8481,-6.7391,-6.6247,-6.5917,-6.5717,-6.5531,-6.542,-6.5159,-6.4885,-6.4778,-6.4635,-6.5102,-6.5549,-6.5241,-6.4946,-6.5568,-6.505,-6.425,-6.3358,-6.2265,-6.1716,-6.1636,-6.117,-6.1431,-6.2035,-6.2323,-6.2528,-6.2357,-6.4208,-6.5635,-6.6243,-6.6717,-6.7263,-6.7617,-6.7695,-6.8199,-7.1325,-7.1539,-7.1757,-7.2146,-7.2324,-7.2601,-7.2985,-7.2778,-7.2751,-7.2864,-7.3078,-7.3117,-7.3262,-7.3405,-7.1942,-7.0799,-7.1124,-7.1126,-7.0379,-6.9812,-6.9883,-6.9918,-6.981,-6.9595,-6.9377,-6.897,-6.8319,-6.7731,-6.7141,-6.6371,-6.5406,-6.5039,-6.4829,-6.4217,-6.3523,-6.2918,-6.2231,-6.1326,-6.0626,-6.0169,-5.9783,-5.9644,-5.9249,-5.8737,-5.8391,-3.7514,-3.8467,-4.0025,-4.2061,-4.4342,-4.5944,-4.8644,-5.2235,-5.5535,-5.8581,-6.1168,-6.3942,-6.6199,-6.7882,-6.8884,-7.0831,-7.2762,-7.4012,-7.469,-7.5293,-7.504,-7.4792,-7.4905,-7.4261,-7.369,-7.344,-7.3398,-7.2972,-7.2214,-7.1976,-7.1677,-7.1027,-7.0501,-7.0024,-6.9608,-6.9059,-6.8376,-6.7835,-6.7787,-6.773,-6.7486,-6.7277,-6.7166,-6.7022,-6.6619,-6.6716,-6.6881,-6.6562,-6.629,-6.6464,-6.6401,-6.585,-6.4821,-6.304,-6.2029,-6.1833,-6.2336,-6.2986,-6.3982,-6.4562,-6.5208,-6.5905,-6.6774,-6.7825,-6.8446,-6.8533,-6.8659,-6.9246,-7.001,-7.0988,-7.2371,-7.2474,-7.2464,-7.274,-7.2871,-7.3002,-7.3561,-7.3741,-7.3611,-7.3658,-7.3764,-7.3799,-7.3927,-7.4006,-7.3285,-7.2136,-7.1713,-7.1644,-7.1073,-7.0404,-6.9985,-6.9985,-7.0021,-6.9735,-6.9412,-6.9005,-6.8513,-6.7885,-6.7339,-6.667,-6.5841,-6.5033,-6.4477,-6.3908,-6.3349,-6.271,-6.2041,-6.15,-6.1293,-6.1047,-6.0385,-5.9722,-5.9499,-5.9236,-5.8123,-3.821,-3.9122,-4.149,-4.3788,-4.602,-4.841,-5.1395,-5.4786,-5.7809,-6.0719,-6.3292,-6.548,-6.7286,-6.8884,-6.9937,-7.1649,-7.3333,-7.422,-7.4723,-7.5119,-7.4583,-7.4476,-7.49,-7.4186,-7.4039,-7.3964,-7.4008,-7.3261,-7.2175,-7.2503,-7.2091,-7.155,-7.1317,-7.1085,-7.0618,-7.0337,-7.0126,-6.9634,-6.9853,-7.0055,-6.9796,-6.9531,-6.9031,-6.8227,-6.7677,-6.7448,-6.7405,-6.6841,-6.6528,-6.6624,-6.6746,-6.6514,-6.5761,-6.4572,-6.2956,-6.2375,-6.3382,-6.5155,-6.6382,-6.7035,-6.7165,-6.7989,-6.876,-6.9506,-7.0049,-6.9994,-6.9695,-7.0016,-7.2307,-7.3602,-7.433,-7.3867,-7.3673,-7.3505,-7.3487,-7.362,-7.3856,-7.4202,-7.4291,-7.4272,-7.4142,-7.4114,-7.4184,-7.4264,-7.4367,-7.3687,-7.2616,-7.2114,-7.168,-7.0847,-7.0084,-7.0018,-7.0019,-6.9736,-6.9486,-6.9192,-6.8705,-6.8083,-6.7407,-6.6772,-6.6275,-6.5541,-6.4559,-6.3702,-6.3101,-6.2847,-6.247,-6.2151,-6.202,-6.1849,-6.1015,-6.0353,-6.0167,-5.966,-5.8488,-3.8714,-3.9826,-4.2947,-4.5471,-4.7775,-5.1011,-5.4303,-5.7369,-6.0012,-6.2593,-6.5095,-6.6534,-6.7855,-6.9229,-7.0626,-7.212,-7.3574,-7.4204,-7.4636,-7.475,-7.4324,-7.4287,-7.4427,-7.432,-7.4066,-7.4229,-7.4378,-7.368,-7.2762,-7.3004,-7.2728,-7.2282,-7.2225,-7.2299,-7.1883,-7.1699,-7.1535,-7.1504,-7.1678,-7.1965,-7.1686,-7.1006,-6.996,-6.8616,-6.7763,-6.746,-6.7662,-6.6758,-6.6428,-6.6521,-6.6669,-6.6775,-6.6755,-6.6151,-6.4866,-6.3731,-6.5036,-6.7309,-6.9385,-6.9619,-6.9605,-7.024,-7.081,-7.1348,-7.1523,-7.1448,-7.092,-7.0577,-7.2714,-7.5443,-7.5868,-7.5511,-7.5026,-7.4816,-7.4616,-7.4462,-7.4557,-7.4622,-7.4592,-7.4545,-7.4385,-7.4283,-7.4245,-7.4245,-7.4245,-7.392,-7.2883,-7.27,-7.2201,-7.0944,-7.0253,-7.0049,-6.9911,-6.9702,-6.9524,-6.9449,-6.893,-6.8319,-6.7488,-6.6735,-6.6464,-6.605,-6.5,-6.4011,-6.3809,-6.3563,-6.3186,-6.2793,-6.2664,-6.2293,-6.1466,-6.0878,-6.0459,-5.9683,-5.8584,-3.9654,-4.1948,-4.4696,-4.7742,-5.0985,-5.3991,-5.7127,-6.0214,-6.2802,-6.4767,-6.6062,-6.7094,-6.8122,-6.9384,-7.1192,-7.24,-7.3239,-7.394,-7.4402,-7.452,-7.4487,-7.4446,-7.4438,-7.452,-7.4332,-7.435,-7.4357,-7.406,-7.3507,-7.3762,-7.3362,-7.2587,-7.3124,-7.3577,-7.2911,-7.2981,-7.3128,-7.2731,-7.2409,-7.1935,-7.1316,-7.1143,-7.068,-6.989,-6.8793,-6.806,-6.8089,-6.7178,-6.6486,-6.6519,-6.657,-6.6997,-6.7541,-6.7748,-6.7769,-6.7573,-6.8175,-6.9514,-7.2462,-7.2501,-7.2199,-7.2512,-7.3172,-7.3605,-7.3502,-7.3108,-7.2429,-7.1326,-7.3573,-7.5744,-7.6945,-7.6622,-7.6391,-7.6109,-7.582,-7.5806,-7.579,-7.5423,-7.5323,-7.4903,-7.4817,-7.4365,-7.4084,-7.4049,-7.4014,-7.369,-7.3326,-7.3142,-7.2648,-7.1431,-7.0216,-6.998,-6.9767,-6.9558,-6.956,-6.9486,-6.9118,-6.8513,-6.769,-6.6837,-6.6456,-6.6117,-6.5504,-6.4701,-6.443,-6.3775,-6.3017,-6.2799,-6.3056,-6.2758,-6.1974,-6.1219,-6.0566,-5.963,-5.8748,-4.2591,-4.3394,-4.6828,-5.0202,-5.354,-5.6594,-5.9637,-6.2393,-6.4388,-6.5767,-6.6682,-6.7084,-6.808,-6.9673,-7.1516,-7.2684,-7.331,-7.3892,-7.4092,-7.4346,-7.471,-7.4882,-7.4725,-7.4882,-7.4882,-7.4545,-7.4339,-7.4178,-7.406,-7.4035,-7.3652,-7.29,-7.3568,-7.3974,-7.3643,-7.3951,-7.3795,-7.3462,-7.3097,-7.2643,-7.2027,-7.1631,-7.1272,-7.0667,-6.9332,-6.8885,-6.8579,-6.8052,-6.7479,-6.7557,-6.7696,-6.7959,-6.8349,-6.8552,-6.8854,-7.009,-7.0501,-7.169,-7.3331,-7.3678,-7.3996,-7.4293,-7.4639,-7.4709,-7.4896,-7.4528,-7.3786,-7.2659,-7.4273,-7.6154,-7.7378,-7.6799,-7.6597,-7.6494,-7.6665,-7.6427,-7.6374,-7.6438,-7.6187,-7.5697,-7.5166,-7.4722,-7.4337,-7.4251,-7.4157,-7.3865,-7.3571,-7.3347,-7.2818,-7.1948,-7.0777,-6.9773,-6.9521,-6.9376,-6.9487,-6.9487,-6.9229,-6.8667,-6.7851,-6.7059,-6.6505,-6.6042,-6.5395,-6.464,-6.3934,-6.3296,-6.2702,-6.274,-6.3007,-6.2771,-6.2429,-6.1686,-6.0902,-6.0045,-5.9079,-4.671,-4.6812,-4.9839,-5.2866,-5.6024,-5.9143,-6.1843,-6.4082,-6.5366,-6.6351,-6.7011,-6.7462,-6.8542,-7.009,-7.1693,-7.2757,-7.3345,-7.3991,-7.4146,-7.4422,-7.4918,-7.5264,-7.5229,-7.5314,-7.5183,-7.5058,-7.437,-7.417,-7.4135,-7.4149,-7.3777,-7.3047,-7.4047,-7.4254,-7.4194,-7.4264,-7.4243,-7.3647,-7.3313,-7.2943,-7.2505,-7.2139,-7.1707,-7.102,-7.0175,-6.9472,-6.9419,-6.8861,-6.8548,-6.8333,-6.8363,-6.8552,-6.9032,-6.944,-7.0001,-7.1193,-7.2134,-7.3151,-7.3937,-7.4372,-7.4963,-7.539,-7.5779,-7.6028,-7.6353,-7.5799,-7.5166,-7.435,-7.4974,-7.6417,-7.72,-7.675,-7.6902,-7.6931,-7.6988,-7.6718,-7.6482,-7.6657,-7.665,-7.6189,-7.57,-7.5212,-7.4857,-7.4615,-7.4356,-7.4062,-7.3821,-7.3557,-7.2744,-7.1866,-7.0832,-6.9623,-6.9229,-6.9118,-6.9192,-6.9229,-6.9045,-6.86,-6.7827,-6.71,-6.6357,-6.5756,-6.5169,-6.438,-6.3467,-6.2881,-6.2253,-6.26,-6.2889,-6.2681,-6.2408,-6.1944,-6.1268,-6.0345,-5.9357,-5.2093,-5.399,-5.4198,-5.5942,-5.8647,-6.1858,-6.3755,-6.4859,-6.6109,-6.675,-6.7214,-6.8313,-6.9656,-7.0891,-7.2157,-7.304,-7.33,-7.4479,-7.4888,-7.5153,-7.5563,-7.5831,-7.5761,-7.5493,-7.5229,-7.4967,-7.4712,-7.4444,-7.4124,-7.4295,-7.3861,-7.3567,-7.4362,-7.4619,-7.461,-7.4483,-7.422,-7.3659,-7.3219,-7.2785,-7.2557,-7.2384,-7.2234,-7.1826,-7.1151,-7.0555,-7.012,-6.9594,-6.9206,-6.8862,-6.8998,-6.9322,-7.0117,-7.0602,-7.1251,-7.2054,-7.3415,-7.4241,-7.4625,-7.5282,-7.6126,-7.6542,-7.6776,-7.7149,-7.7824,-7.7496,-7.6924,-7.619,-7.6199,-7.6294,-7.6802,-7.6891,-7.7152,-7.7533,-7.7594,-7.7418,-7.7186,-7.6977,-7.69,-7.6648,-7.6292,-7.586,-7.5532,-7.5318,-7.4559,-7.4167,-7.3747,-7.3447,-7.2171,-7.1225,-7.043,-6.9529,-6.8996,-6.8781,-6.8781,-6.8743,-6.8667,-6.8085,-6.725,-6.6581,-6.5956,-6.5392,-6.485,-6.3718,-6.2774,-6.2299,-6.1891,-6.1795,-6.1917,-6.2347,-6.231,-6.1923,-6.0944,-5.9788,-5.9046,-5.5833,-5.7211,-5.9424,-6.063,-6.1122,-6.3239,-6.4715,-6.5551,-6.6222,-6.7162,-6.8192,-6.9751,-7.1395,-7.2857,-7.3868,-7.4755,-7.5363,-7.5732,-7.5846,-7.5954,-7.6209,-7.651,-7.6405,-7.6342,-7.6285,-7.6041,-7.5725,-7.5534,-7.5414,-7.4803,-7.4567,-7.4601,-7.4697,-7.4753,-7.4762,-7.4496,-7.4026,-7.3837,-7.336,-7.2998,-7.264,-7.2632,-7.2583,-7.2154,-7.1584,-7.132,-7.1253,-7.1218,-7.102,-7.0887,-7.0898,-7.1137,-7.1434,-7.1992,-7.2399,-7.2815,-7.4105,-7.4716,-7.5197,-7.5798,-7.6135,-7.6313,-7.6572,-7.7295,-7.8683,-7.8237,-7.7465,-7.7015,-7.6956,-7.6923,-7.6515,-7.6816,-7.7217,-7.7909,-7.8151,-7.7893,-7.7702,-7.7311,-7.7207,-7.6947,-7.6842,-7.6641,-7.6346,-7.6041,-7.5122,-7.4267,-7.3802,-7.3163,-7.1847,-7.0788,-7.0136,-6.9331,-6.8729,-6.8667,-6.8667,-6.8513,-6.8319,-6.7586,-6.6782,-6.6125,-6.5535,-6.4937,-6.427,-6.3141,-6.2316,-6.1991,-6.1558,-6.0891,-6.1053,-6.179,-6.1992,-6.1859,-6.0683,-5.9334,-5.8734,-5.9015,-6.0648,-6.3314,-6.4013,-6.3531,-6.5038,-6.6042,-6.6571,-6.6931,-6.7918,-6.9561,-7.1247,-7.3019,-7.4578,-7.5478,-7.6118,-7.6698,-7.6914,-7.6735,-7.6842,-7.7048,-7.7229,-7.7143,-7.6977,-7.6782,-7.6901,-7.6549,-7.6222,-7.6081,-7.5458,-7.5329,-7.5168,-7.4831,-7.4832,-7.476,-7.4287,-7.379,-7.3704,-7.3374,-7.2978,-7.2532,-7.2794,-7.3102,-7.2789,-7.2323,-7.2286,-7.2401,-7.2415,-7.226,-7.2244,-7.2335,-7.2629,-7.2889,-7.3149,-7.3445,-7.38,-7.4353,-7.4932,-7.5458,-7.5724,-7.5825,-7.5981,-7.6164,-7.7433,-7.8522,-7.8402,-7.7938,-7.8421,-7.8042,-7.7454,-7.6965,-7.7303,-7.7243,-7.7709,-7.7728,-7.7579,-7.75,-7.7248,-7.7317,-7.7317,-7.713,-7.6858,-7.6128,-7.5716,-7.5007,-7.4153,-7.3746,-7.2858,-7.1444,-7.06,-7.0119,-6.9276,-6.8427,-6.8474,-6.8628,-6.8358,-6.8044,-6.7633,-6.6798,-6.5806,-6.5149,-6.4551,-6.3691,-6.2505,-6.1883,-6.1691,-6.1315,-6.0774,-6.0969,-6.1383,-6.1602,-6.1845,-6.0578,-5.9332,-5.8689,-6.1557,-6.4599,-6.5078,-6.5282,-6.5493,-6.7407,-6.8043,-6.7843,-6.8454,-6.9516,-7.1063,-7.2842,-7.4462,-7.5692,-7.6625,-7.7193,-7.7713,-7.7846,-7.7772,-7.775,-7.7894,-7.791,-7.7623,-7.7352,-7.7151,-7.6768,-7.6705,-7.6672,-7.6503,-7.6082,-7.6053,-7.5895,-7.5344,-7.4804,-7.4787,-7.3938,-7.3322,-7.3074,-7.28,-7.264,-7.2516,-7.307,-7.3641,-7.3637,-7.3421,-7.3301,-7.3389,-7.3288,-7.3009,-7.2658,-7.259,-7.2772,-7.2947,-7.3517,-7.3647,-7.3369,-7.4569,-7.5185,-7.5304,-7.5392,-7.5574,-7.5769,-7.5926,-7.7017,-7.7718,-7.804,-7.8754,-7.9303,-7.8962,-7.8698,-7.8384,-7.7902,-7.748,-7.7207,-7.7219,-7.7223,-7.7099,-7.7099,-7.7133,-7.7088,-7.7088,-7.6871,-7.5993,-7.5228,-7.4611,-7.4059,-7.3635,-7.262,-7.1174,-7.0436,-6.9945,-6.9006,-6.8157,-6.8162,-6.8241,-6.8078,-6.7805,-6.7392,-6.6814,-6.5895,-6.4966,-6.4301,-6.328,-6.1996,-6.1658,-6.1609,-6.1192,-6.075,-6.1011,-6.1301,-6.1669,-6.1637,-6.0367,-5.9358,-5.8751,-6.2642,-6.4846,-6.6107,-6.702,-6.7617,-6.7988,-6.8156,-6.8375,-6.99,-7.1679,-7.3358,-7.5112,-7.6766,-7.7847,-7.8241,-7.8631,-7.9111,-7.9391,-7.9352,-7.8618,-7.8749,-7.8509,-7.8178,-7.7771,-7.7562,-7.769,-7.7622,-7.7572,-7.7872,-7.7062,-7.6823,-7.6702,-7.569,-7.4984,-7.4558,-7.3974,-7.3726,-7.3761,-7.3786,-7.3793,-7.3269,-7.3933,-7.4467,-7.4382,-7.4162,-7.4099,-7.4126,-7.385,-7.3503,-7.3054,-7.3033,-7.3251,-7.3463,-7.3997,-7.4069,-7.4045,-7.4939,-7.5104,-7.557,-7.5935,-7.578,-7.5749,-7.6073,-7.669,-7.6864,-7.7603,-7.8778,-8.0001,-7.9883,-7.9544,-7.8933,-7.7867,-7.7283,-7.6972,-7.6873,-7.6771,-7.6679,-7.6725,-7.6725,-7.6633,-7.6633,-7.6234,-7.5516,-7.4751,-7.4119,-7.3687,-7.3226,-7.2182,-7.0808,-7.0243,-6.9755,-6.8688,-6.7919,-6.7919,-6.7919,-6.7879,-6.7759,-6.7448,-6.6875,-6.6099,-6.5196,-6.4327,-6.3332,-6.2323,-6.1932,-6.1526,-6.1102,-6.075,-6.0961,-6.1227,-6.1508,-6.1576,-6.0727,-5.9685,-5.877,-6.352,-6.5479,-6.6743,-6.8223,-6.9424,-6.9312,-6.9485,-7.0268,-7.2014,-7.369,-7.5192,-7.6841,-7.8387,-7.9539,-8.0039,-8.0468,-8.0912,-8.0749,-8.0641,-7.9793,-7.9395,-7.9119,-7.8675,-7.8197,-7.791,-7.8143,-7.8186,-7.8159,-7.8139,-7.767,-7.7111,-7.6502,-7.5895,-7.4988,-7.4315,-7.385,-7.3686,-7.3724,-7.3797,-7.3862,-7.3676,-7.4093,-7.4751,-7.4643,-7.4462,-7.4378,-7.4351,-7.4229,-7.4003,-7.3699,-7.3666,-7.3838,-7.3971,-7.4338,-7.444,-7.4605,-7.5199,-7.5487,-7.6128,-7.6821,-7.6519,-7.5675,-7.636,-7.6753,-7.6752,-7.7389,-7.8562,-7.9674,-8.0395,-8.0064,-7.9215,-7.8069,-7.7009,-7.6691,-7.6507,-7.6402,-7.6169,-7.6135,-7.6322,-7.6275,-7.6288,-7.5776,-7.5037,-7.433,-7.3591,-7.3207,-7.2819,-7.1737,-7.069,-7.0237,-6.9715,-6.872,-6.7896,-6.7834,-6.7879,-6.7885,-6.7759,-6.751,-6.7012,-6.6446,-6.5474,-6.4604,-6.3608,-6.2657,-6.2066,-6.1459,-6.0985,-6.0793,-6.0961,-6.1028,-6.1109,-6.1046,-6.0912,-6.0076,-5.9025,-6.4213,-6.6562,-6.7165,-6.8752,-7.0768,-7.1054,-7.2084,-7.3649,-7.4503,-7.5322,-7.6247,-7.8196,-7.9569,-8.0471,-8.1074,-8.1717,-8.2216,-8.1795,-8.1514,-8.1047,-8.0197,-7.9702,-7.9102,-7.8511,-7.8145,-7.7963,-7.7893,-7.7971,-7.7893,-7.7596,-7.69,-7.5882,-7.5366,-7.4578,-7.3882,-7.3632,-7.3552,-7.3706,-7.3824,-7.376,-7.369,-7.4046,-7.4647,-7.4704,-7.4645,-7.4433,-7.4299,-7.4155,-7.3709,-7.3406,-7.3379,-7.3601,-7.4002,-7.4673,-7.4533,-7.4816,-7.5778,-7.6404,-7.6678,-7.7366,-7.7417,-7.6655,-7.6341,-7.7026,-7.7394,-7.7423,-7.8295,-7.94,-8.0237,-8.0081,-7.9632,-7.8091,-7.6553,-7.6368,-7.6182,-7.5899,-7.5566,-7.5662,-7.5947,-7.6088,-7.6262,-7.573,-7.4594,-7.3728,-7.2908,-7.2619,-7.2261,-7.1996,-7.1054,-7.0404,-6.9822,-6.8939,-6.8261,-6.7856,-6.7868,-6.7839,-6.7759,-6.7516,-6.7435,-6.6903,-6.5929,-6.5024,-6.4169,-6.3257,-6.2073,-6.1393,-6.1086,-6.0961,-6.0994,-6.1028,-6.0978,-6.1017,-6.0991,-6.0319,-5.9347,-6.3809,-6.6214,-6.7553,-6.8927,-7.0342,-7.1616,-7.3015,-7.4385,-7.5352,-7.6498,-7.8003,-7.9269,-8.0245,-8.1297,-8.1394,-8.1929,-8.2128,-8.2099,-8.1774,-8.1301,-8.0788,-8.0104,-7.946,-7.8894,-7.8415,-7.798,-7.7763,-7.771,-7.7711,-7.7433,-7.6191,-7.483,-7.4753,-7.399,-7.3615,-7.3571,-7.3807,-7.3956,-7.4043,-7.3954,-7.3999,-7.4363,-7.4797,-7.4904,-7.4972,-7.467,-7.4091,-7.3988,-7.3581,-7.3303,-7.3332,-7.3533,-7.3785,-7.4589,-7.5014,-7.5378,-7.6483,-7.7375,-7.7207,-7.7612,-7.7818,-7.7531,-7.7097,-7.6921,-7.7212,-7.7389,-7.7878,-7.8823,-7.975,-7.9701,-7.9002,-7.7674,-7.6531,-7.6135,-7.5899,-7.547,-7.5179,-7.5228,-7.5518,-7.5757,-7.5899,-7.5408,-7.4241,-7.2756,-7.2042,-7.1825,-7.1708,-7.1615,-7.1265,-7.0617,-6.991,-6.9032,-6.8391,-6.7954,-6.7741,-6.7759,-6.7678,-6.7557,-6.7557,-6.7373,-6.6644,-6.5745,-6.4806,-6.375,-6.2456,-6.1765,-6.1342,-6.121,-6.1002,-6.1044,-6.1028,-6.1052,-6.0917,-6.0269,-5.9525,-6.3896,-6.5907,-6.7423,-6.9111,-7.0902,-7.2434,-7.3729,-7.4777,-7.579,-7.7227,-7.8765,-7.9455,-8.0331,-8.1094,-8.1077,-8.143,-8.2148,-8.1815,-8.1561,-8.1401,-8.107,-8.0279,-7.9592,-7.9051,-7.8423,-7.7953,-7.7579,-7.7446,-7.7292,-7.6581,-7.5413,-7.4229,-7.411,-7.374,-7.349,-7.3825,-7.4329,-7.4438,-7.4487,-7.4409,-7.4393,-7.4517,-7.4784,-7.497,-7.508,-7.4547,-7.3708,-7.3593,-7.3421,-7.3057,-7.313,-7.3343,-7.3699,-7.4522,-7.5411,-7.5863,-7.6736,-7.7369,-7.7422,-7.7644,-7.7826,-7.7659,-7.7298,-7.6728,-7.6567,-7.6639,-7.7304,-7.8053,-7.8833,-7.9166,-7.8185,-7.725,-7.6576,-7.5994,-7.5518,-7.5033,-7.4935,-7.4886,-7.5082,-7.5325,-7.5228,-7.4843,-7.3772,-7.2225,-7.1356,-7.1457,-7.1546,-7.1478,-7.1084,-7.0487,-6.9829,-6.911,-6.8506,-6.8004,-6.7796,-6.7625,-6.7597,-6.7638,-6.7799,-6.7576,-6.7046,-6.6214,-6.5147,-6.3975,-6.2806,-6.2189,-6.1647,-6.1169,-6.0919,-6.1011,-6.0886,-6.0451,-6.0371,-6.0178,-5.9427,-6.4191,-6.5714,-6.7184,-6.9598,-7.2225,-7.3382,-7.4197,-7.4886,-7.5846,-7.7319,-7.8599,-7.9009,-7.9675,-8.0586,-8.0643,-8.1105,-8.149,-8.1384,-8.1211,-8.1197,-8.0603,-7.9915,-7.9348,-7.8875,-7.8192,-7.7688,-7.7233,-7.6906,-7.6484,-7.589,-7.5097,-7.3895,-7.4194,-7.3984,-7.3563,-7.4145,-7.4459,-7.4377,-7.4398,-7.428,-7.3972,-7.4045,-7.4248,-7.429,-7.4381,-7.4219,-7.3333,-7.3008,-7.3029,-7.286,-7.283,-7.3224,-7.3878,-7.3903,-7.4822,-7.5836,-7.6448,-7.6937,-7.7199,-7.751,-7.7353,-7.7076,-7.6632,-7.6172,-7.6036,-7.6176,-7.6775,-7.7101,-7.776,-7.8099,-7.743,-7.698,-7.6439,-7.5852,-7.5373,-7.4886,-7.4622,-7.4655,-7.4899,-7.5142,-7.5315,-7.483,-7.3477,-7.201,-7.1086,-7.1233,-7.1278,-7.1278,-7.094,-7.04,-6.9895,-6.9296,-6.8707,-6.8141,-6.7574,-6.7411,-6.7544,-6.7638,-6.7799,-6.7656,-6.7046,-6.6262,-6.5379,-6.4255,-6.3127,-6.2501,-6.1977,-6.1558,-6.1219,-6.1152,-6.0791,-5.9889,-5.9667,-5.9695,-5.9349,-6.4288,-6.5578,-6.8332,-7.0786,-7.2741,-7.3142,-7.3752,-7.4565,-7.4863,-7.6135,-7.7807,-7.8332,-7.9049,-7.9999,-8.0176,-8.06,-8.1054,-8.0479,-8.069,-8.0435,-8.0028,-7.9329,-7.89,-7.8484,-7.7879,-7.7204,-7.6713,-7.6371,-7.5835,-7.5379,-7.4923,-7.4169,-7.4229,-7.3992,-7.3674,-7.432,-7.4536,-7.4185,-7.4011,-7.3999,-7.3802,-7.3454,-7.3421,-7.3662,-7.3838,-7.3681,-7.303,-7.2725,-7.3155,-7.3473,-7.3214,-7.3562,-7.4235,-7.3016,-7.3461,-7.4869,-7.5374,-7.6008,-7.6605,-7.6951,-7.6893,-7.6893,-7.657,-7.5931,-7.569,-7.5867,-7.6083,-7.6301,-7.6517,-7.6778,-7.687,-7.6547,-7.6241,-7.5723,-7.5277,-7.4771,-7.4272,-7.4439,-7.4701,-7.4959,-7.5282,-7.4398,-7.3034,-7.203,-7.1139,-7.087,-7.0961,-7.0961,-7.0745,-7.0373,-7.0247,-6.9681,-6.8997,-6.8412,-6.7671,-6.7125,-6.7165,-6.7188,-6.727,-6.7134,-6.7039,-6.616,-6.525,-6.443,-6.3565,-6.2898,-6.2333,-6.1978,-6.1716,-6.1528,-6.118,-6.0443,-5.9371,-5.917,-5.8911,-6.4415,-6.5483,-6.8795,-7.125,-7.2742,-7.3046,-7.3413,-7.3802,-7.3919,-7.4828,-7.6386,-7.7257,-7.8066,-7.882,-7.9072,-7.9339,-7.9675,-7.9076,-7.8946,-7.8999,-7.9102,-7.8559,-7.8221,-7.8018,-7.7457,-7.677,-7.6414,-7.6015,-7.5413,-7.499,-7.4626,-7.4253,-7.415,-7.425,-7.4119,-7.458,-7.4634,-7.3945,-7.3713,-7.3436,-7.3342,-7.2949,-7.2838,-7.3094,-7.3235,-7.3088,-7.2739,-7.238,-7.2601,-7.3217,-7.3189,-7.319,-7.3151,-7.1928,-7.1922,-7.3096,-7.406,-7.4805,-7.5657,-7.6191,-7.6373,-7.6273,-7.6275,-7.5585,-7.4888,-7.4997,-7.5214,-7.5423,-7.54,-7.5581,-7.6006,-7.589,-7.5675,-7.5283,-7.5108,-7.4771,-7.4423,-7.4306,-7.4272,-7.4101,-7.4157,-7.3561,-7.2384,-7.1531,-7.0775,-7.0549,-7.0641,-7.0641,-7.0502,-7.041,-7.0283,-7.0036,-6.9331,-6.835,-6.7334,-6.6872,-6.6668,-6.6728,-6.6812,-6.6954,-6.6874,-6.5943,-6.5081,-6.4606,-6.399,-6.3244,-6.2753,-6.229,-6.215,-6.1997,-6.1616,-6.11,-5.9979,-5.8961,-5.8815,-6.4716,-6.5982,-6.8966,-7.1215,-7.2651,-7.3046,-7.3129,-7.304,-7.3164,-7.3559,-7.4399,-7.5931,-7.6389,-7.6816,-7.7329,-7.7317,-7.7436,-7.7663,-7.755,-7.7634,-7.7777,-7.7559,-7.7434,-7.7273,-7.6802,-7.6492,-7.6169,-7.5841,-7.5411,-7.5111,-7.4814,-7.433,-7.4521,-7.4903,-7.4884,-7.5012,-7.4969,-7.4234,-7.3676,-7.2821,-7.2462,-7.2165,-7.2304,-7.2509,-7.2728,-7.2706,-7.229,-7.2036,-7.2014,-7.2391,-7.2947,-7.2821,-7.258,-7.1587,-7.1695,-7.2478,-7.3474,-7.4223,-7.49,-7.5542,-7.5477,-7.5371,-7.5442,-7.5113,-7.4382,-7.4087,-7.4307,-7.4431,-7.4385,-7.4812,-7.5224,-7.5275,-7.5037,-7.5046,-7.4892,-7.4738,-7.4439,-7.4206,-7.394,-7.3556,-7.3083,-7.2639,-7.1848,-7.0997,-7.0623,-7.035,-7.0316,-7.027,-7.0223,-7.0223,-7.0176,-6.9982,-6.9563,-6.8478,-6.7345,-6.6812,-6.6651,-6.643,-6.6525,-6.6745,-6.6709,-6.588,-6.5297,-6.5108,-6.4464,-6.3447,-6.291,-6.2454,-6.242,-6.2341,-6.2076,-6.1579,-6.0917,-5.9963,-5.9321,-6.6228,-6.8944,-6.9685,-7.0999,-7.2533,-7.2797,-7.2797,-7.2755,-7.2797,-7.2816,-7.3119,-7.3937,-7.499,-7.6392,-7.7021,-7.7154,-7.7009,-7.6884,-7.6839,-7.7022,-7.6873,-7.6724,-7.6644,-7.6594,-7.6177,-7.5981,-7.5852,-7.5716,-7.5506,-7.5432,-7.531,-7.5012,-7.4998,-7.5041,-7.4719,-7.4803,-7.4734,-7.4131,-7.3347,-7.2429,-7.2418,-7.209,-7.1647,-7.182,-7.2038,-7.2228,-7.2131,-7.1753,-7.1874,-7.2161,-7.2438,-7.2212,-7.1868,-7.1625,-7.1847,-7.1968,-7.2934,-7.3615,-7.426,-7.4868,-7.49,-7.4484,-7.452,-7.4405,-7.3641,-7.2912,-7.3211,-7.3503,-7.3767,-7.4566,-7.4914,-7.4688,-7.4491,-7.4762,-7.4825,-7.4537,-7.424,-7.409,-7.3906,-7.3338,-7.2734,-7.2055,-7.1177,-7.0556,-7.0149,-7.0035,-7.0176,-7.0129,-6.9941,-6.9988,-7.0082,-6.9841,-6.9647,-6.8991,-6.8032,-6.7131,-6.6746,-6.6477,-6.6235,-6.6339,-6.623,-6.5766,-6.5335,-6.4823,-6.422,-6.3266,-6.2832,-6.2537,-6.2459,-6.242,-6.2381,-6.2053,-6.1499,-6.1003,-6.0319]},{"header":{"parameterUnit":"m.s-1","parameterCategory":1,"la1":31.0,"la2":29.5877,"lo1":-88.7671,"lo2":-86.6584,"dy":0.0162,"dx":0.0185,"nx":115,"ny":88,"refTime":"2023-11-20T12:00:00:Z","depth":0,"parameterNumber":3,"parameterNumberName":"V-component_of_WINDS"},"data":[0.0,0.0,0.0,0.0,0.0,0.0,0.0,0.0,0.0,0.0,0.0,0.0,0.0,0.0,0.0,0.0,0.0,0.0,0.0,0.0,0.0,0.0,0.0,0.0,0.0,0.0,0.0,0.0,0.0,0.0,0.0,0.0,0.0,0.0,0.0,0.0,0.0,0.0,0.0,0.0,0.0,1.6744,1.7322,1.7353,1.6875,1.7578,1.9584,0.0,0.0,0.0,0.0,0.0,0.0,0.0,0.0,0.0,0.0,0.0,0.0,0.0,0.0,0.0,0.0,0.0,0.0,0.0,0.0,0.0,0.0,0.0,0.0,0.0,0.0,0.0,0.0,0.0,0.0,0.0,0.0,0.0,0.0,0.0,0.0,0.0,0.0,0.0,0.0,0.0,0.0,0.0,0.0,0.0,0.0,0.0,0.0,0.0,0.0,0.0,0.0,0.0,0.0,0.0,0.0,0.0,0.0,0.0,0.0,0.0,0.0,0.0,0.0,0.0,0.0,0.0,0.0,0.0,0.0,0.0,0.0,0.0,0.0,0.0,0.0,0.0,0.0,0.0,0.0,0.0,0.0,0.0,0.0,0.0,0.0,0.0,0.0,0.0,0.0,0.0,0.0,0.0,0.0,0.0,0.0,0.0,0.0,0.0,0.0,0.0,0.0,0.0,0.0,0.0,0.0,0.0,0.0,0.0,0.0,1.646,1.659,1.6504,1.7261,1.893,0.0,0.0,0.0,0.0,0.0,0.0,0.0,0.0,0.0,0.0,0.0,0.0,0.0,0.0,0.0,0.0,0.0,0.0,0.0,0.0,0.0,0.0,0.0,0.0,0.0,0.0,0.0,0.0,0.0,0.0,0.0,0.0,0.0,0.0,0.0,0.0,0.0,0.0,0.0,0.0,0.0,0.0,0.0,0.0,0.0,0.0,0.0,0.0,0.0,0.0,0.0,0.0,0.0,0.0,0.0,0.0,0.0,0.0,0.0,0.0,0.0,0.0,0.0,0.0,0.0,0.0,0.0,0.0,0.0,0.0,0.0,0.0,0.0,0.0,0.0,0.0,0.0,0.0,0.0,0.0,0.0,0.0,0.0,0.0,0.0,0.0,0.0,0.0,0.0,0.0,0.0,0.0,0.0,0.0,0.0,0.0,0.0,0.0,0.0,0.0,0.0,0.0,0.0,0.0,0.0,0.0,0.0,0.0,0.0,0.0,1.585,1.654,1.5959,1.6674,1.8832,0.0,0.0,0.0,0.0,0.0,0.0,0.0,0.0,0.0,0.0,0.0,0.0,0.0,0.0,0.0,0.0,0.0,0.0,0.0,0.0,0.0,0.0,0.0,0.0,0.0,0.0,0.0,0.0,0.0,0.0,0.0,0.0,0.0,0.0,0.0,0.0,0.0,0.0,0.0,0.0,0.0,0.0,0.0,0.0,0.0,0.0,0.0,0.0,0.0,0.0,0.0,0.0,0.0,0.0,0.0,0.0,0.0,0.0,0.0,0.0,0.0,0.0,0.0,0.0,0.0,0.0,0.0,0.0,0.0,0.0,0.0,0.0,0.0,0.0,0.0,0.0,0.0,0.0,0.0,0.0,0.0,0.0,0.0,0.0,0.0,0.0,0.0,0.0,0.0,0.0,0.0,0.0,0.0,0.0,0.0,0.0,0.0,0.0,0.0,0.0,0.0,0.0,0.0,0.0,0.0,0.0,0.0,0.0,0.0,0.0,1.55,1.6067,1.6078,1.6597,1.7801,1.8704,0.0,0.0,0.0,0.0,0.0,0.0,0.0,0.0,0.0,0.0,0.0,0.0,0.0,0.0,0.0,0.0,0.0,0.0,0.0,0.0,0.0,0.0,0.0,0.0,0.0,0.0,0.0,0.0,0.0,0.0,0.0,0.0,0.0,0.0,0.0,0.0,0.0,0.0,0.0,0.0,0.0,0.0,0.0,0.0,0.0,0.0,0.0,0.0,0.0,0.0,0.0,0.0,0.0,0.0,0.0,0.0,0.0,0.0,0.0,0.0,0.0,0.0,0.0,0.0,0.0,0.0,0.0,0.0,0.0,0.0,0.0,0.0,0.0,0.0,0.0,0.0,0.0,0.0,0.0,0.0,0.0,0.0,0.0,0.0,0.0,0.0,0.0,0.0,0.0,0.0,0.0,0.0,0.0,0.0,0.0,0.0,0.0,0.0,0.0,0.0,0.0,0.0,0.0,0.0,0.0,0.0,0.0,0.0,0.0,1.5306,1.5477,1.6277,1.6676,1.6435,1.8399,0.0,0.0,0.0,0.0,0.0,0.0,0.0,0.0,0.0,0.0,0.0,0.0,0.0,0.0,0.0,0.0,0.0,0.0,0.0,0.0,0.0,0.0,0.0,0.0,0.0,0.0,0.0,0.0,0.0,0.0,0.0,0.0,0.0,0.0,0.0,0.0,0.0,0.0,0.0,0.0,0.0,0.0,0.0,0.0,0.0,0.0,0.0,0.0,0.0,0.0,0.0,0.0,0.0,0.0,0.0,0.0,0.0,0.0,0.0,0.0,0.0,0.0,0.0,0.0,0.0,0.0,0.0,0.0,0.0,0.0,0.0,0.0,0.0,0.0,0.0,0.0,0.0,0.0,0.0,0.0,0.0,0.0,0.0,0.0,0.0,0.0,0.0,0.0,0.0,0.0,0.0,0.0,0.0,0.0,0.0,0.0,0.0,0.0,0.0,0.0,0.0,0.0,0.0,0.0,0.0,0.0,0.0,0.0,0.0,1.532,1.5393,1.5615,1.5931,1.6435,1.7424,0.0,0.0,0.0,0.0,0.0,0.0,0.0,0.0,0.0,0.0,0.0,0.0,0.0,0.0,0.0,0.0,0.0,0.0,0.0,0.0,0.0,0.0,0.0,0.0,0.0,0.0,0.0,0.0,0.0,0.0,0.0,0.0,0.0,0.0,0.0,0.0,0.0,0.0,0.0,0.0,0.0,0.0,0.0,0.0,0.0,0.0,0.0,0.0,0.0,0.0,0.0,0.0,0.0,0.0,0.0,0.0,0.0,0.0,0.0,0.0,0.0,0.0,0.0,0.0,0.0,0.0,0.0,0.0,0.0,0.0,0.0,0.0,0.0,0.0,0.0,0.0,0.0,0.0,0.0,0.0,0.0,0.0,0.0,0.0,0.0,0.0,0.0,0.0,0.0,0.0,0.0,0.0,0.0,0.0,0.0,0.0,0.0,0.0,0.0,0.0,0.0,0.0,0.0,0.0,0.0,0.0,0.0,0.0,0.0,1.5323,1.5387,1.5413,1.5697,1.6337,1.7498,0.0,0.0,0.0,0.0,0.0,0.0,0.0,0.0,0.0,0.0,0.0,0.0,0.0,0.0,0.0,0.0,0.0,0.0,0.0,0.0,0.0,0.0,0.0,0.0,0.0,0.0,0.0,0.0,0.0,0.0,0.0,0.0,0.0,0.0,0.0,0.0,0.0,0.0,0.0,0.0,0.0,0.0,0.0,0.0,0.0,0.0,0.0,0.0,0.0,0.0,0.0,0.0,0.0,0.0,0.0,0.0,0.0,0.0,0.0,0.0,0.0,0.0,0.0,0.0,0.0,0.0,0.0,0.0,0.0,0.0,0.0,0.0,0.0,0.0,0.0,0.0,0.0,0.0,0.0,0.0,0.0,0.0,0.0,0.0,0.0,0.0,0.0,0.0,0.0,0.0,0.0,0.0,0.0,0.0,0.0,0.0,0.0,0.0,0.0,0.0,0.0,0.0,0.0,0.0,0.0,0.0,0.0,0.0,1.5037,1.5051,1.496,1.5218,1.5498,1.5757,1.7818,0.0,0.0,0.0,0.0,0.0,0.0,0.0,0.0,0.0,0.0,0.0,0.0,0.0,0.0,0.0,0.0,0.0,0.0,0.0,0.0,0.0,0.0,0.0,0.0,0.0,0.0,0.0,0.0,0.0,0.0,0.0,0.0,0.0,0.0,0.0,0.0,0.0,0.0,0.0,0.0,0.0,0.0,0.0,0.0,0.0,0.0,0.0,0.0,0.0,0.0,0.0,0.0,0.0,0.0,0.0,0.0,0.0,0.0,0.0,0.0,0.0,0.0,0.0,0.0,0.0,0.0,0.0,0.0,0.0,0.0,0.0,0.0,0.0,0.0,0.0,0.0,0.0,0.0,0.0,0.0,0.0,0.0,0.0,0.0,0.0,0.0,0.0,0.0,0.0,0.0,0.0,0.0,0.0,0.0,0.0,0.0,0.0,0.0,0.0,0.0,0.0,0.0,0.0,0.0,0.0,0.0,0.0,1.4081,1.414,1.386,1.3264,1.457,1.4869,1.408,1.7795,0.0,0.0,0.0,0.0,0.0,0.0,0.0,0.0,0.0,0.0,0.0,0.0,0.0,0.0,0.0,0.0,0.0,0.0,0.0,0.0,0.0,0.0,0.0,0.0,0.0,0.0,0.0,0.0,0.0,0.0,0.0,0.0,0.0,0.0,0.0,0.0,0.0,0.0,0.0,0.0,0.0,0.0,0.0,0.0,0.0,0.0,0.0,0.0,0.0,0.0,0.0,0.0,0.0,0.0,0.0,0.0,0.0,0.0,0.0,0.0,0.0,0.0,0.0,0.0,0.0,0.0,0.0,0.0,0.0,0.0,0.0,0.0,0.0,0.0,0.0,0.0,0.0,0.0,0.0,0.0,0.0,0.0,0.0,0.0,0.0,0.0,0.0,0.0,0.0,0.0,0.0,0.0,0.0,0.0,0.0,0.0,0.0,0.0,0.0,0.0,0.0,0.0,0.0,0.0,0.0,0.0,1.4051,1.3288,1.3295,1.3182,1.2807,1.3153,1.3775,1.4787,1.8491,0.0,0.0,0.0,0.0,0.0,0.0,0.0,0.0,0.0,0.0,0.0,0.0,0.0,0.0,0.0,0.0,0.0,0.0,0.0,0.0,0.0,0.0,0.0,0.0,0.0,0.0,0.0,0.0,0.0,0.0,0.0,0.0,0.0,0.0,0.0,0.0,0.0,0.0,0.0,0.0,0.0,0.0,0.0,0.0,0.0,0.0,0.0,0.0,0.0,0.0,0.0,0.0,0.0,0.0,0.0,0.0,0.0,0.0,0.0,0.0,0.0,0.0,0.0,0.0,0.0,0.0,0.0,0.0,0.0,0.0,0.0,0.0,0.0,0.0,0.0,0.0,0.0,0.0,0.0,0.0,0.0,0.0,0.0,0.0,0.0,0.0,0.0,0.0,0.0,0.0,0.0,0.0,0.0,0.0,0.0,0.0,0.0,0.0,0.0,0.0,0.0,0.0,0.0,0.0,0.0,0.0,1.3462,1.2989,1.2672,1.2574,1.2734,1.2416,1.3518,1.6398,0.0,0.0,0.0,0.0,0.0,0.0,0.0,0.0,0.0,0.0,0.0,0.0,0.0,0.0,0.0,0.0,0.0,0.0,0.0,0.0,0.0,0.0,0.0,0.0,0.0,0.0,0.0,0.0,0.0,0.0,0.0,0.0,0.0,0.0,0.0,0.0,0.0,0.0,0.0,0.0,0.0,0.0,0.0,0.0,0.0,0.0,0.0,0.0,0.0,0.0,0.0,0.0,0.0,0.0,0.0,0.0,0.0,0.0,0.0,0.0,0.0,0.0,0.0,0.0,0.0,0.0,0.0,0.0,0.0,0.0,0.0,0.0,0.0,0.0,0.0,0.0,0.0,0.0,0.0,0.0,0.0,0.0,0.0,0.0,0.0,0.0,0.0,0.0,0.0,0.0,0.0,0.0,0.0,0.0,0.0,0.0,0.0,0.0,0.0,0.0,0.0,0.0,0.0,0.0,0.0,0.0,0.0,1.3121,1.3691,1.2377,1.1952,1.2705,1.3343,1.5304,1.8551,0.0,0.0,0.0,0.0,0.0,0.0,0.0,0.0,0.0,0.0,0.0,0.0,0.0,0.0,0.0,0.0,0.0,0.0,0.0,0.0,0.0,0.0,0.0,0.0,0.0,0.0,0.0,0.0,0.0,0.0,0.0,0.0,0.0,0.0,0.0,0.0,0.0,0.0,0.0,0.0,0.0,0.0,0.0,0.0,0.0,0.0,0.0,0.0,0.0,0.0,0.0,0.0,0.0,0.0,0.0,0.0,0.0,0.0,0.0,0.0,0.0,0.0,0.0,0.0,0.0,0.0,0.0,0.0,0.0,0.0,0.0,0.0,0.0,0.0,0.0,0.0,0.0,0.0,0.0,0.0,0.0,0.0,0.0,0.0,0.0,0.0,0.0,0.0,0.0,0.0,0.0,0.0,0.0,0.0,0.0,0.0,0.0,0.0,0.0,0.0,0.0,0.0,0.0,0.0,0.0,0.0,1.2357,1.1949,1.1828,1.2108,1.2398,1.2702,1.4574,1.6441,1.8232,0.0,0.0,0.0,0.0,0.0,0.0,0.0,0.0,0.0,0.0,0.0,0.0,0.0,0.0,0.0,0.0,0.0,0.0,0.0,0.0,0.0,0.0,0.0,0.0,0.0,0.0,0.0,0.0,0.0,0.0,0.0,0.0,0.0,0.0,0.0,0.0,0.0,0.0,0.0,0.0,0.0,0.0,0.0,0.0,0.0,0.0,0.0,0.0,0.0,0.0,0.0,0.0,0.0,0.0,0.0,0.0,0.0,0.0,0.0,0.0,0.0,0.0,0.0,0.0,0.0,0.0,0.0,0.0,0.0,0.0,0.0,0.0,0.0,0.0,0.0,0.0,0.0,0.0,0.0,0.0,0.0,0.0,0.0,0.0,0.0,0.0,0.0,0.0,0.0,0.0,0.0,0.0,0.0,0.0,0.0,0.0,0.0,0.0,0.0,0.0,0.0,0.0,0.0,0.0,0.0,1.1221,1.1137,1.1314,1.1718,1.244,1.3086,1.3677,1.5325,1.6605,1.7392,0.0,0.0,0.0,0.0,0.0,0.0,0.0,0.0,0.0,0.0,0.0,0.0,0.0,0.0,0.0,0.0,0.0,0.0,0.0,0.0,0.0,0.0,0.0,0.0,0.0,0.0,0.0,0.0,0.0,0.0,0.0,0.0,0.0,0.0,0.0,0.0,0.0,0.0,0.0,0.0,0.0,0.0,0.0,0.0,0.0,0.0,0.0,0.0,0.0,0.0,0.0,0.0,0.0,0.0,0.0,0.0,0.0,0.0,0.0,0.0,0.0,0.0,0.0,0.0,0.0,0.0,0.0,0.0,0.0,0.0,0.0,0.0,0.0,0.0,0.0,0.0,0.0,0.0,0.0,0.0,0.0,0.0,0.0,0.0,0.0,0.0,0.0,0.0,0.0,0.0,0.0,0.0,0.0,0.0,0.0,0.0,0.0,0.0,0.0,0.0,0.0,0.0,0.0,0.0,0.0,0.0,1.0285,1.1833,1.4769,1.3549,1.3801,1.5771,1.5375,1.5566,1.6537,0.0,0.0,0.0,0.0,0.0,0.0,0.0,0.0,0.0,0.0,0.0,0.0,0.0,0.0,0.0,0.0,0.0,0.0,0.0,0.0,0.0,0.0,0.0,0.0,0.0,0.0,0.0,0.0,0.0,0.0,0.0,0.0,0.0,0.0,0.0,0.0,0.0,0.0,0.0,0.0,0.0,0.0,0.0,0.0,0.0,0.0,0.0,0.0,0.0,0.0,0.0,0.0,0.0,0.0,0.0,0.0,0.0,0.0,0.0,0.0,0.0,0.0,0.0,0.0,0.0,0.0,0.0,0.0,0.0,0.0,0.0,0.0,0.0,0.0,0.0,0.0,0.0,0.0,0.0,0.0,0.0,0.0,0.0,0.0,0.0,0.0,0.0,0.0,0.0,0.0,0.0,0.0,0.0,0.0,0.0,0.0,0.0,0.0,0.0,0.0,0.0,0.0,0.0,0.0,0.0,0.0,0.9266,1.0326,1.105,1.1557,1.3005,1.5331,1.5309,1.5723,1.6641,0.0,0.0,0.0,0.0,0.0,0.0,0.0,0.0,0.0,0.0,0.0,0.0,0.0,0.0,0.0,0.0,0.0,0.0,0.0,0.0,0.0,0.0,0.0,0.0,0.0,0.0,0.0,0.0,0.0,0.0,0.0,0.0,0.0,0.0,0.0,0.0,0.0,0.0,0.0,0.0,0.0,0.0,0.0,0.0,0.0,0.0,0.0,0.0,0.0,0.0,0.0,0.0,0.0,0.0,0.0,0.0,0.0,0.0,0.0,0.0,0.0,0.0,0.0,0.0,0.0,0.0,0.0,0.0,0.0,0.0,0.0,0.0,0.0,0.0,0.0,0.0,0.0,0.0,0.0,0.0,0.0,0.0,0.0,0.0,0.0,0.0,0.0,0.0,0.0,0.0,0.0,0.0,0.0,0.0,0.0,0.0,0.0,0.0,0.0,0.0,0.0,0.0,0.0,0.0,0.0,0.0,0.8204,0.9355,0.9996,1.1661,1.3297,1.4844,1.5093,1.5231,0.0,0.0,0.0,0.0,0.0,0.0,0.0,0.0,0.0,0.0,0.0,0.0,0.0,0.0,0.0,0.0,0.0,0.0,0.0,0.0,0.0,0.0,0.0,0.0,0.0,0.0,0.0,0.0,0.0,0.0,0.0,0.0,0.0,0.0,0.0,0.0,0.0,0.0,0.0,0.0,0.0,0.0,0.0,0.0,0.0,0.0,0.0,0.0,0.0,0.0,0.0,0.0,0.0,0.0,0.0,0.0,0.0,0.0,0.0,0.0,0.0,0.0,0.0,0.0,0.0,0.0,0.0,0.0,0.0,0.0,0.0,0.0,0.0,0.0,0.0,0.0,0.0,0.0,0.0,0.0,0.0,0.0,0.0,0.0,0.0,0.0,0.0,0.0,0.0,0.0,0.0,0.0,0.0,0.0,0.0,0.0,0.0,0.0,0.0,0.0,0.0,0.0,0.0,0.0,0.0,0.0,0.0,0.7109,0.8996,1.2491,1.4126,1.4786,1.4624,1.4585,1.3944,0.0,0.0,0.0,0.0,0.0,0.0,0.0,0.0,0.0,0.0,0.0,0.0,0.0,0.0,0.0,0.0,0.0,0.0,0.0,0.0,0.0,0.0,0.0,0.0,0.0,0.0,0.0,0.0,0.0,0.0,0.0,0.0,0.0,0.0,0.0,0.0,0.0,0.0,0.0,0.0,0.0,0.0,0.0,0.0,0.0,0.0,0.0,0.0,0.0,0.0,0.0,0.0,0.0,0.0,0.0,0.0,0.0,0.0,0.0,0.0,0.0,0.0,0.0,0.0,0.0,0.0,0.0,0.0,0.0,0.0,0.0,0.0,0.0,0.0,0.0,0.0,0.0,0.0,0.0,0.0,0.0,0.0,0.0,0.0,0.0,0.0,0.0,0.0,0.0,0.0,0.0,0.0,0.0,0.0,0.0,0.0,0.0,0.0,0.0,0.0,0.0,0.0,0.0,0.0,0.0,0.0,0.0,1.0198,1.1363,1.0949,1.2999,1.4221,1.4551,1.4289,1.4688,1.5795,0.0,0.0,0.0,0.0,0.0,0.0,0.0,0.0,0.0,0.0,0.0,0.0,0.0,0.0,0.0,0.0,0.0,0.0,0.0,0.0,0.0,0.0,0.0,0.0,0.0,0.0,0.0,0.0,0.0,0.0,0.0,0.0,0.0,0.0,0.0,0.0,0.0,0.0,0.0,0.0,0.0,0.0,0.0,0.0,0.0,0.0,0.0,0.0,0.0,0.0,0.0,0.0,0.0,0.0,0.0,0.0,0.0,0.0,0.0,0.0,0.0,0.0,0.0,0.0,0.0,0.0,0.0,0.0,0.0,0.0,0.0,0.0,0.0,0.0,0.0,0.0,0.0,0.0,0.0,0.0,0.0,0.0,0.0,0.0,0.0,0.0,0.0,0.0,0.0,0.0,0.0,0.0,0.0,0.0,0.0,0.0,0.0,0.0,0.0,0.0,0.0,0.0,0.0,0.0,0.0,0.0,1.3655,1.5157,1.3756,1.4764,1.5506,1.5827,1.5447,1.5733,1.6774,0.0,0.0,0.0,0.0,0.0,0.0,0.0,0.0,0.0,0.0,0.0,0.0,0.0,0.0,0.0,0.0,0.0,0.0,0.0,0.0,0.0,0.0,0.0,0.0,0.0,0.0,0.0,0.0,0.0,0.0,0.0,0.0,0.0,0.0,0.0,0.0,0.0,0.0,0.0,0.0,0.0,0.0,0.0,0.0,0.0,0.0,0.0,0.0,0.0,0.0,0.0,0.0,0.0,0.0,0.0,0.0,0.0,0.0,0.0,0.0,0.0,0.0,0.0,0.0,0.0,0.0,0.0,0.0,0.0,0.0,0.0,0.0,0.0,0.0,0.0,0.0,0.0,0.0,0.0,0.0,0.0,0.0,0.0,0.0,0.0,0.0,0.0,0.0,0.0,0.0,0.0,0.0,0.0,0.0,0.0,0.0,0.0,0.0,0.0,0.0,0.0,0.0,0.0,0.0,0.0,0.0,0.0,1.9761,1.9861,1.9142,1.8569,1.8197,1.7804,1.7134,1.6107,0.0,0.0,0.0,0.0,0.0,0.0,0.0,0.0,0.0,0.0,0.0,0.0,0.0,0.0,0.0,0.0,0.0,0.0,0.0,0.0,0.0,0.0,0.0,0.0,0.0,0.0,0.0,0.0,0.0,0.0,0.0,0.0,0.0,0.0,0.0,0.0,0.0,0.0,0.0,0.0,0.0,0.0,0.0,0.0,0.0,0.0,0.0,0.0,0.0,0.0,0.0,0.0,0.0,0.0,0.0,0.0,0.0,0.0,0.0,0.0,0.0,0.0,0.0,0.0,0.0,0.0,0.0,0.0,0.0,0.0,0.0,0.0,0.0,0.0,0.0,0.0,0.0,0.0,0.0,0.0,0.0,0.0,0.0,0.0,0.0,0.0,0.0,0.0,0.0,0.0,0.0,0.0,0.0,0.0,0.0,0.0,0.0,0.0,0.0,0.0,0.0,0.0,0.0,0.0,0.0,0.0,1.7744,2.0532,2.2884,2.3033,2.2504,2.1361,1.9814,1.9133,1.937,0.0,0.0,0.0,0.0,0.0,0.0,0.0,0.0,0.0,0.0,0.0,0.0,0.0,0.0,0.0,0.0,0.0,0.0,0.0,0.0,0.0,0.0,0.0,0.0,0.0,0.0,0.0,0.0,0.0,0.0,0.0,0.0,0.0,0.0,0.0,0.0,0.0,0.0,0.0,0.0,0.0,0.0,0.0,0.0,0.0,0.0,0.0,0.0,0.0,0.0,0.0,0.0,0.0,0.0,0.0,0.0,0.0,0.0,0.0,0.0,0.0,0.0,0.0,0.0,0.0,0.0,0.0,0.0,0.0,0.0,0.0,0.0,0.0,0.0,0.0,0.0,0.0,0.0,0.0,0.0,0.0,0.0,0.0,0.0,0.0,0.0,0.0,0.0,0.0,0.0,0.0,0.0,0.0,0.0,0.0,0.0,0.0,0.0,0.0,0.0,0.0,0.0,0.0,0.0,0.0,0.0,1.9994,2.2912,2.581,2.6633,2.6532,2.5552,2.3271,2.1803,2.1287,0.0,0.0,0.0,0.0,0.0,0.0,0.0,0.0,0.0,0.0,0.0,0.0,0.0,0.0,0.0,0.0,0.0,0.0,0.0,0.0,0.0,0.0,0.0,0.0,0.0,0.0,0.0,0.0,0.0,0.0,0.0,0.0,0.0,0.0,0.0,0.0,0.0,0.0,0.0,0.0,0.0,0.0,0.0,0.0,0.0,0.0,0.0,0.0,2.7469,0.0,0.0,0.0,0.0,0.0,0.0,0.0,0.0,0.0,0.0,0.0,0.0,0.0,0.0,0.0,0.0,0.0,0.0,0.0,0.0,0.0,0.0,0.0,0.0,0.0,0.0,0.0,0.0,0.0,0.0,0.0,0.0,0.0,0.0,0.0,0.0,0.0,0.0,0.0,0.0,0.0,0.0,0.0,0.0,0.0,0.0,0.0,0.0,0.0,0.0,0.0,0.0,0.0,0.0,0.0,1.4983,1.8977,2.2877,2.5973,2.8246,2.9615,3.0127,2.9669,2.7277,2.484,2.2387,0.0,0.0,0.0,0.0,0.0,0.0,0.0,0.0,0.0,0.0,0.0,0.0,0.0,0.0,0.0,0.0,0.0,0.0,0.0,0.0,0.0,0.0,0.0,0.0,0.0,0.0,0.0,0.0,0.0,0.0,0.0,0.0,0.0,0.0,0.0,0.0,0.0,0.0,0.0,0.0,0.0,0.0,0.0,0.0,0.0,0.0,0.0,2.7029,2.7775,0.0,0.0,0.0,0.0,0.0,0.0,0.0,0.0,0.0,0.0,0.0,0.0,0.0,0.0,0.0,0.0,0.0,0.0,0.0,0.0,0.0,0.0,0.0,0.0,0.0,0.0,0.0,0.0,0.0,0.4752,0.0,0.0,0.0,0.0,0.0,0.0,0.0,0.0,0.0,0.0,0.0,0.0,0.0,0.0,0.0,0.0,0.0,0.0,0.0,0.0,0.0,0.0,0.0,0.0,1.405,1.7301,2.3002,2.5097,2.6936,2.8847,3.0364,3.117,3.1143,2.9419,2.7183,2.4379,0.0,0.0,0.0,0.0,0.0,0.0,0.0,0.0,0.0,0.0,0.0,0.0,0.0,0.0,0.0,0.0,0.0,0.0,0.0,0.0,0.0,0.0,0.0,0.0,0.0,0.0,0.0,0.0,0.0,0.0,0.0,0.0,0.0,0.0,0.0,0.0,0.0,0.0,0.0,0.0,0.0,0.0,0.0,0.0,0.0,0.0,0.0,3.0664,0.0,0.0,0.0,0.0,0.0,0.0,0.0,0.0,0.0,0.0,0.0,0.0,0.0,0.0,0.0,0.0,0.0,0.0,0.0,0.0,0.0,0.0,0.0,0.0,0.0,0.0,0.0,0.0,0.0,0.1484,0.3905,0.0,0.0,0.0,0.0,0.0,0.0,0.0,0.0,0.0,0.0,0.0,0.0,0.0,0.0,0.0,0.0,0.0,0.0,0.0,0.0,0.0,0.0,0.0,1.3829,1.5353,1.8699,2.3761,2.6153,2.8281,3.041,3.2121,3.2924,3.2731,3.2097,2.9764,2.561,0.0,0.0,0.0,0.0,0.0,0.0,0.0,0.0,0.0,0.0,0.0,0.0,0.0,0.0,0.0,0.0,0.0,0.0,0.0,0.0,0.0,0.0,0.0,0.0,0.0,0.0,0.0,0.0,0.0,0.0,0.0,0.0,0.0,0.0,0.0,0.0,0.0,1.9878,2.5,0.0,0.0,0.0,0.0,0.0,0.0,0.0,0.0,3.0098,3.1897,0.0,0.0,0.0,0.0,0.0,0.0,0.0,0.0,0.0,0.0,0.0,0.0,0.0,0.0,0.0,0.0,0.0,0.0,0.0,0.0,0.0,0.0,0.0,0.0,0.0,0.0,0.0,0.0,0.0967,0.2665,0.0,0.0,0.0,0.0,0.0,0.0,0.0,0.0,0.0,0.0,0.0,0.0,0.0,0.0,0.0,0.0,0.0,0.0,0.0,0.0,0.0,0.0,0.0,1.3635,1.6089,1.9579,2.3945,2.6902,2.9627,3.2194,3.4075,3.4836,3.4467,3.463,3.2176,2.6801,0.0,0.0,0.0,0.0,0.0,0.0,0.0,0.0,0.0,0.0,0.0,0.0,0.0,0.0,0.0,0.0,0.0,0.0,0.0,0.0,0.0,0.0,0.0,0.0,0.0,0.0,0.0,0.0,0.0,0.0,0.0,0.0,0.0,0.0,0.0,0.0,0.0,2.2343,2.6357,3.2089,3.6175,0.0,0.0,0.0,0.0,0.0,0.0,0.0,3.0879,3.2542,3.4367,0.0,0.0,0.0,0.0,0.0,0.0,0.0,0.0,0.0,0.0,0.0,0.0,0.0,0.0,0.0,0.0,0.0,0.0,0.0,0.0,0.0,0.0,0.0,0.0,0.0,0.0,0.0948,0.2611,0.0,0.0,0.0,0.0,0.0,0.0,0.0,0.0,0.0,0.0,0.0,0.0,0.0,0.0,0.0,0.0,0.0,0.0,0.0,0.0,0.0,0.0,0.0,0.0,1.6706,2.0152,2.7063,2.8182,3.0245,3.3354,3.5173,3.6202,3.6479,3.6038,3.3492,2.8744,2.4398,0.0,0.0,0.0,0.0,0.0,0.0,0.0,0.0,0.0,0.0,0.0,0.0,0.0,0.0,0.0,0.0,0.0,0.0,0.0,0.0,0.0,0.0,0.0,0.0,0.0,0.0,0.0,0.0,0.0,0.0,0.0,0.0,0.0,0.0,0.0,0.0,2.4987,3.1247,3.534,3.7974,3.8608,0.0,0.0,0.0,0.0,0.0,3.6845,3.3179,3.1444,3.6332,3.3793,0.0,0.0,0.0,0.0,0.0,0.0,0.0,0.0,0.0,0.0,0.0,0.0,0.0,0.0,0.0,0.0,0.0,0.0,0.0,0.0,0.0,0.0,0.0,0.0,0.0948,0.1716,0.261,0.4434,0.5404,0.0,0.0,0.0,0.0,0.8083,0.0,0.0,0.0,0.0,0.0,0.0,0.0,0.0,0.0,0.0,0.0,0.0,0.0,0.0,0.0,0.0,0.0,1.798,2.1389,2.6668,2.917,3.1597,3.4146,3.5757,3.6674,3.6951,3.4848,3.2021,2.8544,0.0,0.0,0.0,0.0,0.0,0.0,0.0,0.0,0.0,0.0,0.0,0.0,0.0,0.0,0.0,0.0,0.0,0.0,0.0,0.0,0.0,0.0,0.0,0.0,0.0,0.0,0.0,0.0,0.0,0.0,0.0,0.0,0.0,0.0,0.0,0.0,0.0,0.0,3.2756,3.6052,3.8646,4.0175,3.8966,3.7365,3.5682,3.3215,3.2963,3.738,3.5068,3.3904,3.7382,0.0,0.0,0.0,0.0,0.0,0.0,0.0,0.0,0.0,0.0,0.0,0.0,0.0,0.0,0.0,0.0,0.0,0.0,0.0,0.0,0.0,0.0,0.0,0.0,0.0,0.0,0.3711,0.3318,0.5238,0.6007,0.5942,0.0,0.0,0.0,0.8705,0.9844,0.0,0.0,0.0,0.0,0.0,0.0,0.0,0.0,0.0,0.0,0.0,0.0,0.0,0.0,0.0,0.0,1.8926,2.2338,2.6201,2.9822,3.2821,3.4994,3.6358,3.7104,3.7057,3.3984,3.0923,2.7978,0.0,0.0,0.0,0.0,0.0,0.0,0.0,0.0,0.0,0.0,0.0,0.0,0.0,0.0,0.0,0.0,0.0,0.0,0.0,0.0,0.0,0.0,0.0,0.0,0.0,0.0,0.0,0.0,0.0,0.0,0.0,0.0,0.0,0.0,0.0,0.0,0.0,0.0,0.0,3.583,3.8645,4.0475,3.966,3.8675,3.8141,3.6024,3.5259,3.7691,3.7342,3.7261,0.0,0.0,0.0,0.0,0.0,0.0,0.0,0.0,0.0,0.0,0.0,0.0,0.0,0.0,0.0,0.0,0.0,0.0,0.0,0.0,0.0,0.0,0.0739,0.2705,0.0,0.0,0.7663,0.7851,0.601,0.6704,0.715,0.7195,0.7737,0.8218,0.0,0.9353,1.0232,1.1066,0.0,0.0,0.0,0.0,0.0,0.0,0.0,0.0,0.0,0.0,0.0,0.0,0.0,0.0,0.0,0.0,2.1932,2.7204,3.0039,3.2995,3.613,3.7354,3.781,3.7537,3.5922,3.287,2.8297,0.0,0.0,0.0,0.0,0.0,0.0,0.0,0.0,0.0,0.0,0.0,0.0,0.0,0.0,0.0,0.0,0.0,0.0,0.0,0.0,0.0,0.0,0.0,0.0,0.0,0.2422,0.0,0.0,0.0,0.0,0.0,0.0,0.0,0.0,0.0,0.0,0.0,0.0,0.0,0.0,3.7939,3.7982,3.909,3.9837,3.9689,3.9974,4.0946,4.2994,4.1103,3.9904,0.0,0.0,0.0,0.0,0.0,0.0,0.0,0.0,0.0,0.0,0.0,0.0,0.0,0.0,0.0,0.0,0.0,0.0,0.0,0.0,0.0,0.0,0.2319,0.3465,0.4116,0.4552,0.6734,0.7098,0.6405,0.7515,0.7989,0.7978,0.8764,0.9143,0.9263,0.9802,1.0513,1.1225,0.0,0.0,0.0,0.0,0.0,0.0,0.0,0.0,0.0,0.0,0.0,0.0,1.4354,1.5513,1.7394,2.0036,2.3625,2.8174,3.1524,3.4304,3.6485,3.7834,3.8248,3.7715,3.4594,3.1278,0.0,0.0,0.0,0.0,0.0,0.0,0.0,0.0,0.0,0.0,0.0,0.0,0.0,0.0,0.0,0.0,0.0,0.0,0.0,0.0,0.0,0.0,0.0,0.0,0.0,0.0,0.199,0.667,0.0,0.0,0.0,0.0,0.0,0.0,0.0,0.0,0.0,0.0,0.0,0.0,0.0,3.7427,3.8765,4.0053,4.138,4.2824,4.3381,4.4311,4.618,4.4601,4.3075,0.0,0.0,0.0,0.0,0.0,0.0,0.0,0.0,0.0,0.0,0.0,0.0,0.0,0.0,0.0,0.0,0.0,0.0,0.4392,0.4253,0.4112,0.4044,0.4013,0.3829,0.4031,0.4503,0.5741,0.6373,0.6699,0.8186,0.8779,0.8806,0.9641,0.9935,0.9783,1.0339,1.09,1.1466,1.1841,0.0,0.0,0.0,0.0,0.0,0.0,0.0,0.0,0.0,0.0,1.4029,1.4724,1.6043,1.7978,2.1408,2.5183,2.9062,3.2788,3.5279,3.6608,3.7812,3.8022,3.7108,3.3307,3.0014,0.0,0.0,0.0,0.0,0.0,0.0,0.0,0.0,0.0,0.0,0.0,0.0,0.0,0.0,0.0,0.0,0.0,0.0,0.0,0.0,0.0,0.0,0.0,0.0,0.0818,0.1767,0.4091,0.7758,0.9921,0.0,1.689,0.0,0.0,0.0,0.0,0.0,0.0,0.0,0.0,0.0,0.0,3.769,4.0053,4.1769,4.3671,4.6051,4.6877,4.7765,4.9293,4.8545,4.6855,0.0,0.0,0.0,0.0,0.0,0.0,0.0,0.0,0.0,0.0,0.0,0.0,0.0,0.0,0.0,0.0,0.0,0.0,0.4457,0.4453,0.4318,0.4314,0.4244,0.2923,0.3223,0.4686,0.6806,0.7625,0.7614,0.8925,0.9676,0.9869,1.0269,1.042,1.0527,1.1151,1.1611,1.188,1.2148,0.0,0.0,0.0,0.0,0.0,0.0,0.0,0.0,0.0,0.0,1.4137,1.4848,1.6176,1.796,2.1677,2.5678,2.9971,3.3156,3.5421,3.6659,3.7202,3.6838,3.5407,3.3264,3.0636,0.0,0.0,0.0,0.0,0.0,0.0,0.0,0.0,0.0,0.0,0.0,0.0,0.0,0.0,0.0,0.0,0.0,0.0,0.0,0.0,0.0,0.0,0.0,0.0,0.2765,0.6672,0.9542,0.981,1.1899,1.4176,1.6273,0.0,0.0,0.0,0.0,0.0,0.0,0.0,0.0,0.0,0.0,3.9099,4.095,4.4334,4.7271,4.9036,5.0808,5.2215,5.302,5.3238,5.1366,4.5581,4.1046,3.7859,0.0,0.0,0.0,0.0,0.0,0.0,0.0,0.0,0.0,0.0,0.0,0.0,0.0,0.0,0.0,0.5689,0.6022,0.4834,0.4382,0.4428,0.4286,0.471,0.5684,0.7519,0.8299,0.842,0.9945,1.0591,1.0578,1.1393,1.1754,1.1824,1.2458,1.307,1.3641,1.4278,0.0,0.0,0.0,0.0,0.0,0.0,0.0,0.0,0.0,0.0,1.4093,1.5575,1.7223,1.9001,2.2441,2.66,3.1393,3.4017,3.5912,3.7071,3.7978,3.7502,3.5553,3.3932,3.1097,2.6906,0.0,0.0,0.0,0.0,0.0,0.0,0.0,0.0,0.0,0.0,0.0,0.0,0.0,0.0,0.0,0.0,0.0,0.0,0.0,0.0,0.0,0.0,0.0,0.0,1.216,1.5106,1.4166,1.5399,1.6705,1.7777,1.9466,0.0,0.0,0.0,0.0,0.0,0.0,0.0,3.6175,0.0,4.0107,4.2017,4.542,4.8237,4.9487,5.0516,5.2104,5.4694,5.6069,5.5178,5.041,4.2416,3.6792,3.714,0.0,0.0,0.0,0.0,0.0,0.0,0.0,0.0,0.0,0.0,0.0,0.0,0.0,0.0,0.7121,0.7458,0.6212,0.569,0.5736,0.6144,0.6441,0.6814,0.8135,0.9083,0.9798,1.1212,1.1917,1.2087,1.2799,1.313,1.3148,1.3643,1.4304,1.5143,1.6436,1.6656,0.0,0.0,0.0,0.0,0.0,0.0,0.0,0.0,0.0,1.447,1.6414,1.8473,2.0451,2.3759,2.7863,3.2734,3.5027,3.6462,3.7,3.8178,3.7828,3.5814,3.4375,3.1697,2.7685,0.0,0.0,0.0,0.0,0.6276,0.0,0.0,0.0,0.0,0.0,0.0,0.0,0.0,0.0,0.0,0.0,0.0,0.0,0.0,0.0,0.0,0.0,0.0,0.0,0.0,1.756,1.6216,1.7213,1.8076,1.8201,2.0307,2.1745,2.1852,0.0,0.0,0.0,0.0,0.0,0.0,3.9646,4.0483,4.2677,4.5664,4.7795,4.8289,4.9135,5.0474,5.2667,5.6549,5.7071,5.0422,4.2479,3.7306,3.7827,3.6241,3.4439,3.3131,3.1563,3.0003,2.8406,0.0,0.0,0.0,0.0,0.0,0.0,0.0,0.0,0.8662,0.8742,0.8544,0.8387,0.8366,0.821,0.8164,0.822,0.8902,1.0245,1.1974,1.2731,1.3657,1.4583,1.4431,1.4366,1.4354,1.4645,1.5188,1.6172,1.8449,1.902,1.8128,1.8217,1.8476,1.8415,1.6016,1.4838,1.5061,1.5812,1.5858,1.5473,1.7391,1.9795,2.2361,2.5665,2.9541,3.3794,3.6167,3.7022,3.6417,3.7525,3.7428,3.5943,3.4463,3.2584,3.0155,0.0,0.0,0.0,0.0,0.7235,0.0,0.0,0.0,0.0,0.0,0.0,0.0,0.0,0.0,0.0,0.0,0.0,0.0,0.0,0.0,0.0,0.0,0.0,0.0,0.0,1.6009,1.4734,1.6664,1.7761,1.7003,1.9109,2.0615,0.0,0.0,0.0,0.0,0.0,3.2075,3.8747,3.9465,4.0155,4.2668,4.4812,4.5886,4.5369,4.6826,4.7566,4.628,5.4223,5.6604,4.422,4.1225,0.0,0.0,0.0,0.0,0.0,0.0,0.0,0.0,0.0,0.0,0.0,0.0,0.0,0.0,0.0,0.0,1.1344,1.162,0.9719,0.9675,1.0736,1.0414,1.0825,1.1785,1.2756,1.3504,1.4041,1.477,1.4993,1.4854,1.5364,1.5898,1.6513,1.8482,1.9578,2.0065,2.1533,2.162,2.0515,2.064,1.9887,1.8406,1.7435,1.6629,1.5987,1.6776,1.6423,1.5368,1.8233,2.0793,2.263,2.6707,3.0728,3.4455,3.6785,3.7816,3.7642,3.8124,3.7645,3.6127,3.5151,3.2523,2.8109,2.3108,0.0,0.0,1.0897,0.8359,0.0,0.0,0.0,0.0,0.0,0.0,0.0,0.0,0.0,0.0,0.0,0.0,0.0,0.0,0.0,0.0,0.0,0.0,0.0,0.0,1.5079,1.5233,1.6503,1.7275,1.7026,1.8408,1.9573,2.0156,2.2085,2.3593,2.4065,2.6798,3.023,3.4282,3.6141,3.7881,3.9874,4.1773,4.2762,4.2227,4.236,4.2942,4.4207,4.4502,4.4582,4.4713,4.0915,3.775,3.7567,3.5781,3.4008,3.2792,3.2682,3.2011,2.9684,2.8443,2.75,2.6661,2.6402,2.6581,2.7224,2.5042,2.2987,1.4309,1.4448,1.2483,1.23,1.3405,1.3354,1.3894,1.4884,1.5747,1.6431,1.7021,1.7339,1.7342,1.7064,1.7678,1.8456,1.9541,2.2195,2.3386,2.3389,2.4776,2.4527,2.2875,2.2775,2.1549,1.9383,1.8711,1.7631,1.6281,1.6857,1.6594,1.5531,1.8447,2.1401,2.4462,2.8295,3.2306,3.6334,3.8278,3.907,3.8832,3.8996,3.8345,3.6814,3.5507,3.2866,2.8686,2.5873,2.2955,0.0,1.5188,0.0,0.0,0.0,0.0,0.0,0.0,0.0,0.0,0.0,0.0,0.0,0.0,0.0,0.0,0.0,0.0,0.0,0.0,0.0,0.0,1.3834,1.4364,1.5624,1.6351,1.6764,1.6904,1.8515,1.9799,2.0306,2.2314,2.3868,2.4394,2.6623,2.8792,3.0529,3.2813,3.4967,3.6722,3.7997,3.8491,3.7581,3.7704,3.8246,3.9373,3.7131,3.6909,4.1738,3.8214,3.5034,3.5814,3.5035,3.3882,3.2782,3.2869,3.2392,3.0131,2.8798,2.7888,2.7507,2.6456,2.5964,2.7163,2.5227,2.3218,1.7686,1.7329,1.662,1.6349,1.6354,1.694,1.7264,1.7448,1.7669,1.8905,2.0628,2.0407,2.0626,2.1218,2.1195,2.1923,2.3275,2.5618,2.6344,2.5848,2.7789,2.7496,2.5025,2.4468,2.334,2.1592,1.9587,1.7645,1.5771,1.5991,1.6333,1.6678,1.8165,2.1861,2.7796,3.0585,3.432,3.9096,4.0426,4.0666,3.9845,4.0032,3.9362,3.7753,3.5629,3.3688,3.2007,3.0481,2.7719,2.3564,2.1615,0.0,0.0,0.0,0.0,0.0,0.0,0.0,0.0,0.0,0.0,0.0,0.0,0.0,0.0,0.0,0.0,0.0,0.0,0.0,1.5317,1.4106,1.3879,1.6025,1.6282,1.6483,1.7021,1.947,2.1157,2.0967,2.3331,2.4853,2.4442,2.6385,2.782,2.7869,2.9643,3.1564,3.3328,3.3709,3.3316,3.189,3.3267,3.3838,3.2119,3.2658,3.3736,3.5061,3.3295,3.2323,3.4066,3.4958,3.4686,3.2791,3.1847,3.1112,3.0534,2.9358,2.8709,2.9146,2.7588,2.6128,2.5369,2.4995,2.481,2.273,2.1075,1.9884,1.9657,2.011,2.0289,2.0946,2.1861,2.1663,2.2036,2.2768,2.2463,2.2398,2.2606,2.34,2.4597,2.6099,2.7717,2.8144,2.7546,2.8185,2.7298,2.5161,2.4516,2.2835,2.0221,1.9348,1.7672,1.5343,1.4941,1.5396,1.6635,1.997,2.4231,2.9192,3.356,3.6976,3.9488,4.0718,4.0906,4.0106,3.9652,3.864,3.6964,3.6378,3.5314,3.3751,3.3813,3.2298,2.8743,2.5749,0.0,1.7615,0.0,0.0,0.0,0.0,0.7906,0.8296,0.7726,0.0,0.0,0.0,0.3746,0.0,0.0,0.0,0.0,0.9457,1.1559,1.6645,1.6239,1.6069,1.7115,1.7165,1.8141,2.0649,2.1106,2.1612,2.2591,2.3373,2.4008,2.4387,2.617,2.7345,2.7013,2.8071,2.9301,3.0533,3.1068,3.1356,3.1442,3.2354,3.2803,3.2125,3.2343,3.2663,3.2657,3.2467,3.2627,3.3169,3.3418,3.3149,3.1851,3.1397,3.0779,2.9361,2.8536,2.8166,2.8153,2.6432,2.4338,2.2786,2.2584,2.2699,2.7253,2.567,2.3083,2.2264,2.2679,2.297,2.3478,2.4118,2.4072,2.4328,2.4842,2.464,2.4666,2.5018,2.6116,2.7235,2.8344,2.9283,2.9343,2.868,2.8172,2.6712,2.4482,2.3799,2.2062,1.9406,1.8847,1.7437,1.5213,1.4209,1.4579,1.6258,1.9457,2.3841,2.9348,3.3872,3.7397,3.9902,4.1116,4.1369,4.0632,3.9603,3.8298,3.6711,3.6699,3.6331,3.5416,3.5592,3.4831,3.287,2.9827,2.6225,0.0,1.6678,1.1601,0.6914,0.7162,0.7296,0.6596,0.6906,0.0,0.0,0.2694,0.457,0.6308,0.0,0.0,0.9235,1.129,1.432,1.8823,1.8199,1.7958,1.9123,1.9236,2.0382,2.3211,2.3609,2.3908,2.4555,2.499,2.5295,2.5447,2.7051,2.8012,2.7586,2.7502,2.8026,2.9514,3.0007,3.0541,3.1229,3.1965,3.2358,3.2046,3.2036,3.2059,3.2032,3.2637,3.2929,3.2543,3.2702,3.2552,3.1697,3.1421,3.0972,2.9154,2.8394,2.7812,2.7195,2.5164,2.3083,2.2112,2.1742,2.1357,3.0935,3.0387,2.6321,2.454,2.4493,2.5041,2.5106,2.4807,2.5199,2.5886,2.672,2.6663,2.7123,2.798,2.9001,2.9645,3.0043,3.0214,2.981,2.9019,2.7698,2.5689,2.315,2.2552,2.1142,1.8975,1.8329,1.7145,1.5575,1.4017,1.4091,1.5754,1.7354,2.1664,2.8467,3.2346,3.6118,3.9988,4.118,4.1524,4.0848,3.9566,3.8161,3.6709,3.6742,3.6818,3.6765,3.6302,3.597,3.5838,3.3656,3.0469,2.6199,2.1604,1.6044,0.9302,0.8074,0.6813,0.5198,0.5849,0.5179,0.2765,0.5196,0.646,0.5278,0.6729,0.8346,0.9885,1.4352,1.8424,2.1428,1.997,1.9684,2.1764,2.2222,2.3172,2.5179,2.676,2.7439,2.6844,2.7439,2.7689,2.7117,2.8496,2.9563,2.9431,2.8001,2.7742,2.9916,3.032,3.0562,3.1427,3.2075,3.2385,3.2124,3.1847,3.1966,3.2679,3.333,3.3404,3.2543,3.277,3.2753,3.1838,3.1799,3.1502,2.9743,2.8839,2.7871,2.6685,2.4284,2.2602,2.2874,2.2074,2.0981,3.204,3.2031,2.9241,2.7758,2.7155,2.6494,2.6363,2.654,2.6079,2.6384,2.7201,2.701,2.7978,2.9833,2.9814,3.0037,3.0387,2.9148,2.7991,2.6851,2.5195,2.3464,2.1771,2.0856,1.996,1.9058,1.8278,1.7625,1.6975,1.5863,1.5338,1.5581,1.7003,2.0937,2.7177,3.1127,3.4339,3.6983,3.8178,3.8527,3.8066,3.729,3.6709,3.6365,3.6581,3.6466,3.5929,3.7096,3.7133,3.5966,3.6093,3.3858,2.8714,2.2261,1.6727,1.2403,0.9748,0.7671,0.6161,0.5452,0.4803,0.4119,0.4662,0.5072,0.5291,0.6791,0.8101,0.914,1.3887,1.8515,2.2219,2.156,2.1909,2.4505,2.5154,2.661,2.9511,2.9938,2.9731,2.911,2.8089,2.7352,2.7047,2.8496,3.0421,3.2512,3.0918,2.9846,3.0808,3.1176,3.1622,3.2371,3.2715,3.2781,3.2747,3.2098,3.2035,3.333,3.3678,3.3674,3.3422,3.3546,3.3426,3.2829,3.2567,3.1954,3.0674,2.9645,2.8702,2.7687,2.5485,2.3461,2.2803,2.189,2.0902,3.3367,3.3185,3.0958,2.9771,2.922,2.7549,2.7091,2.7351,2.6729,2.6887,2.7632,2.8088,2.8833,2.9681,2.9612,2.9302,2.8786,2.7409,2.5846,2.413,2.276,2.1331,1.9935,1.9576,1.9391,1.9279,1.938,1.9031,1.8375,1.7903,1.7109,1.5989,1.6731,1.8836,2.2246,2.6703,2.9959,3.1908,3.3167,3.3433,3.2723,3.2836,3.2516,3.1711,3.1046,3.0653,3.0417,2.9883,3.0332,3.1895,3.1562,3.0926,2.9961,2.4251,1.9537,1.6452,1.14,0.7612,0.5595,0.4568,0.4165,0.4465,0.4406,0.4704,0.5449,0.7277,0.8698,0.9446,1.4028,1.8425,2.202,2.18,2.2495,2.5185,2.6655,2.8457,3.0949,3.1314,3.1083,3.0506,2.8915,2.7852,2.7753,2.9435,3.1289,3.3054,3.2195,3.1513,3.165,3.1918,3.2281,3.3104,3.3354,3.3429,3.335,3.3065,3.3179,3.402,3.4214,3.4107,3.4059,3.3885,3.3558,3.298,3.2662,3.2067,3.0692,3.033,2.9762,2.8147,2.6675,2.5017,2.3532,2.2391,2.135,3.4872,3.4148,3.2222,3.129,3.1006,2.8672,2.7702,2.7717,2.7156,2.7246,2.7972,2.9121,2.9243,2.866,2.8579,2.7697,2.6197,2.5183,2.3501,2.1401,2.0607,1.9526,1.8341,1.882,1.9301,1.969,2.0786,2.0855,1.9858,1.9885,1.8846,1.6893,1.6665,1.6443,1.6313,2.0555,2.3838,2.5944,2.7093,2.7157,2.6176,2.7028,2.674,2.5099,2.3502,2.288,2.3198,2.0256,2.0862,2.5626,2.3849,2.4764,2.925,2.5262,2.1584,1.8843,1.1975,0.6914,0.4528,0.3681,0.3509,0.4027,0.4255,0.4729,0.5604,0.782,0.9547,1.0442,1.4252,1.7791,2.048,2.0825,2.189,2.4371,2.6777,2.8826,3.0387,3.1356,3.1687,3.1196,2.9838,2.8921,2.889,3.0675,3.1938,3.2335,3.2506,3.2556,3.2609,3.2606,3.295,3.3585,3.3923,3.3955,3.3861,3.4175,3.4594,3.4895,3.4784,3.4583,3.4418,3.4071,3.3587,3.2908,3.2655,3.1948,3.0309,3.0709,3.0437,2.8477,2.7371,2.6258,2.4526,2.2978,2.1961,3.6123,3.5481,3.4007,3.3364,3.3132,3.0814,2.9153,2.8042,2.7214,2.7229,2.7893,2.7946,2.7992,2.7917,2.6212,2.4827,2.371,2.2207,2.0908,1.9738,1.9456,1.9126,1.8819,1.9295,1.9897,2.0565,2.1211,2.162,2.1761,2.0879,1.9674,1.8134,1.7116,1.57,1.4078,1.4424,1.6563,2.0255,2.0829,2.0811,2.0422,2.0551,2.0425,2.0098,1.9547,1.9389,1.9632,1.8483,1.8452,1.9826,1.8378,1.929,2.3288,1.9164,1.526,1.2152,0.8113,0.5317,0.4364,0.3626,0.3284,0.3455,0.3617,0.4211,0.5459,0.7355,0.9351,1.1425,1.3628,1.5072,1.5572,1.7765,1.976,2.152,2.4122,2.6579,2.833,3.0057,3.1072,3.0933,3.073,3.0399,2.991,3.0475,3.135,3.2523,3.2607,3.2868,3.3712,3.3753,3.3818,3.4027,3.4022,3.4031,3.4437,3.4816,3.516,3.5606,3.5401,3.5089,3.4808,3.4515,3.4097,3.3491,3.301,3.2287,3.1221,3.0825,3.0312,2.9165,2.7565,2.604,2.5017,2.3049,2.1334,3.7288,3.6766,3.5572,3.4877,3.4397,3.2444,3.0819,2.9391,2.801,2.7395,2.734,2.7072,2.6425,2.5392,2.388,2.2249,2.0498,1.9371,1.856,1.8053,1.8267,1.8694,1.9179,2.0289,2.1086,2.1611,2.2498,2.2803,2.2546,2.2094,2.096,1.9124,1.8032,1.6273,1.3866,1.1404,1.1635,1.4556,1.4654,1.4367,1.3779,1.3564,1.3369,1.3081,1.1525,1.0878,1.122,0.9653,0.9832,1.2061,1.1224,1.1946,1.4756,1.2168,0.8757,0.4746,0.2845,0.2024,0.2268,0.2013,0.206,0.2623,0.3303,0.4194,0.5423,0.694,0.8713,1.0828,1.2741,1.304,1.1225,1.3424,1.5888,1.7939,2.041,2.2815,2.5022,2.7196,2.8672,2.9255,2.9934,3.0334,3.0102,2.99,3.0703,3.245,3.2773,3.3143,3.4263,3.449,3.4653,3.5111,3.4793,3.4592,3.4691,3.458,3.4784,3.5264,3.5127,3.4921,3.4921,3.4784,3.4383,3.368,3.314,3.253,3.1208,3.062,3.0142,2.9275,2.7286,2.5762,2.5479,2.3925,2.2208,3.8539,3.8005,3.7273,3.6464,3.5482,3.4053,3.2381,3.0579,2.8654,2.7408,2.6639,2.6176,2.4742,2.266,2.1571,1.9782,1.7553,1.7009,1.6777,1.6798,1.7696,1.867,1.9725,2.1287,2.2156,2.2476,2.3643,2.3772,2.2974,2.2986,2.2002,2.0052,1.8775,1.6704,1.3671,0.9661,0.8103,0.9072,0.8908,0.829,0.7331,0.6894,0.65,0.602,0.3493,0.2336,0.2789,0.0524,0.0966,0.4474,0.4109,0.4466,0.5971,0.5149,0.2799,-0.1034,-0.1585,-0.1238,-0.0185,0.0113,0.0677,0.1714,0.3034,0.4134,0.5026,0.6412,0.7897,0.9398,1.1101,1.0714,0.7381,0.893,1.1327,1.3912,1.6129,1.8489,2.1128,2.3403,2.524,2.6694,2.7865,2.8912,2.9206,2.8985,2.9649,3.1655,3.2316,3.3304,3.4532,3.4939,3.5231,3.5882,3.5452,3.4966,3.4439,3.4144,3.4024,3.4577,3.4577,3.4577,3.4853,3.4921,3.4444,3.3538,3.3273,3.2522,3.0947,3.0443,3.0083,2.9327,2.725,2.5598,2.5874,2.4887,2.354,4.0079,3.9229,3.9451,3.863,3.7075,3.5888,3.3459,3.0147,2.7801,2.6629,2.6189,2.4727,2.3179,2.1496,1.9355,1.7535,1.6115,1.6065,1.6367,1.7045,1.8826,2.0041,2.0739,2.2044,2.2616,2.2572,2.3488,2.3821,2.3414,2.27,2.1768,2.0534,1.8474,1.5429,1.1586,0.8217,0.6024,0.5054,0.4354,0.3441,0.2348,0.1642,0.1114,0.0687,-0.0326,-0.0817,-0.0554,-0.1753,-0.1849,-0.062,-0.1103,-0.1103,-0.0434,-0.0844,-0.1367,-0.152,-0.2307,-0.2456,-0.1711,-0.091,-0.006,0.0948,0.2417,0.3358,0.3506,0.544,0.6865,0.727,0.7635,0.6967,0.5341,0.5627,0.7065,0.9602,1.1653,1.4083,1.7227,1.9175,2.1216,2.3719,2.4558,2.5502,2.667,2.7286,2.8228,2.9876,3.0974,3.2103,3.4303,3.5244,3.5702,3.5953,3.5373,3.4189,3.3282,3.34,3.3678,3.3955,3.4439,3.4715,3.4853,3.4921,3.4618,3.3756,3.3662,3.2823,3.1208,3.0361,2.9747,2.8901,2.755,2.671,2.6414,2.5435,2.4337,4.1163,4.0781,4.0321,3.9554,3.8454,3.6238,3.3504,3.0483,2.8072,2.6213,2.4841,2.3233,2.1215,1.8969,1.7479,1.5938,1.4411,1.4849,1.5677,1.6919,1.8701,2.023,2.1584,2.2941,2.3532,2.3566,2.3742,2.3847,2.3682,2.2185,2.1047,2.018,1.6989,1.3575,1.0286,0.7621,0.5335,0.3406,0.2449,0.1444,0.039,-0.056,-0.1238,-0.1679,-0.233,-0.2659,-0.2611,-0.2905,-0.2819,-0.2261,-0.2495,-0.25,-0.2275,-0.267,-0.2799,-0.2519,-0.2987,-0.3042,-0.2543,-0.0864,0.0189,0.0539,0.2796,0.5081,0.6912,0.6765,0.6464,0.6027,0.611,0.589,0.5075,0.495,0.5806,0.776,0.9643,1.1731,1.4128,1.6313,1.834,2.0409,2.1956,2.3302,2.4694,2.5698,2.6654,2.7998,2.9747,3.2217,3.4333,3.4821,3.5358,3.6124,3.5226,3.3929,3.2932,3.2579,3.2719,3.2911,3.3747,3.4301,3.4577,3.4853,3.4861,3.4212,3.3926,3.3073,3.1545,3.055,2.9713,2.8747,2.7862,2.7131,2.6695,2.5611,2.4108,4.2338,4.2341,4.1194,4.0136,3.9025,3.6359,3.3694,3.1162,2.8688,2.6345,2.4074,2.2114,1.9658,1.7039,1.5999,1.4782,1.3558,1.3913,1.5136,1.6845,1.8464,2.0209,2.2014,2.342,2.4138,2.4218,2.3884,2.3741,2.3553,2.1679,2.0006,1.859,1.512,1.2008,0.9407,0.7146,0.4965,0.2884,0.1504,0.0343,-0.0675,-0.1733,-0.2505,-0.3002,-0.3518,-0.3814,-0.3902,-0.3747,-0.3502,-0.3225,-0.3134,-0.3118,-0.3216,-0.351,-0.3645,-0.3591,-0.375,-0.352,-0.2662,-0.0711,0.053,0.0623,0.3685,0.7136,1.022,0.9064,0.7197,0.5992,0.6128,0.6127,0.5851,0.5956,0.6369,0.7284,0.8596,1.0417,1.2406,1.4406,1.6295,1.795,1.9775,2.1481,2.2829,2.4048,2.527,2.6789,2.9401,3.1944,3.3331,3.3785,3.4539,3.5535,3.5066,3.409,3.339,3.2628,3.2244,3.2404,3.3051,3.3608,3.4094,3.4715,3.5032,3.4399,3.4199,3.3382,3.195,3.1044,3.0095,2.9008,2.8154,2.7638,2.7071,2.5608,2.3901,4.3734,4.3571,4.259,4.0651,3.8265,3.6901,3.4787,3.2114,2.9546,2.7142,2.4806,2.1793,1.9191,1.6934,1.5148,1.4111,1.3719,1.3807,1.5026,1.7025,1.88,2.0352,2.1788,2.3006,2.3658,2.3805,2.3517,2.3253,2.3023,2.1314,1.8701,1.5413,1.3152,1.1117,0.8991,0.652,0.4542,0.3165,0.1081,-0.049,-0.1483,-0.2377,-0.309,-0.361,-0.4076,-0.4291,-0.4239,-0.4509,-0.4589,-0.4446,-0.429,-0.4375,-0.4657,-0.4777,-0.4685,-0.4407,-0.4703,-0.4166,-0.2327,-0.0781,0.0567,0.1699,0.5057,0.8757,1.228,1.1871,1.0091,0.8025,0.7339,0.7313,0.715,0.7767,0.8082,0.7811,0.8656,0.9838,1.2136,1.3207,1.4635,1.7056,1.8506,1.9409,2.0748,2.2252,2.4145,2.6477,2.8403,3.0253,3.1485,3.2113,3.2876,3.4389,3.4922,3.4694,3.3886,3.3318,3.2752,3.265,3.2737,3.3035,3.3472,3.4061,3.4471,3.4614,3.4611,3.3983,3.2662,3.1797,3.0983,2.9218,2.8616,2.8609,2.7339,2.5777,2.424,4.4926,4.4865,4.33,4.1256,3.8982,3.7626,3.5603,3.301,3.0658,2.8219,2.5662,2.2705,1.9894,1.7233,1.5773,1.4671,1.3814,1.4599,1.5375,1.635,1.8164,1.9702,2.0873,2.1658,2.2356,2.2859,2.2333,2.1983,2.169,1.9772,1.6954,1.4014,1.2188,1.0412,0.8409,0.6184,0.44,0.3071,0.0765,-0.0861,-0.1857,-0.2749,-0.3385,-0.3747,-0.4207,-0.4419,-0.4333,-0.4482,-0.4535,-0.445,-0.4692,-0.4953,-0.5083,-0.5406,-0.5491,-0.5243,-0.4321,-0.3164,-0.1743,0.0099,0.1899,0.3564,0.6613,0.9738,1.2636,1.2708,1.2092,1.1285,0.9767,0.8909,0.9106,0.9703,0.9887,0.949,1.0354,1.1811,1.3107,1.4514,1.5916,1.7237,1.8379,1.8859,1.9034,2.1274,2.4001,2.603,2.7541,2.8871,3.0036,3.0809,3.1731,3.2816,3.3424,3.3775,3.3712,3.3008,3.2501,3.2261,3.2611,3.3038,3.3197,3.3996,3.4715,3.4696,3.4751,3.4248,3.2714,3.2294,3.169,2.9813,2.84,2.8071,2.7263,2.61,2.4877,4.6125,4.6068,4.4378,4.2274,4.0078,3.8836,3.6862,3.4394,3.2176,2.9812,2.7305,2.4439,2.1564,1.8851,1.7007,1.547,1.4531,1.5218,1.569,1.5876,1.7326,1.8621,1.9807,2.0331,2.0947,2.1437,2.0961,2.0386,1.9797,1.7785,1.5285,1.2906,1.1331,0.9661,0.7747,0.5876,0.4315,0.2907,0.072,-0.0934,-0.1982,-0.298,-0.3671,-0.4036,-0.4395,-0.4546,-0.4497,-0.4576,-0.463,-0.4641,-0.5127,-0.5469,-0.5613,-0.5998,-0.6085,-0.5611,-0.3902,-0.2292,-0.101,0.0951,0.3091,0.5435,0.788,1.0381,1.2696,1.3376,1.3716,1.4096,1.2457,1.1258,1.0926,1.1425,1.151,1.1197,1.2619,1.3898,1.4942,1.634,1.7311,1.8072,1.9172,1.9559,1.9214,2.1758,2.4639,2.5502,2.6531,2.7633,2.873,2.9664,3.0438,3.144,3.1977,3.2614,3.333,3.3037,3.2238,3.2103,3.2595,3.2656,3.3037,3.4018,3.4684,3.4426,3.4665,3.4221,3.2832,3.2393,3.1986,3.0345,2.8888,2.786,2.7148,2.6228,2.5177,4.7126,4.7436,4.6241,4.3988,4.1442,4.0535,3.8798,3.6441,3.4179,3.2049,2.9764,2.6806,2.4279,2.1907,1.8521,1.6507,1.5786,1.5433,1.55,1.5953,1.6378,1.7366,1.8923,1.9346,1.9542,1.9523,1.9543,1.8499,1.6531,1.546,1.3879,1.1713,1.0409,0.8911,0.7259,0.5741,0.428,0.2942,0.1075,-0.0512,-0.1768,-0.3057,-0.399,-0.4499,-0.4746,-0.479,-0.4913,-0.506,-0.5239,-0.5411,-0.5717,-0.6085,-0.6456,-0.6695,-0.6393,-0.5474,-0.3757,-0.1899,-0.0217,0.1401,0.3492,0.6301,0.8401,1.0911,1.3708,1.4143,1.4499,1.5549,1.4823,1.3857,1.2901,1.3126,1.3384,1.3365,1.4378,1.5822,1.7372,1.7991,1.87,1.9542,2.0231,2.0932,2.2065,2.3908,2.4811,2.5289,2.5911,2.686,2.7633,2.8182,2.9134,3.0299,3.1117,3.1879,3.2926,3.2865,3.2884,3.2691,3.2157,3.2007,3.2624,3.3266,3.379,3.4274,3.4439,3.4084,3.2894,3.2114,3.1665,3.0563,2.9359,2.8376,2.719,2.5931,2.4995,4.7288,4.6804,4.6176,4.4906,4.3297,4.1649,3.9924,3.8077,3.5002,3.2404,3.0052,2.7115,2.4639,2.2614,2.0219,1.8121,1.6461,1.5941,1.5431,1.5033,1.5441,1.5916,1.6347,1.6985,1.7177,1.7018,1.726,1.6535,1.4875,1.3977,1.2742,1.1121,0.9775,0.8556,0.7374,0.6015,0.4839,0.371,0.1773,0.0164,-0.1034,-0.2512,-0.3592,-0.4216,-0.4587,-0.468,-0.4572,-0.4741,-0.4846,-0.4932,-0.5561,-0.5997,-0.6143,-0.6339,-0.6032,-0.501,-0.3407,-0.169,0.0113,0.2229,0.4367,0.6531,0.8575,1.082,1.3148,1.4456,1.5261,1.5584,1.5699,1.5439,1.5663,1.5412,1.5228,1.5452,1.6558,1.7719,1.8811,1.9767,2.0807,2.1545,2.2018,2.2584,2.3526,2.4506,2.5197,2.5527,2.607,2.6623,2.7097,2.7569,2.8339,2.9275,3.0129,3.1024,3.2228,3.239,3.2366,3.2208,3.205,3.2243,3.2797,3.3251,3.3747,3.4077,3.433,3.3892,3.2753,3.1756,3.1244,3.0692,2.9582,2.8439,2.7252,2.6075,2.5269,4.8165,4.7458,4.6959,4.6137,4.5006,4.3076,4.1322,3.9492,3.6029,3.316,3.0729,2.7811,2.537,2.3355,2.1464,1.9566,1.7589,1.6642,1.5624,1.4717,1.4903,1.512,1.5303,1.5825,1.588,1.5648,1.5601,1.5001,1.3722,1.3056,1.1994,1.0604,0.9579,0.8589,0.7551,0.6529,0.552,0.4178,0.2464,0.095,-0.0319,-0.1769,-0.2904,-0.3636,-0.4073,-0.4328,-0.4382,-0.4568,-0.461,-0.4716,-0.5407,-0.591,-0.6155,-0.6049,-0.5625,-0.4718,-0.3203,-0.151,0.0232,0.2483,0.4814,0.7058,0.8565,1.0449,1.3026,1.4772,1.5658,1.612,1.6419,1.7026,1.797,1.825,1.7826,1.7257,1.8238,1.9379,1.9922,2.1124,2.2307,2.3179,2.3164,2.3666,2.4584,2.5439,2.5872,2.599,2.6465,2.6939,2.7175,2.7569,2.8026,2.8808,2.9664,3.0531,3.1408,3.1759,3.2353,3.2347,3.2086,3.2392,3.2723,3.3131,3.3465,3.3872,3.3875,3.3408,3.2643,3.1545,3.0928,3.051,2.9681,2.8606,2.7486,2.6378,2.5595,4.9731,4.9566,4.8714,4.7548,4.6401,4.4543,4.2836,4.0407,3.7221,3.4155,3.1522,2.8996,2.6346,2.4382,2.2014,2.0359,1.9256,1.7631,1.6356,1.5507,1.5003,1.5124,1.5615,1.592,1.5943,1.5637,1.4854,1.402,1.3083,1.2671,1.1866,1.0575,0.998,0.8969,0.7459,0.7112,0.6114,0.4565,0.3226,0.1822,0.0302,-0.0867,-0.1959,-0.2907,-0.3197,-0.3699,-0.4502,-0.463,-0.4668,-0.4742,-0.532,-0.5997,-0.6375,-0.5936,-0.5231,-0.4491,-0.3026,-0.1434,0.0119,0.2102,0.4782,0.7413,0.8492,1.028,1.3177,1.5146,1.6347,1.6997,1.7585,1.8249,1.9722,2.1117,2.0983,1.8494,1.9541,2.0626,2.1024,2.2028,2.3355,2.4492,2.4363,2.4137,2.5361,2.6491,2.7004,2.6781,2.7018,2.7476,2.7476,2.7805,2.8353,2.89,2.9431,3.0222,3.0686,3.1241,3.2069,3.2647,3.2326,3.2304,3.2534,3.2895,3.3009,3.3357,3.3438,3.2979,3.2029,3.1109,3.0671,3.0212,2.9404,2.8597,2.7435,2.6338,2.5738,4.9224,4.8845,4.7885,4.718,4.6315,4.3898,4.1591,3.9325,3.6066,3.3112,3.0455,2.8142,2.6017,2.4174,2.2544,2.1452,2.0529,1.9146,1.7666,1.6282,1.5872,1.5501,1.5325,1.574,1.5823,1.5406,1.5002,1.4182,1.3277,1.3008,1.2188,1.0844,1.0383,0.9482,0.8255,0.7999,0.7095,0.5383,0.4482,0.3379,0.1885,0.0533,-0.0486,-0.1259,-0.206,-0.2748,-0.3029,-0.3868,-0.4401,-0.4489,-0.5066,-0.5688,-0.6041,-0.5511,-0.4734,-0.3873,-0.2414,-0.0901,0.055,0.2409,0.4506,0.6832,0.8429,1.0571,1.3433,1.6612,1.7928,1.7566,1.794,1.9364,2.1483,2.278,2.2393,2.0457,2.1268,2.2007,2.2349,2.3702,2.5077,2.6006,2.6405,2.6634,2.6807,2.7487,2.7712,2.7569,2.7647,2.7633,2.7712,2.779,2.7961,2.8431,2.9212,3.0067,3.0763,3.1379,3.2069,3.2538,3.2429,3.2092,3.2359,3.2463,3.2565,3.2659,3.2772,3.2442,3.1452,3.0966,3.0649,2.9931,2.9216,2.8245,2.7142,2.6474,2.598,4.845,4.8084,4.6501,4.5497,4.4662,4.1824,3.9428,3.7241,3.414,3.1536,2.9547,2.7478,2.5913,2.4597,2.3493,2.2556,2.185,2.0787,1.9524,1.818,1.7162,1.6405,1.5709,1.6215,1.6286,1.5969,1.5734,1.5091,1.4133,1.3797,1.3127,1.2093,1.1376,1.0621,0.9539,0.9069,0.8138,0.6669,0.5813,0.4662,0.3203,0.2054,0.101,0.0057,-0.0749,-0.1406,-0.1964,-0.2746,-0.3314,-0.3802,-0.4332,-0.4893,-0.552,-0.5197,-0.4648,-0.3561,-0.2227,-0.0924,-0.0062,0.1861,0.4081,0.5958,0.8336,1.0868,1.3561,1.7413,1.9107,1.9024,1.9267,2.0662,2.2939,2.3868,2.3696,2.3027,2.2933,2.3286,2.3715,2.4975,2.6027,2.687,2.769,2.8276,2.8447,2.8898,2.873,2.8588,2.8353,2.8182,2.8182,2.8104,2.8353,2.8744,2.9601,3.0376,3.0994,3.1533,3.213,3.2353,3.239,3.2097,3.2083,3.1983,3.1968,3.2113,3.2158,3.2061,3.1332,3.1221,3.0978,3.0041,2.9018,2.8348,2.7572,2.6993,2.6459,4.7368,4.7179,4.4437,4.2661,4.1506,3.8646,3.6387,3.4548,3.1877,3.0146,2.9015,2.741,2.6458,2.5937,2.4772,2.3927,2.3452,2.2498,2.1838,2.0999,1.965,1.8234,1.7341,1.7521,1.7389,1.7089,1.7055,1.6645,1.5766,1.525,1.454,1.3857,1.29,1.1988,1.1061,1.0346,0.9293,0.787,0.6985,0.5779,0.4147,0.3543,0.2556,0.1061,0.0712,0.006,-0.092,-0.1457,-0.1975,-0.2721,-0.3447,-0.4073,-0.4623,-0.5096,-0.4603,-0.3572,-0.2073,-0.1361,-0.0938,0.1162,0.3551,0.5421,0.8055,1.1023,1.3617,1.7402,2.0397,2.124,2.1382,2.2243,2.4164,2.5201,2.5355,2.5349,2.475,2.456,2.509,2.584,2.6648,2.7395,2.8441,2.9412,2.9837,3.0655,3.0284,2.9819,2.9523,2.9275,2.9119,2.9119,2.9134,2.9601,3.0144,3.0686,3.1225,3.184,3.2375,3.2555,3.2818,3.3112,3.2534,3.2278,3.1972,3.1993,3.1791,3.1612,3.1357,3.1145,3.0685,2.9731,2.9049,2.8661,2.8116,2.748,2.6935,4.4119,4.2984,4.032,3.8357,3.6836,3.444,3.245,3.0801,2.9699,2.8835,2.8333,2.8073,2.7721,2.753,2.6448,2.5855,2.5493,2.4644,2.3845,2.3352,2.2905,2.1289,1.9605,1.9061,1.8843,1.852,1.8652,1.8095,1.7046,1.6887,1.6156,1.4713,1.4235,1.3228,1.1843,1.1236,1.0019,0.8569,0.7985,0.7092,0.573,0.486,0.4177,0.3529,0.2358,0.1386,0.0382,-0.0825,-0.1888,-0.2787,-0.343,-0.3828,-0.4062,-0.3877,-0.3497,-0.2761,-0.1369,-0.0127,0.0448,0.1509,0.3461,0.5774,0.752,0.9922,1.3574,1.7994,2.1091,2.2816,2.3585,2.4596,2.6228,2.7373,2.7718,2.7273,2.6397,2.591,2.626,2.6864,2.7648,2.8371,2.8806,2.9576,3.0438,3.084,3.0978,3.1209,3.0824,3.0284,2.9974,2.9897,2.9819,3.0144,3.0608,3.0994,3.1533,3.2146,3.2528,3.274,3.3524,3.4843,3.4097,3.344,3.3026,3.2663,3.2,3.1684,3.1092,3.0609,2.99,2.9508,2.92,2.8928,2.8358,2.7764,2.7328,4.0821,3.9089,3.6405,3.4257,3.2524,3.0394,2.887,2.8075,2.7676,2.7731,2.7883,2.8189,2.8387,2.8394,2.7663,2.7351,2.7263,2.6218,2.5597,2.5335,2.4958,2.3533,2.1739,2.0959,2.0529,2.0192,2.0318,1.9732,1.8752,1.8486,1.7561,1.6465,1.569,1.4737,1.3755,1.2596,1.1539,1.0238,0.9452,0.843,0.7337,0.6596,0.5788,0.5081,0.396,0.2972,0.1571,0.0,-0.1357,-0.2291,-0.2874,-0.3229,-0.345,-0.3024,-0.2612,-0.2259,-0.0886,0.0387,0.1343,0.2027,0.338,0.5544,0.7103,0.9886,1.3573,1.7984,2.1501,2.375,2.492,2.6169,2.7555,2.8661,2.8897,2.843,2.7964,2.7629,2.7403,2.7917,2.8371,2.8764,2.8964,2.9197,3.0299,3.0608,3.1456,3.1977,3.1379,3.0824,3.0361,3.0438,3.0516,3.0824,3.1286,3.184,3.2375,3.2909,3.3954,3.4087,3.4456,3.5814,3.5007,3.4173,3.3441,3.2788,3.2263,3.1635,3.0925,3.0442,3.0212,2.9861,2.9535,2.9141,2.8651,2.7986,2.7611,3.7467,3.5278,3.2604,3.0438,2.8682,2.6719,2.5975,2.5989,2.6093,2.6743,2.7668,2.8118,2.8646,2.901,2.857,2.8395,2.863,2.75,2.7261,2.6999,2.6543,2.523,2.416,2.313,2.2594,2.2259,2.2157,2.1503,2.07,2.0054,1.93,1.8464,1.743,1.6599,1.5703,1.4455,1.3336,1.2203,1.0934,0.9843,0.8967,0.8325,0.7522,0.636,0.5226,0.4105,0.2546,0.1003,-0.033,-0.1563,-0.1878,-0.238,-0.2782,-0.232,-0.2158,-0.1767,-0.0704,0.071,0.1767,0.2336,0.3159,0.4897,0.7174,1.0053,1.3419,1.7491,2.1221,2.4088,2.5584,2.7223,2.896,2.9563,2.9774,2.9854,2.99,2.9671,2.9209,2.9094,2.9178,2.9223,2.9237,2.9193,2.9446,3.033,3.175,3.2359,3.1916,3.1747,3.1363,3.1286,3.1363,3.1533,3.2146,3.2816,3.3289,3.3744,3.5007,3.5811,3.6018,3.6473,3.5321,3.445,3.357,3.2896,3.2595,3.191,3.0907,3.0544,3.0281,3.0087,2.967,2.9396,2.9042,2.8323,2.7781,3.3934,3.1474,2.8933,2.6955,2.5515,2.4283,2.388,2.4145,2.4911,2.6154,2.7582,2.8449,2.9112,2.9774,2.9429,2.9379,2.9489,2.9023,2.8951,2.869,2.7997,2.7908,2.7231,2.5843,2.4701,2.4393,2.4316,2.3807,2.2998,2.215,2.1487,2.0478,1.9387,1.832,1.7127,1.6021,1.4525,1.3234,1.2242,1.1226,1.0326,0.9842,0.9128,0.7968,0.6198,0.4747,0.3599,0.2217,0.1173,0.0273,-0.0995,-0.1696,-0.158,-0.1401,-0.1521,-0.1491,-0.0195,0.1173,0.1936,0.2301,0.2956,0.4507,0.6517,0.9137,1.2911,1.6906,2.0608,2.3694,2.6274,2.8696,3.1209,3.1772,3.1819,3.1908,3.2114,3.2304,3.2342,3.1481,3.0947,3.1022,3.0882,3.0541,2.9987,3.1058,3.2007,3.2457,3.2604,3.2604,3.2359,3.213,3.213,3.2146,3.2512,3.312,3.3575,3.418,3.5456,3.6553,3.7026,3.699,3.5861,3.5207,3.4448,3.3798,3.3131,3.2251,3.1094,3.0099,2.9685,2.9713,2.9822,2.96,2.9211,2.8494,2.7773,3.1415,2.886,2.6877,2.5279,2.403,2.3479,2.3426,2.388,2.4857,2.5984,2.7107,2.8256,2.9094,2.9685,3.008,3.0397,3.0691,3.0608,3.0211,2.974,2.9248,2.9358,2.952,2.8565,2.7504,2.6914,2.6588,2.5921,2.4946,2.4072,2.3093,2.2065,2.1101,2.007,1.8829,1.7622,1.6503,1.5399,1.3982,1.2927,1.2391,1.1544,1.0272,0.8999,0.7105,0.5677,0.4306,0.3229,0.232,0.1539,0.0274,-0.0671,-0.0671,-0.0336,-0.0601,-0.1125,0.0,0.1321,0.1984,0.2533,0.3236,0.4286,0.6206,0.9056,1.2411,1.6197,1.9701,2.3184,2.6599,3.0002,3.3169,3.3292,3.3365,3.3392,3.3413,3.364,3.3934,3.3139,3.2347,3.2443,3.2206,3.1589,3.1433,3.1968,3.2527,3.3099,3.2654,3.2638,3.274,3.2512,3.2604,3.2681,3.2892,3.3348,3.3727,3.4556,3.5754,3.6756,3.7451,3.723,3.6523,3.6048,3.5646,3.4766,3.3688,3.251,3.1366,3.0264,2.9581,2.9726,2.9822,2.9652,2.9297,2.858,2.7845,2.9824,2.7191,2.6005,2.4736,2.3582,2.3521,2.3672,2.4113,2.5188,2.5792,2.6342,2.7665,2.8402,2.9186,3.0203,3.1181,3.1822,3.1856,3.132,3.0706,3.0536,3.0714,3.0847,3.0659,3.0425,2.9595,2.8921,2.7909,2.6734,2.5596,2.4856,2.3661,2.2621,2.1707,2.0773,1.9643,1.8528,1.7662,1.6081,1.4828,1.4428,1.3405,1.1733,0.9753,0.8223,0.6914,0.5519,0.4419,0.3475,0.2719,0.1916,0.0981,0.0415,0.0272,0.0606,-0.074,0.0467,0.134,0.2099,0.2721,0.3345,0.4224,0.6041,0.8714,1.1904,1.525,1.8812,2.2706,2.6495,3.0543,3.402,3.4026,3.3747,3.393,3.3918,3.4338,3.4714,3.4421,3.4021,3.3591,3.3593,3.3225,3.2618,3.2586,3.3166,3.358,3.3071,3.2789,3.3006,3.2926,3.2959,3.2976,3.3204,3.3382,3.3744,3.4481,3.5754,3.6775,3.7601,3.7456,3.7099,3.6797,3.6213,3.514,3.4043,3.3015,3.2137,3.1247,3.0641,3.0246,2.997,2.99,2.9379,2.8648,2.7929,2.9706,2.706,2.6367,2.5335,2.4264,2.3917,2.3857,2.3943,2.4798,2.5244,2.565,2.6404,2.759,2.8727,2.9862,3.1259,3.2396,3.2662,3.2476,3.1863,3.166,3.1844,3.257,3.2386,3.2616,3.2794,3.1724,3.0226,2.9085,2.799,2.6799,2.5852,2.4534,2.3515,2.2785,2.194,2.0579,1.9371,1.7926,1.673,1.5736,1.453,1.3132,1.1065,0.9585,0.8266,0.7177,0.6043,0.5072,0.4283,0.3335,0.2515,0.1697,0.0894,0.0541,0.054,0.0952,0.1649,0.2304,0.2466,0.2918,0.3814,0.5402,0.7878,1.1071,1.4255,1.7677,2.1999,2.635,3.0407,3.2506,3.3411,3.408,3.4501,3.4953,3.531,3.568,3.5668,3.5308,3.4936,3.4986,3.5003,3.4178,3.3629,3.4076,3.4407,3.4205,3.4077,3.4186,3.3864,3.3381,3.3381,3.3398,3.3542,3.3761,3.4499,3.5381,3.6571,3.7326,3.772,3.7441,3.7358,3.6758,3.5699,3.4935,3.4315,3.3336,3.2271,3.1568,3.1021,3.0685,3.0266,2.9665,2.9051,2.8035,2.9386,2.7077,2.6623,2.5793,2.4857,2.4933,2.4721,2.4464,2.5061,2.5306,2.5411,2.6041,2.71,2.8357,2.9686,3.134,3.2938,3.3726,3.3562,3.3151,3.2915,3.3061,3.374,3.3516,3.3839,3.4098,3.3436,3.2235,3.1009,3.0032,2.8762,2.7465,2.631,2.5347,2.4316,2.3194,2.2195,2.0875,1.9701,1.8362,1.716,1.5733,1.3966,1.2568,1.1174,0.9855,0.8426,0.7542,0.6406,0.5317,0.4155,0.3413,0.2799,0.2184,0.1236,0.0953,0.1452,0.2275,0.2898,0.3147,0.3667,0.4307,0.5562,0.7612,1.0157,1.2894,1.6411,2.0823,2.5872,2.9924,3.2127,3.3275,3.4354,3.5257,3.5743,3.6006,3.6322,3.6592,3.6234,3.5825,3.5463,3.5251,3.5285,3.5025,3.5173,3.5147,3.5123,3.5172,3.5348,3.465,3.3899,3.3585,3.3491,3.3449,3.3609,3.4122,3.5007,3.6201,3.7364,3.7778,3.7784,3.765,3.7086,3.6224,3.5701,3.5196,3.4183,3.3046,3.2458,3.1854,3.1341,3.0834,3.0162,2.934,2.8447,2.924,2.75,2.7098,2.6319,2.547,2.5851,2.5611,2.5094,2.5474,2.5369,2.4988,2.5707,2.6729,2.8234,3.0161,3.211,3.3918,3.4602,3.4506,3.4164,3.3969,3.405,3.4213,3.4164,3.4341,3.5009,3.4782,3.3967,3.2396,3.1554,3.0404,2.9021,2.7996,2.7032,2.5897,2.4776,2.3675,2.2631,2.1402,2.0127,1.8456,1.6638,1.4871,1.3649,1.2712,1.1289,0.9735,0.8863,0.7715,0.6478,0.5247,0.4304,0.401,0.3612,0.269,0.153,0.2342,0.3159,0.3864,0.3877,0.4105,0.4604,0.5884,0.7656,1.0052,1.2759,1.5966,2.0154,2.4949,2.9528,3.2009,3.3521,3.4687,3.5685,3.6191,3.6418,3.6667,3.68,3.6684,3.6157,3.5679,3.5531,3.5612,3.5612,3.5612,3.5655,3.5646,3.5753,3.5704,3.4986,3.4265,3.3882,3.3627,3.334,3.3441,3.3685,3.4649,3.5754,3.7217,3.8239,3.8083,3.7942,3.7339,3.6864,3.6193,3.5597,3.4665,3.3916,3.3495,3.2861,3.2168,3.1522,3.1055,3.0083,2.9049,2.9746,2.8965,2.8133,2.7149,2.633,2.626,2.5734,2.5095,2.5374,2.5187,2.4864,2.5002,2.615,2.8474,3.1697,3.3664,3.4542,3.507,3.519,3.4848,3.4734,3.4913,3.5206,3.4848,3.5156,3.5663,3.5467,3.4633,3.3596,3.2744,3.1709,3.0438,2.9544,2.8613,2.7624,2.6653,2.5896,2.4777,2.3265,2.1223,1.8942,1.7573,1.6318,1.5015,1.3762,1.2614,1.1318,1.034,0.9122,0.7947,0.6777,0.6009,0.5612,0.496,0.4665,0.4059,0.3797,0.3643,0.4749,0.4752,0.4574,0.515,0.5759,0.7087,1.0003,1.4294,1.8227,2.1213,2.5333,2.9075,3.2167,3.3615,3.4612,3.5692,3.6571,3.6871,3.717,3.7297,3.7145,3.6938,3.6491,3.617,3.6033,3.6016,3.5999,3.604,3.616,3.6268,3.6122,3.5323,3.4341,3.3754,3.3746,3.3551,3.3365,3.3609,3.4273,3.5381,3.6849,3.8297,3.8175,3.7981,3.8105,3.7543,3.6918,3.6174,3.5291,3.472,3.4415,3.3898,3.3213,3.2636,3.2034,3.0959,2.9853,2.9409,2.9132,2.8697,2.8115,2.7427,2.707,2.663,2.6163,2.5933,2.5741,2.543,2.5583,2.6903,2.9306,3.2122,3.37,3.4575,3.5443,3.5838,3.5761,3.5635,3.5817,3.6144,3.5817,3.5817,3.6157,3.5957,3.548,3.4633,3.4131,3.3371,3.1792,3.1228,3.0358,2.9194,2.8295,2.7042,2.5654,2.3927,2.2123,2.0483,1.9277,1.8183,1.6884,1.5371,1.4093,1.302,1.177,1.0688,0.9645,0.8612,0.7743,0.741,0.6978,0.6706,0.6903,0.6711,0.6587,0.6658,0.6284,0.623,0.6418,0.694,0.8182,1.1026,1.5163,1.9685,2.2735,2.5937,2.9424,3.2447,3.3892,3.5008,3.5975,3.6979,3.7379,3.7664,3.7799,3.7778,3.7535,3.7374,3.695,3.676,3.702,3.6772,3.6126,3.6281,3.647,3.6306,3.5774,3.4616,3.3373,3.3626,3.3837,3.3517,3.3517,3.4046,3.5082,3.6553,3.7747,3.8011,3.8033,3.8137,3.8266,3.7848,3.7006,3.5928,3.5226,3.4746,3.4527,3.4338,3.358,3.2895,3.2263,3.1001,2.9259,2.9536,2.9065,2.8704,2.8315,2.7894,2.7534,2.7284,2.6742,2.6388,2.6312,2.6659,2.7954,3.0023,3.2107,3.3638,3.4592,3.5689,3.6264,3.6499,3.6641,3.6912,3.6895,3.6631,3.6365,3.671,3.6072,3.5676,3.5659,3.5268,3.4501,3.3001,3.2582,3.171,3.0543,2.9535,2.8406,2.6533,2.4886,2.3262,2.1908,2.0941,1.9886,1.8532,1.7091,1.564,1.4597,1.3619,1.255,1.1282,1.0598,0.9863,0.9242,0.8834,0.844,0.8663,0.8697,0.9063,0.8751,0.8391,0.8375,0.8423,0.8801,0.9672,1.1837,1.5766,1.9352,2.282,2.6182,2.9717,3.2968,3.4674,3.5656,3.6694,3.7654,3.7937,3.8237,3.8324,3.8425,3.8298,3.8053,3.7807,3.7731,3.8121,3.7682,3.6523,3.6305,3.6574,3.6368,3.6027,3.5123,3.3864,3.4046,3.4273,3.4122,3.4046,3.4331,3.4954,3.6349,3.7194,3.7639,3.806,3.8292,3.8397,3.8324,3.7783,3.6853,3.5869,3.504,3.5013,3.4861,3.4248,3.3613,3.3021,3.1894,2.9849,3.0702,2.9198,2.8735,2.8921,2.8354,2.8136,2.7949,2.7299,2.6969,2.7071,2.7687,2.8942,3.0732,3.2315,3.3769,3.4962,3.6025,3.6525,3.696,3.7366,3.7705,3.767,3.7331,3.6895,3.7072,3.644,3.6008,3.5953,3.6136,3.5329,3.4305,3.3791,3.2736,3.1574,3.0661,2.9329,2.7632,2.6108,2.4619,2.3313,2.2303,2.1311,1.975,1.865,1.751,1.5786,1.5269,1.4474,1.2996,1.2477,1.199,1.1262,1.0945,1.0569,1.0207,1.089,1.1178,1.0986,1.0245,0.9516,0.9653,1.0278,1.1272,1.3023,1.5855,1.909,2.2117,2.5496,3.0245,3.3594,3.5957,3.6593,3.7606,3.837,3.881,3.9011,3.8905,3.8971,3.8949,3.8873,3.8861,3.8901,3.9313,3.7887,3.6575,3.6368,3.662,3.6377,3.5998,3.5404,3.4761,3.4777,3.4857,3.4857,3.4932,3.5082,3.5443,3.6514,3.7001,3.7316,3.7754,3.8295,3.8286,3.8186,3.799,3.7834,3.7314,3.6654,3.5996,3.5433,3.4767,3.3956,3.3141,3.1893,2.9453,3.0021,2.9466,2.949,2.9729,2.8903,2.8475,2.8417,2.7939,2.7819,2.7985,2.8714,2.9847,3.1302,3.2407,3.3871,3.5443,3.6122,3.6788,3.7456,3.7996,3.8355,3.8303,3.8167,3.7931,3.7809,3.7036,3.6535,3.6782,3.6787,3.647,3.5683,3.4931,3.3969,3.2896,3.1239,2.9815,2.8807,2.7428,2.6029,2.4923,2.4214,2.3234,2.1716,2.0611,1.9528,1.8096,1.7098,1.6233,1.5391,1.4585,1.3989,1.3481,1.3262,1.2766,1.2185,1.2983,1.3343,1.309,1.2344,1.1718,1.132,1.1957,1.3108,1.4672,1.7255,1.8687,2.1358,2.4819,2.9817,3.5375,3.6845,3.7453,3.8526,3.9178,3.9689,3.9805,3.9711,3.9658,3.9736,4.0108,4.0323,4.038,4.0538,3.8587,3.6725,3.6696,3.6577,3.6411,3.6166,3.564,3.5326,3.5303,3.5082,3.5082,3.5381,3.5754,3.622,3.6638,3.6937,3.7267,3.7681,3.8047,3.8033,3.8187,3.8268,3.8373,3.8699,3.815,3.6944,3.6062,3.5355,3.442,3.3314,3.2222,2.9585,3.0073,2.9945,3.002,3.0218,2.9383,2.9145,2.9205,2.8669,2.8742,2.9169,2.9694,3.062,3.1849,3.2721,3.379,3.5257,3.6275,3.7013,3.7686,3.8415,3.8926,3.9095,3.8905,3.8597,3.8446,3.775,3.7176,3.7107,3.7314,3.7046,3.6662,3.6195,3.5194,3.3383,3.1533,3.0188,2.9778,2.8811,2.7558,2.64,2.6136,2.526,2.3738,2.263,2.1412,2.0164,1.9065,1.81,1.7344,1.6617,1.6018,1.5743,1.5465,1.5193,1.5015,1.5043,1.533,1.5095,1.4548,1.3797,1.3141,1.4116,1.5578,1.7049,1.8461,1.9703,2.1104,2.4888,2.9635,3.5889,3.7183,3.8197,3.9275,3.9925,4.0385,4.0451,4.0427,4.0463,4.0463,4.0903,4.1081,4.1119,4.0897,3.915,3.7478,3.707,3.6923,3.6599,3.6362,3.6017,3.5775,3.5716,3.5456,3.5157,3.568,3.6275,3.6626,3.6932,3.6947,3.7236,3.7645,3.7798,3.765,3.7922,3.8455,3.8687,3.8811,3.8283,3.7616,3.6649,3.5616,3.4448,3.3398,3.2867,3.044,3.1333,3.0693,3.0442,3.0453,2.9923,3.0028,3.0383,2.9676,2.9777,3.0531,3.0639,3.132,3.252,3.3119,3.3966,3.5007,3.6404,3.72,3.7607,3.8731,3.9483,3.9444,3.9201,3.8993,3.8799,3.8139,3.7499,3.7313,3.7726,3.7608,3.7222,3.6748,3.5981,3.4083,3.2149,3.1407,3.149,3.0434,2.9072,2.8109,2.7866,2.6894,2.5625,2.4566,2.3552,2.2087,2.1188,2.0162,1.9214,1.8858,1.8144,1.7429,1.7396,1.6834,1.593,1.6105,1.6582,1.7126,1.6369,1.5891,1.5329,1.6485,1.7692,1.83,1.9458,2.0918,2.2459,2.5086,2.9326,3.3677,3.7471,3.8947,4.0084,4.0734,4.106,4.121,4.121,4.1229,4.1313,4.1313,4.1304,4.1368,4.1058,3.9567,3.8348,3.7721,3.7302,3.6952,3.6764,3.6605,3.621,3.6145,3.6052,3.5903,3.6293,3.6719,3.7068,3.7226,3.7187,3.7319,3.7687,3.7648,3.7435,3.7691,3.8218,3.8516,3.8702,3.8217,3.775,3.6689,3.5586,3.4502,3.3669,3.3155,3.0977,3.154,3.1532,3.152,3.1351,3.0537,3.0256,3.0532,3.0757,3.1074,3.1422,3.169,3.2191,3.2944,3.3514,3.419,3.5326,3.66,3.7425,3.7604,3.8942,3.925,3.9298,3.9413,3.9307,3.9053,3.849,3.8149,3.7981,3.8212,3.7989,3.7617,3.7019,3.5967,3.4767,3.3323,3.2536,3.2359,3.1415,3.0284,2.9603,2.931,2.8585,2.7257,2.6718,2.5605,2.4174,2.3373,2.2384,2.1293,2.0942,2.0314,1.9684,1.9654,1.9069,1.8204,1.8164,1.8639,1.9192,1.9021,1.9158,1.8799,1.8791,2.0012,2.1316,2.143,2.2589,2.3697,2.5283,2.974,3.5247,3.8611,4.0445,4.1034,4.163,4.19,4.2068,4.1984,4.1984,4.2151,4.2151,4.1823,4.1751,4.1116,3.9825,3.8974,3.8424,3.7977,3.7649,3.7546,3.7383,3.6811,3.659,3.659,3.659,3.6664,3.6886,3.7291,3.7356,3.7302,3.7546,3.7797,3.7866,3.7725,3.7766,3.7981,3.8366,3.8702,3.837,3.7796,3.6958,3.6,3.4973,3.4199,3.3675,3.1756,3.2113,3.2103,3.2267,3.2281,3.1496,3.1209,3.1561,3.2346,3.2616,3.2792,3.3113,3.3273,3.3558,3.4078,3.4468,3.5602,3.7013,3.7711,3.7953,3.9046,3.9339,3.9441,3.9522,3.9483,3.9281,3.9195,3.9075,3.8852,3.8831,3.8551,3.7934,3.7222,3.6675,3.5646,3.4437,3.3484,3.3307,3.2568,3.1734,3.1274,3.0785,3.0106,2.9215,2.849,2.7717,2.6421,2.5468,2.4671,2.3591,2.2786,2.2223,2.1911,2.1492,2.0994,2.0252,2.0149,2.058,2.0755,2.1034,2.0951,2.0631,2.1087,2.2281,2.3649,2.3568,2.3738,2.4644,2.5735,3.0134,3.5476,3.8818,4.1378,4.1965,4.2299,4.2569,4.2985,4.2965,4.2633,4.2716,4.2614,4.2328,4.1808,4.099,4.0061,3.9541,3.9025,3.8646,3.8282,3.8135,3.795,3.7409,3.6961,3.6831,3.6664,3.6571,3.6886,3.7421,3.7432,3.7402,3.7611,3.7865,3.7937,3.7928,3.7848,3.794,3.8479,3.8636,3.837,3.8042,3.754,3.659,3.5434,3.4773,3.425,3.2895,3.3096,3.2487,3.2701,3.3188,3.2945,3.3136,3.3661,3.3953,3.4227,3.4647,3.4305,3.4185,3.4261,3.4937,3.532,3.5642,3.7168,3.7686,3.8224,3.9006,3.9305,3.9547,3.968,3.971,3.9724,3.9689,3.9621,3.9689,3.9324,3.8971,3.856,3.8194,3.759,3.6535,3.5714,3.4886,3.4468,3.3936,3.3226,3.2713,3.2389,3.1686,3.0943,3.0159,2.932,2.8149,2.7082,2.6011,2.5097,2.4197,2.3383,2.289,2.2563,2.2078,2.1807,2.1998,2.236,2.2259,2.255,2.2657,2.2615,2.3522,2.4471,2.524,2.553,2.5629,2.5894,2.6847,3.064,3.4728,3.851,4.2216,4.255,4.2882,4.338,4.3958,4.3793,4.3297,4.3048,4.2818,4.2411,4.1561,4.0868,4.0413,4.0047,3.9644,3.9396,3.9083,3.8725,3.8405,3.7821,3.7352,3.7035,3.6849,3.6738,3.6886,3.7329,3.7476,3.7467,3.7681,3.7921,3.7987,3.7915,3.776,3.7898,3.8171,3.837,3.8391,3.8042,3.7826,3.7391,3.6376,3.5442,3.4784,3.3839,3.4469,3.4513,3.4742,3.488,3.5123,3.4924,3.4489,3.4539,3.4661,3.4933,3.4776,3.4787,3.4613,3.518,3.5518,3.6137,3.6875,3.759,3.8236,3.8859,3.9286,3.9617,3.9874,3.9955,3.9948,3.9943,4.0131,3.9702,3.956,3.9241,3.8643,3.8707,3.8312,3.8016,3.7588,3.6598,3.5672,3.5218,3.4583,3.4114,3.3694,3.3107,3.2375,3.192,3.1025,2.9653,2.8958,2.8061,2.7134,2.66,2.6039,2.5677,2.5501,2.5099,2.4492,2.4759,2.5047,2.4158,2.4564,2.4816,2.4818,2.589,2.7239,2.7817,2.7786,2.7578,2.7719,2.8143,3.1295,3.538,3.9257,4.2095,4.2965,4.338,4.4123,4.4616,4.4534,4.4041,4.3628,4.338,4.2664,4.179,4.1163,4.0759,4.043,4.0158,4.0004,3.991,3.9548,3.9052,3.8462,3.8007,3.7667,3.7164,3.6886,3.7034,3.7255,3.7255,3.7345,3.7609,3.7767,3.7983,3.7927,3.7806,3.7665,3.7683,3.7971,3.8304,3.8237,3.8042,3.778,3.733,3.6214,3.5326,3.4422,3.5135,3.5192,3.5499,3.6029,3.6114,3.596,3.5767,3.5543,3.5602,3.5999,3.5896,3.5661,3.5577,3.6098,3.6361,3.6574,3.7501,3.8141,3.8391,3.8995,3.9372,3.9791,4.017,4.0282,4.0256,4.0385,4.0639,4.0343,4.0185,3.9887,3.8951,3.9094,3.9208,3.9178,3.9047,3.859,3.752,3.6632,3.5991,3.5483,3.4946,3.4278,3.387,3.3624,3.2414,3.1098,3.0766,2.9851,2.887,2.8255,2.7696,2.7189,2.6756,2.6704,2.6122,2.6704,2.6546,2.5905,2.5979,2.6418,2.7025,2.8039,2.9453,2.9871,2.99,2.9481,2.9377,2.9965,3.1584,3.6044,4.0,4.1686,4.3214,4.4041,4.4862,4.5025,4.5107,4.478,4.437,4.3762,4.3102,4.2378,4.1699,4.1094,4.0841,4.0685,4.0646,4.0628,4.0491,3.991,3.92,3.8759,3.8377,3.787,3.7293,3.7181,3.7107,3.6812,3.6977,3.7451,3.7653,3.7708,3.7778,3.7831,3.7644,3.7408,3.8037,3.8437,3.8217,3.7678,3.7044,3.6724,3.6517,3.5796,3.4944,3.5494,3.4974,3.5749,3.6701,3.6487,3.6691,3.7235,3.6788,3.6879,3.728,3.7052,3.6731,3.6619,3.6964,3.7175,3.746,3.8058,3.8518,3.8729,3.9421,3.9844,4.0103,4.0514,4.0813,4.0766,4.0958,4.1323,4.1528,4.1312,4.0562,3.9498,4.0179,4.0484,4.0358,4.0677,4.0428,3.9756,3.8626,3.7746,3.6881,3.6114,3.5514,3.5335,3.4684,3.3823,3.2746,3.1839,3.0999,3.0087,2.9333,2.8659,2.8267,2.7539,2.7418,2.7602,2.8203,2.8003,2.7622,2.7448,2.7772,2.8531,2.9704,3.0969,3.1301,3.1164,3.0727,3.0858,3.1417,3.3051,3.6828,4.018,4.2262,4.3463,4.4288,4.5107,4.5617,4.5413,4.4782,4.4373,4.3923,4.3203,4.2422,4.168,4.156,4.123,4.1152,4.1152,4.1267,4.1262,4.0966,4.021,3.9668,3.9242,3.8817,3.8236,3.744,3.7107,3.6812,3.683,3.7451,3.749,3.7462,3.7378,3.737,3.7277,3.724,3.763,3.7883,3.7842,3.7162,3.6163,3.5851,3.5957,3.5925,3.5819,3.607,3.6812,3.744,3.7665,3.757,3.7578,3.7788,3.7632,3.7442,3.7216,3.6839,3.6966,3.7517,3.76,3.7799,3.8119,3.8602,3.8703,3.9231,3.9792,4.0311,4.0636,4.1183,4.1409,4.1592,4.176,4.1899,4.182,4.1676,4.1531,4.0796,4.1252,4.1437,4.1683,4.2048,4.2063,4.1652,4.092,3.9553,3.8419,3.773,3.7108,3.6626,3.5914,3.5342,3.4346,3.3239,3.2666,3.2042,3.1361,3.0942,3.0749,2.95,2.9122,2.9492,2.9596,2.9367,2.9119,2.8867,2.9132,2.9132,2.9969,3.1452,3.2128,3.1911,3.2002,3.2388,3.3172,3.499,3.7181,4.0167,4.2697,4.3609,4.4452,4.5372,4.6185,4.5616,4.4885,4.4375,4.3903,4.317,4.2485,4.2112,4.2009,4.185,4.1695,4.1695,4.1985,4.2076,4.2209,4.1559,4.0643,4.0097,3.9662,3.9048,3.8194,3.7916,3.777,3.7693,3.7544,3.7432,3.7294,3.6918,3.6699,3.6681,3.6717,3.6781,3.6991,3.7153,3.667,3.5693,3.4972,3.4854,3.5136,3.6074,3.6485,3.7352,3.7984,3.817,3.7924,3.781,3.7909,3.7765,3.7614,3.7462,3.7368,3.776,3.8443,3.846,3.8804,3.9183,3.9426,3.9684,3.9927,4.0413,4.0786,4.1263,4.1811,4.1946,4.2227,4.2466,4.2461,4.2017,4.2212,4.2221,4.169,4.1952,4.233,4.2793,4.3167,4.3307,4.3016,4.2558,4.1548,4.0029,3.9197,3.8322,3.7747,3.7215,3.664,3.5674,3.4621,3.4338,3.3851,3.3258,3.2395,3.1902,3.1089,3.0807,3.084,3.0866,3.0699,3.0471,3.0397,3.047,3.0719,3.0817,3.2474,3.4425,3.4376,3.4277,3.4571,3.3866,3.5345,3.7173,3.9822,4.1947,4.3355,4.4353,4.5372,4.5942,4.5982,4.5291,4.4745,4.4119,4.3439,4.2744,4.2345,4.2316,4.239,4.2236,4.2236,4.2467,4.2621,4.2754,4.2708,4.1761,4.0967,4.0459,3.9785,3.8977,3.872,3.8574,3.817,3.7836,3.7499,3.7197,3.6925,3.6666,3.6238,3.623,3.6327,3.6336,3.6519,3.5933,3.5187,3.4629,3.4127,3.43,3.6335,3.6952,3.7446,3.7965,3.8426,3.7924,3.7765,3.8022,3.7783,3.7784,3.8113,3.8376,3.9027,3.9563,3.9934,4.0463,4.0741,4.0645,4.0693,4.0953,4.1682,4.1674,4.1825,4.2284,4.2572,4.2728,4.2985,4.2691,4.234,4.2712,4.276,4.2268,4.2485,4.2919,4.3343,4.3746,4.405,4.3836,4.3398,4.3002,4.1836,4.0621,3.9565,3.8859,3.8365,3.7647,3.6833,3.6211,3.5905,3.5405,3.4794,3.4054,3.346,3.3002,3.2673,3.2554,3.2234,3.2081,3.189,3.1775,3.233,3.287,3.2901,3.3836,3.5778,3.6737,3.6644,3.6303,3.5679,3.5784,3.7608,3.9395,4.1487,4.3219,4.4335,4.5352,4.584,4.6144,4.5533,4.4965,4.4239,4.3538,4.2958,4.2554,4.2645,4.2794,4.2774,4.2851,4.2927,4.2927,4.3004,4.3096,4.2733,4.1963,4.1269,4.0643,3.9851,3.9228,3.8991,3.8535,3.8127,3.7845,3.7604,3.7307,3.6938,3.6355,3.5956,3.5967,3.5947,3.6084,3.584,3.5373,3.4641,3.4185,3.3733,3.747,3.8217,3.833,3.8449,3.8566,3.8402,3.8402,3.8481,3.8402,3.8615,3.8878,3.9003,3.935,3.9873,4.0523,4.1024,4.1378,4.1528,4.1612,4.1602,4.2283,4.231,4.2375,4.2785,4.3209,4.3317,4.3463,4.3385,4.3046,4.3332,4.3699,4.3746,4.3847,4.4313,4.5006,4.5169,4.4905,4.4543,4.418,4.3735,4.2764,4.1621,4.0743,4.0118,3.9726,3.9216,3.8656,3.7951,3.7216,3.657,3.6018,3.5416,3.5052,3.4837,3.4558,3.3942,3.3719,3.3451,3.3257,3.3236,3.374,3.4832,3.4848,3.5092,3.7018,3.8768,3.862,3.8569,3.7891,3.7177,3.848,3.9921,4.1824,4.3164,4.4295,4.523,4.5941,4.5737,4.529,4.4722,4.4136,4.3295,4.2557,4.2604,4.3198,4.3233,4.3004,4.3081,4.3386,4.331,4.3157,4.3324,4.3415,4.2693,4.1792,4.1542,4.0902,4.0141,3.9405,3.9076,3.8721,3.8354,3.8007,3.7332,3.6891,3.6435,3.6093,3.5743,3.5879,3.5947,3.6016,3.5646,3.4883,3.4251,3.3953]}]]